[[{"header":{"parameterUnit":"m.s-1","parameterCategory":1,"la1":30.6,"la2":28.766,"lo1":-90.7593,"lo2":-88.6598,"dy":0.0162,"dx":0.0183,"nx":116,"ny":114,"refTime":"2024-04-17T12:00:00:Z","depth":0,"parameterNumber":2,"parameterNumberName":"U-component_of_WINDS"},"data":[0.0,0.0,0.0,0.0,0.0,0.0,0.0,0.0,0.0,0.0,0.0,0.0,0.0,0.0,0.0,0.0,0.0,0.0,0.0,0.0,0.0,0.0,0.0,0.0,0.0,0.0,0.0,0.0,0.0,0.0,0.0,0.0,0.0,0.0,0.0,0.0,0.0,0.0,0.0,0.0,0.0,0.0,0.0,0.0,0.0,0.0,0.0,0.0,0.0,0.0,0.0,0.0,0.0,0.0,0.0,0.0,0.0,0.0,0.0,0.0,0.0,0.0,0.0,0.0,0.0,0.0,0.0,0.0,0.0,0.0,0.0,0.0,0.0,0.0,0.0,0.0,0.0,0.0,0.0,0.0,0.0,0.0,0.0,0.0,0.0,0.0,0.0,0.0,0.0,0.0,0.0,0.0,0.0,0.0,0.0,0.0,0.0,0.0,0.0,0.0,0.0,0.0,0.0,0.0,0.0,0.0,0.0,0.0,0.0,0.0,0.0,0.0,0.0,0.0,0.0,0.0,0.0,0.0,0.0,0.0,0.0,0.0,0.0,0.0,0.0,0.0,0.0,0.0,0.0,0.0,0.0,0.0,0.0,0.0,0.0,0.0,0.0,0.0,0.0,0.0,0.0,0.0,0.0,0.0,0.0,0.0,0.0,0.0,0.0,0.0,0.0,0.0,0.0,0.0,0.0,0.0,0.0,0.0,0.0,0.0,0.0,0.0,0.0,0.0,0.0,0.0,0.0,0.0,0.0,0.0,0.0,0.0,0.0,0.0,0.0,0.0,0.0,0.0,0.0,0.0,0.0,0.0,0.0,0.0,0.0,0.0,0.0,0.0,0.0,0.0,0.0,0.0,0.0,0.0,0.0,0.0,0.0,0.0,0.0,0.0,0.0,0.0,0.0,0.0,0.0,0.0,0.0,0.0,0.0,0.0,0.0,0.0,0.0,0.0,0.0,0.0,0.0,0.0,0.0,0.0,0.0,0.0,0.0,0.0,0.0,0.0,0.0,0.0,0.0,0.0,0.0,0.0,0.0,0.0,0.0,0.0,0.0,0.0,0.0,0.0,0.0,0.0,0.0,0.0,0.0,0.0,0.0,0.0,0.0,0.0,0.0,0.0,0.0,0.0,0.0,0.0,0.0,0.0,0.0,0.0,0.0,0.0,0.0,0.0,0.0,0.0,0.0,0.0,0.0,0.0,0.0,0.0,0.0,0.0,0.0,0.0,0.0,0.0,0.0,0.0,0.0,0.0,0.0,0.0,0.0,0.0,0.0,0.0,0.0,0.0,0.0,0.0,0.0,0.0,0.0,0.0,0.0,0.0,0.0,0.0,0.0,0.0,0.0,0.0,0.0,0.0,0.0,0.0,0.0,0.0,0.0,0.0,0.0,0.0,0.0,0.0,0.0,0.0,0.0,0.0,0.0,0.0,0.0,0.0,0.0,0.0,0.0,0.0,0.0,0.0,0.0,0.0,0.0,0.0,0.0,0.0,0.0,0.0,0.0,0.0,0.0,0.0,0.0,0.0,0.0,0.0,0.0,0.0,0.0,0.0,0.0,0.0,0.0,0.0,0.0,0.0,0.0,0.0,0.0,0.0,0.0,0.0,0.0,0.0,0.0,0.0,0.0,0.0,0.0,0.0,0.0,0.0,0.0,0.0,0.0,0.0,0.0,0.0,0.0,0.0,0.0,0.0,0.0,0.0,0.0,0.0,0.0,0.0,0.0,0.0,0.0,0.0,0.0,0.0,0.0,0.0,0.0,0.0,0.0,0.0,0.0,0.0,0.0,0.0,0.0,0.0,0.0,0.0,0.0,0.0,0.0,0.0,0.0,0.0,0.0,0.0,0.0,0.0,0.0,0.0,0.0,0.0,0.0,0.0,0.0,0.0,0.0,0.0,0.0,0.0,0.0,0.0,0.0,0.0,0.0,0.0,0.0,0.0,0.0,0.0,0.0,0.0,0.0,0.0,0.0,0.0,0.0,0.0,0.0,0.0,0.0,0.0,0.0,0.0,0.0,0.0,0.0,0.0,0.0,0.0,0.0,0.0,0.0,0.0,0.0,0.0,0.0,0.0,0.0,0.0,0.0,0.0,0.0,0.0,0.0,0.0,0.0,0.0,0.0,0.0,0.0,0.0,0.0,0.0,0.0,0.0,0.0,0.0,0.0,0.0,0.0,0.0,0.0,0.0,0.0,0.0,0.0,0.0,0.0,0.0,0.0,0.0,0.0,0.0,0.0,0.0,0.0,0.0,0.0,0.0,0.0,0.0,0.0,0.0,0.0,0.0,0.0,0.0,0.0,0.0,0.0,0.0,0.0,0.0,0.0,0.0,0.0,0.0,0.0,0.0,0.0,0.0,0.0,0.0,0.0,0.0,0.0,0.0,0.0,0.0,0.0,0.0,0.0,0.0,0.0,0.0,0.0,0.0,0.0,0.0,0.0,0.0,0.0,0.0,0.0,0.0,0.0,0.0,0.0,0.0,0.0,0.0,0.0,0.0,0.0,0.0,0.0,0.0,0.0,0.0,0.0,0.0,0.0,0.0,0.0,0.0,0.0,0.0,0.0,0.0,0.0,0.0,0.0,0.0,0.0,0.0,0.0,0.0,0.0,0.0,0.0,0.0,0.0,0.0,0.0,0.0,0.0,0.0,0.0,0.0,0.0,0.0,0.0,0.0,0.0,0.0,0.0,0.0,0.0,0.0,0.0,0.0,0.0,0.0,0.0,0.0,0.0,0.0,0.0,0.0,0.0,0.0,0.0,0.0,0.0,0.0,0.0,0.0,0.0,0.0,0.0,0.0,0.0,0.0,0.0,0.0,0.0,0.0,0.0,0.0,0.0,0.0,0.0,0.0,0.0,0.0,0.0,0.0,0.0,0.0,0.0,0.0,0.0,0.0,0.0,0.0,0.0,0.0,0.0,0.0,0.0,0.0,0.0,0.0,0.0,0.0,0.0,0.0,0.0,0.0,0.0,0.0,0.0,0.0,0.0,0.0,0.0,0.0,0.0,0.0,0.0,0.0,0.0,0.0,0.0,0.0,0.0,0.0,0.0,0.0,0.0,0.0,0.0,0.0,0.0,0.0,0.0,0.0,0.0,0.0,0.0,0.0,0.0,0.0,0.0,0.0,0.0,0.0,0.0,0.0,0.0,0.0,0.0,0.0,0.0,0.0,0.0,0.0,0.0,0.0,0.0,0.0,0.0,0.0,0.0,0.0,0.0,0.0,0.0,0.0,0.0,0.0,0.0,0.0,0.0,0.0,0.0,0.0,0.0,0.0,0.0,0.0,0.0,0.0,0.0,0.0,0.0,0.0,0.0,0.0,0.0,0.0,0.0,0.0,0.0,0.0,0.0,0.0,0.0,0.0,0.0,0.0,0.0,0.0,0.0,0.0,0.0,0.0,0.0,0.0,0.0,0.0,0.0,0.0,0.0,0.0,0.0,0.0,0.0,0.0,0.0,0.0,0.0,0.0,0.0,0.0,0.0,0.0,0.0,0.0,0.0,0.0,0.0,0.0,0.0,0.0,0.0,0.0,0.0,0.0,0.0,0.0,0.0,0.0,0.0,0.0,0.0,0.0,0.0,0.0,0.0,0.0,0.0,0.0,0.0,0.0,0.0,0.0,0.0,0.0,0.0,0.0,0.0,0.0,0.0,0.0,0.0,0.0,0.0,0.0,0.0,0.0,0.0,0.0,0.0,0.0,0.0,0.0,0.0,0.0,0.0,0.0,0.0,0.0,0.0,0.0,0.0,0.0,0.0,0.0,0.0,0.0,0.0,0.0,0.0,0.0,0.0,0.0,0.0,0.0,0.0,0.0,0.0,0.0,0.0,0.0,0.0,0.0,0.0,0.0,0.0,0.0,0.0,0.0,0.0,0.0,0.0,0.0,0.0,0.0,0.0,0.0,0.0,0.0,0.0,0.0,0.0,0.0,0.0,0.0,0.0,0.0,0.0,0.0,0.0,0.0,0.0,0.0,0.0,0.0,0.0,0.0,0.0,0.0,0.0,0.0,0.0,0.0,0.0,0.0,0.0,0.0,0.0,0.0,0.0,0.0,0.0,0.0,0.0,0.0,0.0,0.0,0.0,0.0,0.0,0.0,0.0,0.0,0.0,0.0,0.0,0.0,0.0,0.0,0.0,0.0,0.0,0.0,0.0,0.0,0.0,0.0,0.0,0.0,0.0,0.0,0.0,0.0,0.0,0.0,0.0,0.0,0.0,0.0,0.0,0.0,0.0,0.0,0.0,0.0,0.0,0.0,0.0,0.0,0.0,0.0,0.0,0.0,0.0,0.0,0.0,0.0,0.0,0.0,0.0,0.0,0.0,0.0,0.0,0.0,0.0,0.0,0.0,0.0,0.0,0.0,0.0,0.0,0.0,0.0,0.0,0.0,0.0,0.0,0.0,0.0,0.0,0.0,0.0,0.0,0.0,0.0,0.0,0.0,0.0,0.0,0.0,0.0,0.0,0.0,0.0,0.0,0.0,0.0,0.0,0.0,0.0,0.0,0.0,0.0,0.0,0.0,0.0,0.0,0.0,0.0,0.0,0.0,0.0,0.0,0.0,0.0,0.0,0.0,0.0,0.0,0.0,0.0,0.0,0.0,0.0,0.0,0.0,0.0,0.0,0.0,0.0,0.0,0.0,0.0,0.0,0.0,0.0,0.0,0.0,0.0,0.0,0.0,0.0,0.0,0.0,0.0,0.0,0.0,0.0,0.0,0.0,0.0,0.0,0.0,0.0,0.0,0.0,0.0,0.0,0.0,0.0,0.0,0.0,0.0,0.0,0.0,0.0,0.0,0.0,0.0,0.0,0.0,0.0,0.0,0.0,0.0,0.0,0.0,0.0,0.0,0.0,0.0,0.0,0.0,0.0,0.0,0.0,0.0,0.0,0.0,0.0,0.0,0.0,0.0,0.0,0.0,0.0,0.0,0.0,0.0,0.0,0.0,0.0,0.0,0.0,0.0,0.0,0.0,0.0,0.0,0.0,0.0,0.0,0.0,0.0,0.0,0.0,0.0,0.0,0.0,0.0,0.0,0.0,0.0,0.0,0.0,0.0,0.0,0.0,0.0,0.0,0.0,0.0,0.0,0.0,0.0,0.0,0.0,0.0,0.0,0.0,0.0,0.0,0.0,0.0,0.0,0.0,0.0,0.0,0.0,0.0,0.0,0.0,0.0,0.0,0.0,0.0,0.0,0.0,0.0,0.0,0.0,0.0,0.0,0.0,0.0,0.0,0.0,0.0,0.0,0.0,0.0,0.0,0.0,0.0,0.0,0.0,0.0,0.0,0.0,0.0,0.0,0.0,0.0,0.0,0.0,0.0,0.0,0.0,0.0,0.0,0.0,0.0,0.0,0.0,0.0,0.0,0.0,0.0,0.0,0.0,0.0,0.0,0.0,0.0,0.0,0.0,0.0,0.0,0.0,0.0,0.0,0.0,0.0,0.0,0.0,0.0,0.0,0.0,0.0,0.0,0.0,0.0,0.0,0.0,0.0,0.0,0.0,0.0,0.0,0.0,0.0,0.0,0.0,0.0,0.0,0.0,0.0,0.0,0.0,0.0,0.0,0.0,0.0,0.0,0.0,0.0,0.0,0.0,0.0,0.0,0.0,0.0,0.0,0.0,0.0,0.0,0.0,0.0,0.0,0.0,0.0,0.0,0.0,0.0,0.0,0.0,0.0,0.0,0.0,0.0,0.0,0.0,0.0,0.0,0.0,0.0,0.0,0.0,0.0,0.0,0.0,0.0,0.0,0.0,0.0,0.0,0.0,0.0,0.0,0.0,0.0,0.0,0.0,0.0,0.0,0.0,0.0,0.0,0.0,0.0,0.0,0.0,0.0,0.0,0.0,0.0,0.0,0.0,0.0,0.0,0.0,0.0,0.0,0.0,0.0,0.0,0.0,0.0,0.0,0.0,0.0,0.0,0.0,0.0,0.0,0.0,0.0,0.0,0.0,0.0,0.0,0.0,0.0,0.0,0.0,0.0,0.0,0.0,0.0,0.0,0.0,0.0,0.0,0.0,0.0,0.0,0.0,0.0,0.0,0.0,0.0,0.0,0.0,0.0,0.0,0.0,0.0,0.0,0.0,0.0,0.0,0.0,0.0,-1.082,0.0,0.0,0.0,0.0,0.0,0.0,0.0,0.0,0.0,0.0,0.0,0.0,0.0,0.0,0.0,0.0,0.0,0.0,0.0,0.0,0.0,0.0,0.0,0.0,-1.1251,-1.1508,-1.1443,-1.1489,-1.1352,-1.093,0.0,0.0,0.0,0.0,0.0,-0.9777,-0.9867,-0.981,-0.962,-1.1282,-1.2001,-1.1809,-1.2054,-1.2366,-1.272,0.0,0.0,0.0,0.0,0.0,0.0,0.0,0.0,0.0,0.0,0.0,0.0,0.0,0.0,0.0,0.0,0.0,0.0,0.0,0.0,0.0,0.0,0.0,0.0,0.0,0.0,0.0,0.0,0.0,0.0,0.0,0.0,0.0,0.0,0.0,0.0,0.0,0.0,0.0,0.0,0.0,0.0,0.0,0.0,0.0,0.0,0.0,0.0,0.0,0.0,0.0,0.0,0.0,0.0,0.0,0.0,0.0,0.0,0.0,0.0,0.0,0.0,0.0,0.0,0.0,0.0,0.0,0.0,0.0,0.0,0.0,-1.1221,0.0,0.0,0.0,0.0,0.0,0.0,0.0,0.0,0.0,0.0,0.0,0.0,0.0,0.0,0.0,0.0,0.0,0.0,0.0,0.0,0.0,-0.8578,-1.2132,-1.1801,-1.1801,-1.2986,-1.2003,-1.1205,-1.093,-1.1526,-1.1242,-0.9744,-1.0568,-1.1387,-1.2122,-1.2993,-1.2479,-1.0521,-1.2003,-1.3226,-1.4192,-1.4956,-1.5293,-1.5223,-1.4225,0.0,0.0,0.0,0.0,0.0,0.0,0.0,0.0,0.0,0.0,0.0,0.0,0.0,0.0,0.0,0.0,0.0,0.0,0.0,0.0,0.0,0.0,0.0,0.0,0.0,0.0,0.0,0.0,0.0,0.0,0.0,0.0,0.0,0.0,0.0,0.0,0.0,0.0,0.0,0.0,0.0,0.0,0.0,0.0,0.0,0.0,0.0,0.0,0.0,0.0,0.0,0.0,0.0,0.0,0.0,0.0,0.0,0.0,0.0,0.0,0.0,0.0,0.0,-1.2353,-1.2246,-1.2057,-1.2057,-1.2217,-1.2511,-1.2443,-1.2412,-1.2305,0.0,0.0,0.0,0.0,0.0,0.0,0.0,0.0,0.0,0.0,0.0,0.0,0.0,0.0,0.0,0.0,0.0,0.0,0.0,0.0,-0.9044,-1.3692,-1.3471,-1.2784,-1.2297,-1.2711,-1.2388,-1.0985,-1.1003,-1.0886,-1.0462,-1.1234,-1.1594,-1.1438,-1.2828,-1.2736,-1.1011,-1.3335,-1.5412,-1.7236,-1.8146,-1.8483,-1.8234,-1.6204,-1.5308,-1.5257,0.0,0.0,0.0,0.0,0.0,0.0,0.0,0.0,0.0,0.0,0.0,0.0,0.0,0.0,0.0,0.0,0.0,0.0,0.0,0.0,0.0,0.0,0.0,0.0,0.0,0.0,0.0,0.0,0.0,0.0,0.0,0.0,0.0,0.0,0.0,0.0,0.0,0.0,0.0,0.0,0.0,-0.8474,-1.0935,0.0,0.0,0.0,0.0,0.0,0.0,0.0,0.0,0.0,0.0,0.0,0.0,0.0,-1.1491,-1.1016,-1.3181,-1.4008,-1.3455,-1.3688,-1.3786,-1.3799,-1.3799,-1.3828,-1.3815,-1.3496,0.0,-1.2764,-1.2324,0.0,0.0,0.0,0.0,0.0,0.0,0.0,0.0,0.0,0.0,0.0,0.0,0.0,0.0,0.0,0.0,0.0,0.0,0.0,0.0,0.0,-1.2664,-1.2847,-1.3398,-1.4169,-1.3978,-1.2352,-1.3015,-1.2819,-1.1334,-1.1866,-1.2109,-1.192,-1.2961,-1.353,-1.3633,-1.5539,-1.7156,-1.8437,-1.926,-1.9593,-1.9486,-1.8521,-1.7388,-1.6187,-1.5748,0.0,0.0,0.0,0.0,0.0,0.0,0.0,0.0,0.0,0.0,0.0,0.0,0.0,0.0,0.0,0.0,0.0,0.0,0.0,0.0,0.0,0.0,0.0,0.0,0.0,0.0,0.0,0.0,0.0,0.0,0.0,0.0,0.0,0.0,0.0,0.0,0.0,0.0,0.0,-0.8602,-1.0232,-1.1148,-1.145,-1.1362,0.0,0.0,0.0,0.0,0.0,0.0,0.0,0.0,0.0,-1.0955,-1.2047,-1.2456,-1.2109,-1.3831,-1.4463,-1.3912,-1.4019,-1.4077,-1.4077,-1.4077,-1.4394,-1.4814,-1.415,-1.4033,-1.4219,-1.3066,-1.2451,-1.2141,0.0,0.0,0.0,0.0,-1.0957,-1.1292,0.0,0.0,0.0,0.0,0.0,0.0,0.0,0.0,0.0,0.0,0.0,0.0,-1.1324,-1.248,-1.3508,-1.4701,-1.5545,-1.5221,-1.3377,-1.4083,-1.372,-1.1765,-1.2008,-1.233,-1.2654,-1.3514,-1.4599,-1.5866,-1.7557,-1.8758,-1.9486,-2.0247,-2.0576,-2.0576,-2.0576,-1.9452,-1.7507,-1.7134,-1.6339,-1.5288,0.0,0.0,0.0,0.0,0.0,0.0,0.0,0.0,0.0,0.0,0.0,0.0,0.0,0.0,0.0,0.0,0.0,0.0,0.0,0.0,0.0,0.0,0.0,0.0,0.0,0.0,0.0,0.0,0.0,0.0,0.0,0.0,0.0,0.0,0.0,0.0,0.0,-0.9629,-1.1638,-1.1387,-1.1738,-1.1789,0.0,0.0,0.0,0.0,0.0,0.0,-1.2575,-1.1566,-1.1186,-1.1743,-1.2789,-1.326,-1.3047,-1.4241,-1.4676,-1.4307,-1.4521,-1.4629,-1.4629,-1.4746,-1.5146,-1.5713,-1.5078,-1.5098,-1.5459,-1.3857,-1.2949,-1.2492,-1.2441,-1.2197,-1.192,-1.1685,-1.1822,-1.2086,0.0,0.0,0.0,0.0,0.0,0.0,0.0,0.0,0.0,0.0,0.0,-1.1434,-1.2682,-1.4426,-1.5545,-1.5619,-1.6376,-1.577,-1.3266,-1.2463,-1.1846,-1.1347,-1.1343,-1.1984,-1.3328,-1.4768,-1.5866,-1.6648,-1.8826,-2.0314,-2.1102,-2.1837,-2.2192,-2.2192,-2.2192,-2.1302,-1.9731,-1.8329,-1.771,-1.7456,-1.5339,0.0,0.0,0.0,0.0,0.0,0.0,0.0,0.0,0.0,0.0,0.0,0.0,0.0,0.0,0.0,0.0,0.0,0.0,0.0,0.0,0.0,0.0,0.0,0.0,0.0,0.0,0.0,0.0,0.0,0.0,0.0,0.0,0.0,0.0,0.0,0.0,0.0,0.0,-1.2316,-1.2785,0.0,0.0,0.0,0.0,-1.3073,-1.2289,-1.2165,-1.3107,-1.2834,-1.2541,-1.2168,-1.3758,-1.4227,-1.3477,-1.4917,-1.5355,-1.4756,-1.5576,-1.6027,-1.6037,-1.6406,-1.6558,-1.6597,-1.6558,-1.6387,-1.5988,-1.4609,-1.3818,-1.3408,-1.3008,-1.2832,-1.2715,-1.192,-1.239,-1.335,0.0,0.0,0.0,0.0,0.0,0.0,0.0,-0.5529,-0.9331,-0.829,-0.9992,-1.1379,-1.159,-1.4059,-1.5912,-1.6431,-1.7128,-1.6692,-1.4705,-1.3219,-1.2318,-1.2092,-1.1119,-1.1737,-1.4178,-1.6058,-1.7608,-1.8826,-2.0593,-2.1634,-2.1904,-2.2192,-2.2564,-2.3004,-2.3004,-2.2699,-2.209,-2.0602,-1.9147,-1.7743,-1.6927,-1.5761,0.0,0.0,0.0,0.0,0.0,0.0,0.0,0.0,0.0,0.0,0.0,0.0,0.0,0.0,0.0,0.0,0.0,0.0,0.0,0.0,0.0,0.0,0.0,0.0,0.0,0.0,0.0,0.0,0.0,0.0,0.0,0.0,0.0,0.0,0.0,0.0,0.0,-1.286,-1.3433,0.0,-1.3518,-1.3821,-1.4074,-1.4274,-1.4352,-1.4293,-1.4149,-1.4037,-1.3678,-1.3047,-1.4175,-1.4639,-1.4326,-1.5405,-1.5831,-1.5615,-1.6211,-1.6338,-1.6135,-1.6523,-1.6665,-1.6665,-1.6665,-1.6807,-1.6855,-1.6113,-1.5225,-1.4287,-1.3857,-1.3691,-1.3652,-1.333,-1.3516,-1.3887,0.0,0.0,0.0,0.0,0.0,0.0,0.0,-0.4588,-0.8063,-0.8107,-0.99,-1.1306,-1.1673,-1.4334,-1.6426,-1.722,-1.7428,-1.6668,-1.4733,-1.2649,-1.1339,-1.0959,-1.1009,-1.2373,-1.521,-1.7285,-1.8915,-2.0184,-2.1603,-2.231,-2.231,-2.2564,-2.2936,-2.341,-2.3646,-2.3765,-2.3697,-2.2745,-2.1008,-1.8877,-1.8115,-1.691,-1.5525,0.0,0.0,0.0,0.0,0.0,0.0,0.0,0.0,0.0,0.0,0.0,0.0,0.0,0.0,0.0,0.0,0.0,0.0,0.0,0.0,0.0,0.0,0.0,0.0,0.0,0.0,0.0,0.0,0.0,0.0,0.0,0.0,0.0,0.0,0.0,-1.2922,-1.3697,-1.4311,-1.4714,-1.4903,-1.5079,-1.5229,-1.5417,-1.5788,-1.5816,-1.5303,-1.5404,-1.5142,-1.4521,-1.4881,-1.5109,-1.5154,-1.5802,-1.6125,-1.6135,-1.667,-1.6797,-1.6523,-1.6963,-1.7002,-1.6748,-1.7041,-1.7168,-1.7148,-1.7012,-1.6357,-1.5381,-1.4795,-1.4482,-1.4355,-1.4355,-1.4443,-1.4551,0.0,0.0,0.0,0.0,0.0,-0.0037,-0.0128,-0.2797,-0.5937,-0.9129,-1.037,-1.1526,-1.3096,-1.5435,-1.7202,-1.8005,-1.7176,-1.5569,-1.3118,-1.0575,-0.8808,-0.8017,-1.1024,-1.3881,-1.6419,-1.8351,-1.975,-2.057,-2.1727,-2.2327,-2.2361,-2.3071,-2.341,-2.3494,-2.4205,-2.454,-2.454,-2.454,-2.3316,-2.1145,-1.886,-1.7912,-1.7608,0.0,0.0,0.0,0.0,0.0,0.0,0.0,0.0,0.0,0.0,0.0,0.0,0.0,0.0,0.0,0.0,0.0,0.0,0.0,0.0,0.0,0.0,0.0,0.0,0.0,0.0,0.0,0.0,0.0,0.0,0.0,0.0,0.0,-1.2063,-1.2775,-1.3722,-1.4853,-1.5429,-1.5969,-1.6522,-1.607,-1.5982,-1.6522,-1.6584,-1.6534,-1.6407,-1.6895,-1.6886,-1.64,-1.5935,-1.5748,-1.5879,-1.6036,-1.6145,-1.6154,-1.6982,-1.7393,-1.7402,-1.7822,-1.7549,-1.6797,-1.7627,-1.7519,-1.6787,-1.7197,-1.7109,-1.6621,-1.5771,-1.5176,-1.4805,-1.4805,-1.5068,-1.5352,0.0,0.0,0.0,0.0,0.0,-0.0787,-0.3128,-0.4226,-0.5122,-0.6029,-0.9426,-1.1948,-1.237,-1.5093,-1.7,-1.7202,-1.5746,-1.4054,-1.2255,-0.9696,-0.8757,-0.9877,-1.1754,-1.4481,-1.8126,-1.9517,-2.0813,-2.2114,-2.2221,-2.2581,-2.3105,-2.3308,-2.3968,-2.5,-2.522,-2.5476,-2.5717,-2.5717,-2.5212,-2.4199,-2.1943,-2.0078,-1.8471,0.0,0.0,0.0,0.0,0.0,0.0,0.0,0.0,0.0,0.0,0.0,0.0,0.0,0.0,0.0,0.0,0.0,0.0,0.0,0.0,0.0,0.0,0.0,0.0,0.0,0.0,0.0,0.0,0.0,0.0,0.0,0.0,-1.3744,-1.3552,-1.4386,-1.5429,-1.6559,-1.6823,-1.7137,-1.7689,-1.7237,-1.7149,-1.7702,-1.8116,-1.7918,-1.7111,-1.7442,-1.7249,-1.63,-1.5882,-1.5693,-1.5748,-1.6238,-1.6553,-1.6562,-1.7422,-1.7676,-1.7402,-1.7822,-1.7715,-1.7217,-1.7451,-1.7422,-1.7187,-1.6992,-1.665,-1.6221,-1.5977,-1.5625,-1.5244,-1.5244,-1.5312,-1.5303,0.0,0.0,0.0,0.0,0.0,-0.1107,-0.4428,-0.4849,-0.4966,-0.5454,-0.9055,-1.1728,-1.2058,-1.4359,-1.6028,-1.6358,-1.4366,-1.246,-1.0933,-0.9108,-0.9171,-1.1628,-1.3522,-1.6269,-2.0027,-2.0785,-2.1692,-2.2923,-2.2798,-2.2987,-2.341,-2.4036,-2.478,-2.5625,-2.593,-2.629,-2.6645,-2.6645,-2.644,-2.5976,-2.4687,-2.2981,-2.1056,-1.9178,-1.8589,-1.8612,-1.7408,-1.7521,-1.8039,-1.6677,0.0,0.0,0.0,0.0,0.0,0.0,0.0,0.0,0.0,0.0,0.0,0.0,0.0,0.0,0.0,0.0,0.0,0.0,0.0,0.0,0.0,0.0,0.0,0.0,-1.4303,-1.5452,-1.5762,-1.6145,-1.6823,-1.794,-1.8078,-1.8279,-1.8819,-1.8392,-1.8204,-1.853,-1.8795,-1.8722,-1.8044,-1.8142,-1.7986,-1.7376,-1.6802,-1.6526,-1.664,-1.709,-1.7337,-1.7358,-1.833,-1.8332,-1.7614,-1.8046,-1.7621,0.0,-1.6953,-1.6894,-1.6582,-1.6875,-1.6738,0.0,0.0,0.0,0.0,0.0,-1.541,-1.5342,0.0,0.0,0.0,0.0,0.0,-0.1096,-0.4309,-0.4821,-0.5234,-0.6329,-0.898,-1.1067,-1.1893,-1.3325,-1.4517,-1.5233,-1.2937,-1.0854,-0.9455,-0.8715,-0.9869,-1.3326,-1.5759,-1.8559,-2.1859,-2.2067,-2.2493,-2.3189,-2.3337,-2.3427,-2.3545,-2.4949,-2.5692,-2.5809,-2.6588,-2.7156,-2.7561,-2.7561,-2.7414,-2.7175,-2.6997,-2.5974,-2.4277,-2.1153,-2.0612,-2.1289,-1.9442,-1.8604,-1.8321,-1.8165,0.0,0.0,0.0,0.0,0.0,0.0,0.0,0.0,0.0,0.0,0.0,0.0,0.0,0.0,0.0,0.0,0.0,0.0,0.0,0.0,0.0,0.0,0.0,0.0,-1.5573,-1.7076,-1.8253,-1.7974,-1.8016,-1.8995,-1.907,-1.9233,-1.9748,-1.9334,-1.9008,-1.912,-1.912,-1.912,-1.912,0.0,0.0,0.0,0.0,-1.7706,-1.7891,-1.8157,-1.8315,-1.8337,-1.9264,-1.9109,-1.7924,-1.8396,-1.7616,-1.5821,-1.6574,-1.6475,-1.5929,-1.6957,-1.7066,-1.6621,-1.6221,-1.5791,-1.54,-1.5361,-1.5371,-1.54,0.0,0.0,0.0,0.0,0.0,-0.0674,-0.2698,-0.4157,-0.5334,-0.6152,-0.8414,-1.0257,-1.1111,-1.2013,-1.2627,-1.2774,-1.1031,-0.9528,-0.8592,-0.8494,-1.0473,-1.5019,-1.6908,-1.9418,-2.2703,-2.2894,-2.3047,-2.3189,-2.3337,-2.3697,-2.432,-2.5186,-2.609,-2.6988,-2.7797,-2.8531,-2.9151,-2.9151,-2.9313,-2.9436,-2.814,-2.6736,-2.5255,-2.3981,-2.3789,-2.3938,-2.235,-2.2276,-2.2612,-2.0636,-2.0325,-2.0509,-1.9206,-1.8283,0.0,0.0,0.0,0.0,0.0,0.0,0.0,0.0,0.0,0.0,0.0,0.0,0.0,0.0,0.0,0.0,0.0,0.0,0.0,-1.6916,-1.7542,-1.829,-1.9473,-1.9453,-1.9409,-1.9623,-1.9284,-1.9233,-1.9748,-1.9334,-1.9196,-1.9623,-1.966,-1.966,-1.966,-1.9195,-1.8971,-1.8983,-1.8265,-1.7883,-1.7879,-1.8157,-1.8315,-1.8326,0.0,0.0,-1.8682,-1.8769,-1.86,-1.8208,-1.8082,-1.8115,-1.8338,-1.7546,-1.681,-1.6182,-1.6154,-1.5791,-1.5371,-1.5029,-1.5117,-1.5361,0.0,0.0,0.0,0.0,-0.1423,-0.2541,-0.2506,-0.395,-0.5175,-0.5557,-0.7289,-0.8823,-0.9645,-1.0086,-1.0461,-1.0855,-0.9336,-0.8667,-0.9455,-1.0722,-1.3256,-1.7307,-1.9455,-2.151,-2.3566,-2.3891,-2.4068,-2.4068,-2.4761,-2.5299,-2.5652,-2.6415,-2.7061,-2.7624,-2.804,-2.8504,-2.8997,-2.8997,-2.9239,-2.9531,-2.8723,-2.7958,-2.7115,-2.5344,-2.5136,-2.5539,-2.3777,-2.3335,-2.3419,-2.2153,-2.1767,-2.1656,-2.0829,-1.9904,-1.8881,0.0,0.0,0.0,0.0,0.0,0.0,0.0,0.0,0.0,0.0,0.0,0.0,0.0,0.0,-1.5614,-1.5464,0.0,-1.7064,-1.7536,-1.8403,-1.9198,-1.9817,-1.9826,-1.9798,-1.9798,-1.9346,-1.9133,-1.9384,-1.8932,-1.8832,-1.9371,-1.9409,-1.9522,-1.9786,-1.956,-1.9296,-1.8983,-1.8893,-1.8741,-1.8434,-1.8833,-1.9053,-1.9064,-1.9586,-1.9467,-1.8816,-1.908,-1.8885,-1.8235,-1.8047,-1.8081,-1.8315,-1.7923,-1.7515,-1.7162,-1.6767,-1.6287,-1.5684,-1.5254,-1.5371,-1.5684,0.0,0.0,0.0,-0.0879,-0.3263,-0.462,-0.3225,-0.4155,-0.507,-0.5237,-0.6324,-0.739,-0.8216,-0.8273,-0.8456,-0.8945,-0.7903,-0.8228,-1.0585,-1.3045,-1.5953,-1.9381,-2.1767,-2.3382,-2.4171,-2.4511,-2.4739,-2.4901,-2.6007,-2.6632,-2.6809,-2.7571,-2.7926,-2.801,-2.8152,-2.8416,-2.8757,-2.8757,-2.8943,-2.9237,-2.9049,-2.8902,-2.8517,-2.6113,-2.5907,-2.6573,-2.4532,-2.3557,-2.3199,-2.2868,-2.2446,-2.2006,-2.1858,-2.1223,-2.0191,-1.8542,-1.7784,0.0,0.0,0.0,0.0,0.0,0.0,0.0,0.0,0.0,-1.6408,-1.6077,-1.6419,-1.6712,-1.6518,-1.7572,-1.8411,-1.8206,-1.9201,-2.004,-2.0154,-1.9851,-1.9648,-1.9648,-1.9284,-1.8933,-1.8833,-1.8468,-1.843,-1.8933,-1.8883,-1.9145,-1.9773,-1.961,-1.9346,-1.8983,-1.9434,-1.9397,-1.8869,-1.9484,-1.9748,-1.966,-2.0225,-1.9973,-1.8951,-1.945,-1.9076,-1.8015,-1.8173,-1.8155,-1.8114,-1.8521,-1.8576,-1.8391,-1.7675,-1.7064,-1.6427,-1.5782,-1.5703,-1.5958,0.0,0.0,0.0,0.0,0.0,-0.503,-0.4844,-0.4959,-0.5341,-0.6057,-0.6254,-0.6645,-0.7519,-0.75,-0.7152,-0.6479,-0.6943,-0.8314,-1.0729,-1.3138,-1.6248,-2.0191,-2.2043,-2.3382,-2.4171,-2.3967,-2.418,-2.4901,-2.5394,-2.6021,-2.6809,-2.7571,-2.8047,-2.836,-2.9089,-2.9642,-3.0015,-3.0015,-3.0015,-3.0008,-2.9287,-2.8576,-2.7824,-2.679,-2.694,-2.7365,-2.4996,-2.4115,-2.3841,-2.2409,-2.2354,-2.274,-2.2024,-2.173,-2.1275,-1.9479,0.0,-1.7117,-1.5363,-1.4297,-1.399,-1.5293,-1.5837,-1.6131,0.0,0.0,-1.7883,-1.7529,-1.844,-1.9276,-1.9276,-2.0357,-2.1222,-2.1197,-2.0938,-2.0882,-2.1397,-2.0103,-1.912,-1.912,-1.907,-1.8783,-1.8342,-1.8242,-1.843,-1.8933,-1.8581,-1.8744,-1.9748,-1.8907,-1.8581,-1.902,-1.9033,-1.8844,-1.8304,-1.9296,-1.9572,-1.912,-1.9648,-1.9809,-1.9695,-1.9758,-1.9693,-1.9552,-2.0126,-2.0202,-1.9934,-1.9993,-1.961,-1.8918,-1.8378,-1.8154,-1.7912,-1.6527,-1.5771,-1.5645,0.0,0.0,0.0,0.0,0.0,-0.5096,-0.5103,-0.5096,-0.5228,-0.5561,-0.5545,-0.582,-0.6647,-0.6692,-0.6319,-0.5431,-0.6122,-0.8015,-1.1379,-1.3857,-1.7014,-2.107,-2.2936,-2.4192,-2.4888,-2.4871,-2.5417,-2.6585,-2.6763,-2.7254,-2.8087,-2.8388,-2.8608,-2.8767,-2.9095,-2.9332,-2.9512,-2.9512,-2.9512,-2.9439,-2.8631,-2.8099,-2.7603,-2.586,-2.5401,-2.5438,-2.3492,-2.2483,0.0,-2.1272,-2.1272,-2.1566,-2.1749,-2.1141,-2.0207,-1.9447,-1.8143,0.0,-1.58,-1.574,0.0,0.0,-1.7738,-1.8616,-1.8619,-1.9296,-1.9844,-1.9521,-1.9899,-2.0288,-2.0288,-2.0427,-2.0661,0.0,-2.0622,-2.046,-2.1065,-1.9904,-1.8879,-1.8583,-1.7936,-1.7476,-1.7237,-1.7225,-1.7313,-1.7551,-1.7664,-1.8066,-1.8832,-1.8442,-1.8455,-1.8958,-1.8983,-1.9058,-1.9133,-1.9572,-1.9698,-1.9484,-1.9698,-1.9798,-1.9798,-1.9798,-1.9798,-1.9811,-2.0062,-2.0117,-1.9993,-1.9993,-1.9764,-1.949,-1.9198,-1.9076,-1.8917,-1.7481,-1.7207,-1.7611,0.0,0.0,0.0,0.0,0.0,-0.5097,-0.5098,-0.5094,-0.5093,-0.5108,-0.5053,-0.5239,-0.5801,-0.5862,-0.5609,-0.4988,-0.5656,-0.7642,-1.1238,-1.3926,-1.7114,-2.0991,-2.3043,-2.4412,-2.5133,-2.5282,-2.6005,-2.7298,-2.7298,-2.7835,-2.8833,-2.8833,-2.8963,-2.9185,-2.9185,-2.9185,-2.9185,-2.9185,-2.9055,-2.8778,-2.8207,-2.7557,-2.6723,-2.4746,-2.3399,-2.2442,-2.1232,-2.0372,-1.9732,-1.9072,-1.9292,-1.9861,-2.006,-1.9583,-1.8922,-1.8639,-1.74,-1.6132,-1.6184,0.0,0.0,-1.8339,-1.9644,-2.0747,-2.0782,-2.1279,-2.1631,-2.125,-2.1175,-2.1092,-2.0752,-2.0453,-2.0429,-2.0895,-2.0444,-2.0281,-2.0938,-1.9834,-1.874,-1.8047,-1.708,-1.6325,-1.5869,-1.612,-1.6421,-1.6735,-1.6999,-1.7526,-1.8392,-1.8141,-1.8229,-1.8781,-1.8794,-1.8907,-1.9133,-1.9434,-1.9585,-1.9585,-1.9736,-1.9798,-1.9798,-1.9798,-1.9798,-1.9798,-1.9798,-1.9886,-2.0024,-1.9874,-1.9899,-2.001,-1.9768,-1.9637,-1.9534,-1.8588,-1.8509,-1.8902,0.0,0.0,0.0,0.0,0.0,-0.5095,-0.5095,-0.5107,-0.5095,-0.5091,-0.5108,-0.5091,-0.5041,-0.5034,-0.5022,-0.4992,-0.5733,-0.7233,-0.9713,-1.2854,-1.611,-1.9438,-2.18,-2.3509,-2.4513,-2.4532,-2.5043,-2.6064,-2.6064,-2.6874,-2.8418,-2.8418,-2.8868,-2.9678,-2.9678,-2.9678,-2.9678,-2.9678,-2.9189,-2.8418,-2.838,-2.6949,-2.4678,-2.3779,-2.1419,-1.854,-1.8296,-1.8207,-1.7821,-1.546,-1.6243,-1.7913,-1.6371,-1.6922,0.0,-1.6962,-1.5849,-1.5193,-1.6359,0.0,-1.7317,-1.9707,-2.096,-2.1835,-2.2772,-2.3074,-2.2984,-2.2477,-2.2366,-2.1993,-2.0888,-2.1216,-2.165,-2.1695,-2.1097,-2.0911,-2.1571,-2.0076,-1.8493,-1.7446,-1.6824,-1.5892,0.0,-1.509,-1.617,-1.7275,-1.6861,-1.7262,-1.892,-1.799,-1.7664,-1.8216,-1.8229,-1.7978,-1.7463,-1.8518,-1.8995,-1.9008,-1.956,-1.9798,-1.9798,-1.9798,-1.9798,-1.9798,-1.9798,-2.0125,-2.0655,-2.0037,-2.0125,-2.0589,-2.0037,-1.9772,-1.9772,-1.9759,-1.9234,-1.851,0.0,0.0,0.0,0.0,0.0,0.0,-0.5092,-0.5097,-0.5107,-0.5095,-0.51,0.0,0.0,0.0,0.0,0.0,-0.5239,-0.6433,-0.8852,-1.1562,-1.4278,-1.6983,-2.012,-2.2112,-2.2773,-2.3027,-2.403,-2.5792,-2.5362,-2.597,-2.7589,-2.7589,-2.7759,-2.8039,-2.8039,-2.8039,-2.8039,-2.8039,-2.7869,-2.7457,-2.5766,-2.4565,-2.3497,-2.0399,-1.8522,-1.7244,0.0,-1.4462,-1.4786,-1.3978,-1.4253,-1.4903,-1.4903,-1.4855,-1.4652,-1.4058,-1.5145,-1.6571,-1.6669,0.0,-2.0002,-2.1323,-2.2706,-2.3687,-2.3519,-2.3651,-2.3517,-2.2543,-2.1306,-2.0212,-1.9491,-1.8493,-1.8194,-1.9495,-1.8834,-1.8806,-2.0774,-1.9098,-1.7676,-1.78,-1.6649,0.0,0.0,0.0,0.0,-1.5759,-1.6572,-1.7338,-1.7903,-1.7928,-1.8179,-1.8731,-1.8744,-1.8832,-1.8982,-1.9359,-1.9547,-1.9547,-1.971,-1.9798,-1.9798,-1.9798,-1.9798,-1.9798,-1.9798,-1.9911,-2.0075,-1.9874,-1.9911,-2.0112,-2.03,-2.0376,-2.0376,-2.0376,-2.0209,-1.9952,0.0,0.0,0.0,0.0,0.0,0.0,0.0,0.0,0.0,0.0,0.0,0.0,0.0,0.0,0.0,0.0,0.0,-0.5943,-0.8093,-1.0245,-1.253,-1.4963,-1.7782,-1.9628,-2.0279,-2.0861,-2.1843,-2.33,-2.3177,-2.3828,-2.5156,-2.5156,-2.5327,-2.563,-2.563,-2.5796,-2.6062,-2.5758,-2.5441,-2.5004,-2.3076,-2.1756,-2.0596,-1.7564,-1.6006,0.0,-1.2649,-1.1883,-1.2049,-1.2362,-1.2821,-1.3298,-1.3233,-1.2946,-1.2746,-1.3374,-1.5129,-1.7093,-1.8164,-1.9974,-2.1792,-2.2597,-2.3962,-2.4846,-2.3918,-2.3997,-2.3821,-2.2369,-2.1066,-1.9783,-1.8446,-1.7167,-1.6773,-1.8104,-1.7445,-1.7593,-2.0027,-1.8745,-1.7712,-1.804,-1.7098,-1.6364,0.0,0.0,0.0,-1.523,-1.6346,-1.7162,-1.7375,-1.7903,-1.8455,-1.8958,-1.8983,-1.9196,-1.9522,-1.9522,-1.9623,-1.9798,-1.9798,-1.9798,-1.9798,-1.9798,-1.9597,-1.9258,-1.9635,-1.9585,-1.9258,-1.9648,-1.9798,-1.9836,-2.0213,-2.0351,-2.0351,-2.0351,-2.0351,-2.0351,0.0,0.0,0.0,0.0,0.0,0.0,0.0,0.0,0.0,0.0,0.0,0.0,0.0,0.0,0.0,0.0,0.0,0.0,-0.743,-0.8988,-1.0917,-1.3327,-1.4945,-1.6241,-1.7197,-1.808,-1.8618,-1.8869,-1.9696,-2.0523,-2.1312,-2.1312,-2.1754,-2.2543,-2.2543,-2.2994,-2.3725,-2.2898,-2.2062,-2.1235,-2.0389,-1.86,-1.633,-1.5362,-1.3889,-1.2242,-1.1428,-1.0518,-0.9816,-1.059,-1.1911,-1.2986,-1.1535,-1.1521,-1.25,-1.4792,-1.5807,-1.701,-2.0599,-2.2021,-2.2685,-2.362,-2.4729,-2.5243,-2.3984,-2.4028,-2.3826,-2.182,-2.1368,-2.0486,0.0,0.0,-1.7162,-1.7554,-1.704,-1.7309,-1.9346,-1.9076,-1.852,0.0,0.0,0.0,0.0,0.0,0.0,-1.5891,0.0,-1.6904,-1.7438,-1.799,-1.853,-1.8995,-1.9021,-1.9021,-1.9021,-1.9021,-1.9309,-1.9798,-1.9798,-1.9798,-1.9798,-1.9798,-1.9246,-1.8342,-1.9359,-1.9246,-1.8405,-1.9422,-1.9861,-1.9886,-1.9861,-1.9849,-1.9849,-1.9811,-1.9798,-1.9798,0.0,0.0,0.0,0.0,0.0,0.0,0.0,0.0,0.0,0.0,0.0,0.0,0.0,0.0,0.0,0.0,0.0,0.0,-0.6564,-0.8221,-0.9699,-1.0948,-1.3182,-1.4485,-1.4642,-1.5596,-1.6364,-1.6911,-1.7289,-1.7888,-1.8677,-1.8677,-1.8792,-1.9004,-1.9004,-1.9126,-1.9319,-1.9088,-1.8869,-1.8542,-1.7099,-1.6118,-1.5285,-1.3114,-1.2003,-1.1468,-1.0557,-1.0025,-0.9787,-0.996,0.0,-1.2525,-1.3227,-1.4441,-1.5668,-1.6034,-1.8162,-2.0538,-2.1326,-2.3112,-2.4951,-2.5748,-2.5747,-2.5238,-2.3799,-2.3152,-2.2147,-1.9652,-1.8367,-1.7166,0.0,0.0,0.0,-1.6189,-1.5809,0.0,-1.8612,-1.8388,0.0,-1.8658,0.0,-1.8774,-1.8948,-1.9239,0.0,0.0,-1.8083,-1.8454,-1.8568,-1.9108,-1.9459,-1.9597,-1.961,-1.961,-1.961,-1.961,-1.9673,-1.9798,-1.9798,-1.9798,-1.9798,-1.9798,-1.9648,-1.9409,-1.9685,-1.9886,-2.0062,-2.0391,-2.069,-2.1016,-2.0602,-2.0451,-2.0441,-1.9962,-1.9798,-1.9798,0.0,0.0,0.0,0.0,0.0,0.0,0.0,0.0,0.0,0.0,0.0,0.0,0.0,0.0,0.0,0.0,0.0,0.0,0.0,-0.7796,-0.8868,-1.0093,-1.1492,-1.2199,-1.212,-1.3048,-1.3528,-1.3513,-1.4397,-1.4676,-1.4387,-1.5143,-1.5105,-1.4407,-1.5163,-1.5509,-1.5509,-1.5509,-1.5509,0.0,0.0,-1.331,-1.2805,-1.1336,-1.0751,-1.0664,-1.0122,0.0,0.0,0.0,0.0,-1.3479,-1.536,-1.6648,-1.7668,-1.8935,0.0,-2.2402,-2.349,-2.4821,-2.5863,-2.5775,-2.5406,-2.4543,-2.2412,-2.16,-2.0591,-1.8102,-1.7009,0.0,-1.4627,-1.3537,0.0,0.0,0.0,0.0,-1.7939,-1.8208,-1.8421,0.0,-1.9507,0.0,-2.0415,-2.0641,-2.0429,0.0,-1.9462,-1.9225,-1.8692,-1.9455,-1.985,-1.9786,-1.9798,-1.9798,-1.9798,-1.9798,-1.9798,-1.9798,-1.9798,-1.9798,-1.9798,-1.9798,-1.9547,-1.9145,0.0,-2.0087,-1.9987,-2.0464,-2.0991,-2.1405,-2.0602,-2.0492,-2.0655,-2.0012,-1.9798,-1.9798,0.0,0.0,0.0,0.0,0.0,0.0,0.0,0.0,0.0,0.0,-0.5175,-0.5102,0.0,0.0,0.0,0.0,0.0,0.0,0.0,0.0,0.0,-0.9956,-1.0066,-1.0094,-1.0094,-1.0848,-1.0867,-1.0094,-1.1603,-1.1584,-1.0133,-1.1545,-1.1449,-1.0152,-1.1564,-1.2257,-1.2353,-1.2353,-1.2353,-1.2296,-1.1526,-1.0771,-1.0094,0.0,0.0,0.0,0.0,0.0,0.0,0.0,-1.4626,-1.5123,-1.7766,-1.8665,-1.9326,-2.2299,-2.3082,-2.3494,-2.594,-2.6409,-2.5962,-2.4965,-2.4469,-2.3494,-2.0762,-1.9917,-1.9113,-1.7004,0.0,-1.5961,-1.4416,-1.3909,-1.4024,-1.508,0.0,-1.5515,-1.7221,-1.8253,-1.9046,-1.9615,-2.0378,-2.0917,-2.1218,-2.1602,-2.1645,-2.115,-2.0792,-2.0014,-1.8725,-1.9603,-1.9989,-1.9786,-1.9901,-1.9901,-1.9798,-1.9874,-1.9874,-1.9798,-1.9874,-1.9874,-1.9798,-1.9798,-1.9296,-1.8505,-2.0012,0.0,-1.9434,-2.0464,-2.1204,-2.1606,-2.0552,-2.0401,-2.0756,-2.0125,-1.9874,-1.9798,0.0,0.0,0.0,0.0,0.0,0.0,0.0,0.0,0.0,0.0,-0.5511,-0.5097,0.0,0.0,0.0,0.0,0.0,0.0,0.0,0.0,0.0,0.0,-0.9747,-1.0094,-1.0094,-1.0248,-1.0248,-1.0094,0.0,-1.0402,-1.0094,-0.9729,-0.9748,-1.0075,-0.9729,-0.9921,-1.056,-1.056,-1.056,-1.054,-1.0383,-1.0229,-1.0094,0.0,0.0,0.0,0.0,0.0,0.0,0.0,-1.4995,-1.6151,-1.995,-2.1602,-2.2391,-2.3639,-2.4663,-2.5505,-2.5991,-2.618,-2.6143,-2.5962,-2.4286,-2.2378,-2.1245,-1.9536,0.0,0.0,-1.5308,-1.4798,-1.4491,-1.3989,-1.4068,-1.54,-1.5626,0.0,0.0,0.0,-1.9555,0.0,0.0,0.0,0.0,0.0,0.0,0.0,0.0,-2.2423,-2.1158,-2.0815,-2.0406,-1.9798,-2.0359,-2.0359,-1.9811,-2.0275,-2.0275,-1.9811,-2.0288,-2.0263,-1.9798,-1.9798,-1.9698,-1.9572,-2.0391,0.0,-2.1117,-2.1757,-2.2347,-2.2786,-2.2133,-2.1656,-2.128,-2.0769,-2.0213,-1.9798,0.0,0.0,0.0,0.0,0.0,0.0,0.0,-0.5289,-0.5191,-0.5577,-0.5311,-0.5093,-0.5093,-0.5094,-0.5093,0.0,0.0,0.0,0.0,0.0,0.0,0.0,0.0,0.0,0.0,0.0,0.0,0.0,0.0,0.0,0.0,0.0,0.0,0.0,0.0,0.0,-0.9501,-0.9913,-1.0094,-1.0094,0.0,0.0,0.0,0.0,0.0,0.0,0.0,0.0,0.0,0.0,-1.4237,-1.5286,-1.9727,-2.1987,-2.3162,-2.3951,-2.5207,-2.6277,-2.6056,-2.6343,-2.6472,-2.5462,-2.3856,-2.2013,-2.0134,0.0,0.0,0.0,-1.4157,-1.3921,-1.3921,-1.358,0.0,-1.5344,-1.5542,0.0,0.0,0.0,0.0,0.0,0.0,0.0,0.0,0.0,0.0,0.0,0.0,-2.2688,-2.173,-2.1424,-2.1099,-2.0805,-2.0782,-2.0791,-2.0746,-2.0726,-2.0665,-2.0677,-2.0966,-2.0941,-2.0677,-2.0388,-2.0413,-2.069,-2.0978,0.0,-2.1129,-2.197,-2.2297,-2.2221,-2.1669,-2.1468,-2.1393,-2.0539,-2.0037,-1.9849,0.0,0.0,0.0,0.0,0.0,0.0,-0.5223,-0.5101,-0.5065,-0.5239,-0.5144,-0.5083,-0.5089,-0.5091,-0.5104,0.0,0.0,0.0,0.0,0.0,0.0,0.0,0.0,0.0,0.0,0.0,0.0,0.0,0.0,0.0,0.0,0.0,0.0,0.0,0.0,0.0,0.0,0.0,-1.0013,0.0,0.0,0.0,0.0,0.0,0.0,0.0,0.0,0.0,0.0,0.0,-1.3205,-1.3864,-1.7951,-2.0499,-2.2189,-2.3345,-2.4704,-2.5871,-2.6068,-2.6405,-2.6345,-2.48,-2.3355,-2.1673,-1.9171,-1.7541,0.0,-1.4093,-1.3549,-1.3447,-1.3616,-1.3407,-1.3701,0.0,-1.5229,-1.5606,0.0,0.0,0.0,0.0,0.0,0.0,0.0,0.0,0.0,0.0,0.0,0.0,-2.2161,-2.2109,-2.2049,-2.1904,-2.1471,-2.1354,-2.1608,-2.142,-2.1465,-2.1774,-2.2018,-2.2069,-2.1941,-2.1545,-2.1424,-2.1593,-2.1822,0.0,0.0,-2.1933,-2.2096,-2.1455,-2.1142,-2.128,-2.1531,-2.0401,-2.0166,-2.0384,0.0,0.0,0.0,0.0,0.0,0.0,-0.5967,-0.5465,-0.5266,-0.5998,-0.5461,-0.5011,-0.5017,-0.5066,-0.5108,0.0,0.0,0.0,0.0,0.0,0.0,0.0,0.0,0.0,0.0,0.0,0.0,0.0,0.0,0.0,0.0,0.0,0.0,0.0,0.0,0.0,0.0,0.0,0.0,0.0,0.0,0.0,0.0,0.0,0.0,0.0,0.0,0.0,0.0,0.0,0.0,-1.2632,-1.455,-1.6706,-1.9014,-2.1327,0.0,0.0,-2.5965,-2.5827,-2.5064,-2.4874,-2.2932,-2.0792,-1.98,0.0,-1.58,-1.4865,-1.399,-1.3599,-1.4293,-1.4136,-1.4205,-1.5063,0.0,-1.5081,0.0,0.0,0.0,0.0,0.0,0.0,0.0,0.0,0.0,0.0,0.0,0.0,-2.3515,-2.3451,-2.3167,-2.2637,-2.2564,-2.2235,-2.1698,-2.2789,-2.3104,-2.2597,-2.3694,-2.398,-2.3496,-2.3441,-2.2793,-2.185,-2.2799,0.0,0.0,-2.2184,-2.2435,-2.1531,-2.1983,-2.2184,-2.2108,-2.0991,-2.1362,-2.2115,0.0,0.0,0.0,0.0,0.0,0.0,-0.5312,-0.5111,-0.5054,-0.5383,-0.5169,-0.4995,-0.5008,-0.5022,-0.5048,-0.5087,0.0,0.0,0.0,0.0,0.0,0.0,0.0,0.0,0.0,0.0,-0.7799,-0.8188,0.0,0.0,0.0,0.0,0.0,0.0,0.0,0.0,0.0,0.0,0.0,0.0,0.0,0.0,0.0,0.0,0.0,0.0,0.0,0.0,0.0,0.0,0.0,0.0,-1.152,-1.2678,0.0,0.0,-2.0482,-2.2483,-2.3437,-2.4441,-2.4962,-2.4014,-2.2472,-2.0745,-1.8968,0.0,-1.5782,-1.4378,-1.378,-1.3596,-1.3803,-1.3731,-1.3822,0.0,0.0,0.0,-1.6923,0.0,0.0,0.0,0.0,0.0,0.0,0.0,0.0,0.0,0.0,0.0,-2.4189,-2.3822,-2.3481,-2.3223,-2.3276,-2.3116,-2.2805,-2.3696,-2.3989,-2.3741,-2.4611,-2.4955,-2.4692,-2.3958,-2.3747,-2.3973,-2.3621,0.0,0.0,-2.367,-2.3326,-2.1665,-2.2656,-2.2784,-2.2257,-2.1173,-2.1559,-2.2539,0.0,0.0,0.0,0.0,0.0,-0.4773,-0.4789,-0.4835,-0.4956,-0.5197,-0.5058,-0.5044,-0.5298,-0.5119,-0.4998,-0.507,-0.5062,0.0,0.0,0.0,0.0,0.0,0.0,0.0,0.0,0.0,-0.7011,-0.7317,-0.7311,-0.743,0.0,0.0,0.0,0.0,0.0,0.0,0.0,0.0,0.0,0.0,0.0,0.0,0.0,0.0,0.0,0.0,0.0,0.0,0.0,0.0,0.0,0.0,0.0,0.0,0.0,0.0,-1.7803,-2.015,-2.0884,-2.2482,-2.3731,-2.2868,-2.1698,-2.028,0.0,0.0,-1.5604,-1.4091,-1.3721,-1.3632,-1.3494,-1.3445,-1.3616,0.0,0.0,-1.5211,-1.7319,-1.7808,0.0,0.0,0.0,0.0,0.0,0.0,0.0,0.0,0.0,0.0,0.0,-2.3864,-2.3684,-2.3894,-2.3746,-2.3635,-2.3543,-2.4397,-2.4722,-2.445,-2.5335,-2.5632,-2.542,-2.4609,-2.4478,-2.4875,-2.4385,0.0,0.0,-2.4362,-2.3823,-2.2001,-2.2944,-2.3049,-2.2578,-2.1456,-2.1991,-2.3153,0.0,0.0,0.0,0.0,0.0,-0.4728,-0.4785,-0.4793,-0.509,-0.5887,-0.5296,-0.5129,-0.5991,-0.5383,-0.4928,-0.4989,-0.5,0.0,0.0,0.0,0.0,0.0,0.0,0.0,0.0,0.0,-0.5546,-0.6423,-0.6423,-0.6813,-0.7586,-0.6794,-0.6409,0.0,0.0,0.0,0.0,0.0,0.0,0.0,0.0,0.0,0.0,0.0,0.0,0.0,0.0,0.0,0.0,0.0,0.0,0.0,0.0,-0.996,-1.0357,0.0,-1.4492,-1.6279,-1.868,-1.9932,-2.0741,-2.1602,-2.0556,-1.9106,0.0,0.0,-1.5171,-1.435,-1.4038,-1.3842,-1.363,-1.3601,-1.3781,-1.4395,-1.5122,0.0,-1.7043,0.0,0.0,0.0,0.0,0.0,0.0,0.0,0.0,0.0,0.0,0.0,0.0,-2.3595,-2.3909,-2.4552,-2.3969,-2.361,-2.361,-2.4896,-2.5239,-2.4612,-2.5974,-2.6258,-2.5583,-2.5568,-2.4899,0.0,0.0,0.0,0.0,-2.3713,-2.3741,-2.2699,-2.26,-2.2922,-2.3242,-2.2104,-2.2873,-2.4318,0.0,0.0,0.0,0.0,0.0,0.0,-0.555,-0.5084,-0.4844,-0.5141,-0.4958,-0.4907,-0.5184,-0.4989,-0.4849,-0.4928,-0.4968,0.0,0.0,0.0,0.0,0.0,0.0,0.0,0.0,-0.5102,-0.5228,-0.5504,-0.5508,-0.5643,-0.5877,-0.5622,-0.5504,-0.5504,-0.5507,0.0,0.0,0.0,0.0,0.0,0.0,0.0,0.0,0.0,0.0,0.0,0.0,0.0,0.0,0.0,0.0,0.0,0.0,0.0,0.0,-1.0775,-1.2507,-1.4472,-1.58,-1.7114,-1.8158,-1.8449,-1.8098,-1.7454,-1.6646,-1.6021,-1.5335,-1.4389,-1.4149,-1.4038,-1.3838,-1.3691,-1.3845,-1.459,-1.5216,0.0,0.0,0.0,0.0,0.0,0.0,0.0,0.0,0.0,0.0,0.0,0.0,0.0,0.0,-2.3595,-2.3699,-2.3924,-2.4178,-2.4073,-2.3595,-2.4941,-2.5495,-2.53,-2.5719,-2.5809,-2.56,-2.5151,-2.4685,0.0,0.0,0.0,0.0,-2.4805,-2.4442,-2.3297,-2.3786,-2.376,-2.3384,-2.2658,-2.358,-2.5114,0.0,0.0,0.0,0.0,0.0,0.0,-0.5889,-0.5444,-0.5141,-0.5197,-0.4947,-0.4878,-0.5214,-0.4976,-0.4809,-0.4853,-0.4925,0.0,0.0,0.0,0.0,0.0,0.0,0.0,-0.5098,-0.5101,-0.5091,-0.5091,-0.5107,-0.5091,-0.5091,-0.5097,-0.5098,-0.5097,-0.5098,-0.5098,0.0,0.0,0.0,0.0,0.0,0.0,-1.0208,0.0,0.0,0.0,0.0,0.0,0.0,0.0,0.0,0.0,0.0,0.0,0.0,0.0,-1.103,-1.244,-1.3509,-1.4961,-1.6232,-1.6548,-1.6559,-1.6392,-1.5888,0.0,-1.5081,-1.4441,-1.4543,-1.4614,-1.4105,-1.4158,-1.4289,-1.4345,-1.5584,0.0,0.0,0.0,0.0,0.0,0.0,0.0,0.0,0.0,0.0,0.0,0.0,0.0,0.0,-2.3724,-2.3595,-2.3595,-2.4014,-2.4029,-2.3595,-2.4687,-2.5106,-2.4852,-2.5121,-2.5106,-2.4837,-2.4418,-2.4238,0.0,0.0,0.0,0.0,-2.5076,-2.4695,-2.3958,-2.4149,-2.394,-2.3504,-2.3155,-2.3969,-2.5224,0.0,0.0,0.0,0.0,0.0,0.0,0.0,-0.5775,-0.5735,-0.5805,-0.5151,-0.5003,-0.5818,-0.525,-0.4789,-0.4789,-0.4853,0.0,0.0,0.0,0.0,0.0,0.0,0.0,-0.5097,-0.5098,-0.5106,-0.5106,-0.5097,-0.5066,-0.4983,-0.5056,-0.5136,-0.5192,-0.5195,-0.5234,-0.5273,-0.5215,-0.666,-0.8926,-0.8125,-0.8768,0.0,0.0,0.0,0.0,0.0,0.0,0.0,0.0,0.0,0.0,0.0,0.0,0.0,0.0,0.0,0.0,0.0,-1.3317,-1.4747,-1.5555,-1.5748,-1.5748,-1.5793,0.0,0.0,-1.4591,-1.5178,-1.5416,-1.4487,-1.495,-1.511,-1.3916,0.0,0.0,0.0,0.0,0.0,0.0,0.0,0.0,0.0,0.0,0.0,0.0,0.0,0.0,-2.4327,-2.3933,-2.3681,-2.3595,-2.3681,-2.3681,-2.3595,-2.4238,-2.4238,-2.361,-2.4253,-2.4193,-2.3535,-2.358,-2.358,0.0,0.0,0.0,0.0,-2.4507,-2.4507,-2.4448,-2.3849,-2.3595,-2.361,-2.3655,-2.4103,-2.4746,0.0,0.0,0.0,0.0,0.0,0.0,0.0,0.0,0.0,0.0,-0.4731,-0.4719,-0.4985,-0.484,-0.4745,0.0,0.0,0.0,0.0,0.0,0.0,0.0,0.0,0.0,-0.5097,-0.5103,-0.5105,-0.5105,-0.5091,-0.465,-0.3828,-0.4692,-0.5462,-0.609,-0.6091,-0.6464,-0.7051,-0.6387,-0.7227,-0.8984,-0.877,-0.9336,0.0,0.0,0.0,0.0,-1.0225,-1.02,0.0,0.0,0.0,0.0,0.0,0.0,0.0,0.0,-1.0094,-1.0182,-1.0531,0.0,-1.2319,-1.3128,-1.3739,-1.4286,0.0,-1.4807,0.0,0.0,0.0,0.0,0.0,0.0,0.0,0.0,0.0,0.0,0.0,0.0,0.0,0.0,0.0,0.0,0.0,0.0,0.0,0.0,0.0,-2.5034,-2.3621,-2.4351,-2.4471,-2.3638,-2.4389,-2.443,-2.3595,-2.3759,-2.3759,-2.3595,-2.3759,-2.3505,-2.2906,-2.3385,-2.334,0.0,0.0,0.0,-2.3849,-2.3849,-2.3849,-2.3819,-2.367,-2.3595,-2.367,-2.4193,-2.4807,-2.5405,0.0,0.0,0.0,0.0,0.0,0.0,0.0,0.0,0.0,0.0,-0.4866,-0.4998,-0.4697,-0.4981,-0.5077,0.0,0.0,0.0,0.0,0.0,0.0,0.0,0.0,-0.5024,-0.5059,-0.5091,-0.5097,-0.5097,-0.457,-0.4281,-0.4214,-0.535,-0.6065,-0.642,-0.6814,-0.7031,-0.709,-0.7031,-0.7539,-0.8437,-0.8848,0.0,0.0,0.0,0.0,0.0,-1.021,-1.0207,0.0,-1.0205,-1.0205,-1.019,0.0,0.0,0.0,0.0,-1.0094,-1.0094,-1.0094,-1.1004,-1.2131,-1.2932,-1.3703,-1.4456,-1.5261,0.0,0.0,0.0,0.0,0.0,0.0,0.0,0.0,0.0,0.0,0.0,0.0,0.0,0.0,0.0,0.0,0.0,0.0,0.0,0.0,0.0,0.0,-2.5167,-2.4547,-2.4308,-2.4223,-2.4333,-2.4232,-2.4006,-2.3595,-2.3837,-2.3534,-2.2742,-2.331,-2.2951,-2.1814,-2.3041,-2.3086,0.0,0.0,0.0,-2.3176,-2.3176,-2.334,-2.3595,-2.3595,-2.3595,-2.364,-2.4029,-2.4777,-2.557,0.0,0.0,0.0,0.0,0.0,0.0,0.0,0.0,0.0,0.0,0.0,0.0,0.0,0.0,0.0,0.0,0.0,0.0,0.0,0.0,0.0,0.0,-0.4984,-0.4986,-0.4991,-0.5193,-0.5228,-0.5097,-0.4251,-0.427,-0.5118,-0.6089,-0.657,-0.6629,-0.7362,-0.7363,-0.6836,-0.7441,-0.7773,-0.7969,-0.8711,0.0,0.0,0.0,0.0,0.0,0.0,0.0,0.0,-1.0057,-1.0105,-1.0178,-1.0057,0.0,0.0,0.0,0.0,0.0,-1.0098,-1.1368,-1.2892,-1.3709,-1.4469,-1.5257,-1.612,0.0,0.0,0.0,0.0,0.0,0.0,0.0,0.0,0.0,0.0,0.0,0.0,0.0,0.0,0.0,0.0,0.0,0.0,0.0,0.0,0.0,0.0,-2.5041,-2.5634,-2.4116,-2.3735,-2.483,-2.3815,-2.3311,-2.3492,-2.3973,-2.3418,-2.1931,-2.2938,-2.255,-2.1016,-2.2589,-2.2712,-2.1739,0.0,0.0,-2.2547,-2.2783,-2.3071,-2.3475,-2.3565,-2.3595,-2.361,-2.3714,-2.4477,-2.5375,0.0,0.0,0.0,0.0,0.0,0.0,0.0,0.0,0.0,0.0,0.0,0.0,0.0,0.0,0.0,0.0,0.0,0.0,0.0,0.0,0.0,-0.4838,-0.488,-0.4947,-0.4998,-0.5726,-0.579,-0.5097,-0.5597,-0.5597,-0.5097,-0.5286,-0.6117,-0.7509,-0.7636,-0.8027,-0.8555,-0.7949,-0.8125,-0.8809,-0.8945,0.0,0.0,0.0,0.0,0.0,0.0,0.0,0.0,-0.9433,-0.9644,-1.0086,-0.9399,0.0,0.0,0.0,0.0,0.0,-1.0129,-1.1368,-1.2892,-1.3709,-1.4543,-1.537,-1.6136,0.0,0.0,0.0,0.0,0.0,0.0,0.0,0.0,0.0,0.0,0.0,0.0,0.0,0.0,0.0,0.0,0.0,0.0,0.0,0.0,0.0,0.0,0.0,-2.4083,-2.418,-2.3968,-2.3367,-2.3951,-2.3902,-2.3091,-2.3164,-2.309,-2.2869,-2.263,-2.2378,-2.2161,-2.2028,-2.1874,-2.1739,0.0,-2.2368,-2.1934,-2.3011,-2.3206,-2.2877,-2.3385,-2.3595,-2.367,-2.4253,-2.4597,-2.4716,0.0,0.0,0.0,0.0,0.0,0.0,0.0,0.0,0.0,0.0,0.0,0.0,0.0,0.0,0.0,0.0,0.0,0.0,0.0,0.0,-0.4793,-0.4793,-0.4824,-0.4885,-0.4941,-0.5808,-0.5854,-0.5046,-0.5454,-0.5463,-0.5116,-0.6027,-0.7154,-0.8413,-0.8864,-0.9022,-0.9004,-0.9082,-0.9062,-0.9043,0.0,0.0,0.0,0.0,0.0,0.0,0.0,0.0,0.0,0.0,-0.955,-1.0115,-0.927,0.0,0.0,0.0,0.0,0.0,-1.0151,-1.1061,-1.2419,-1.4176,-1.4901,-1.5645,-1.7358,-1.6373,0.0,0.0,0.0,0.0,0.0,0.0,0.0,0.0,0.0,0.0,0.0,0.0,0.0,0.0,0.0,0.0,0.0,0.0,0.0,0.0,0.0,0.0,-2.4126,-2.3624,-2.3466,-2.3819,-2.3486,-2.3268,-2.3226,-2.2832,-2.2394,-2.1983,-2.2433,-2.2142,-2.1124,-2.2004,-2.1855,-2.0975,0.0,-2.1628,-2.1216,-2.1799,-2.2293,-2.2739,-2.3269,-2.3712,-2.4124,-2.4783,-2.4798,-2.4481,0.0,0.0,0.0,0.0,0.0,0.0,0.0,0.0,0.0,0.0,0.0,0.0,0.0,0.0,0.0,0.0,0.0,0.0,0.0,-0.4785,-0.4885,-0.5068,-0.5086,-0.5022,-0.4889,-0.5747,-0.5793,-0.4976,-0.5313,-0.5339,-0.5136,-0.6619,-0.7801,-0.8703,-0.9539,-0.966,-0.9334,-0.9999,-0.9882,-0.9336,0.0,0.0,0.0,0.0,0.0,0.0,0.0,0.0,0.0,0.0,0.0,0.0,0.0,0.0,0.0,-1.0133,-1.0205,-1.0199,-1.019,-1.0789,-1.1922,-1.4087,-1.4605,-1.5388,-1.8337,-1.7023,0.0,0.0,0.0,0.0,0.0,0.0,0.0,0.0,0.0,0.0,0.0,0.0,0.0,0.0,0.0,0.0,0.0,0.0,0.0,0.0,0.0,0.0,-2.4218,-2.3004,-2.2818,-2.3934,-2.2885,-2.2581,-2.3139,-2.2581,-2.2057,-2.1582,-2.2325,-2.197,-2.0665,-2.1967,-2.1793,-2.0481,-2.1167,-2.1203,-2.0801,-2.1098,-2.1774,-2.2604,-2.3297,-2.3983,-2.4655,-2.516,-2.502,-2.4589,0.0,0.0,0.0,0.0,0.0,0.0,0.0,0.0,0.0,0.0,0.0,0.0,0.0,0.0,0.0,0.0,0.0,0.0,0.0,-0.4765,-0.5127,-0.5887,-0.5923,-0.557,-0.4819,-0.5726,-0.5775,-0.49,-0.6036,-0.6081,-0.5116,-0.6046,-0.6917,-0.7747,-0.8609,-0.9415,-1.0123,-1.0182,-1.0169,-1.0111,-1.0253,0.0,0.0,0.0,0.0,0.0,0.0,0.0,0.0,0.0,0.0,0.0,0.0,0.0,-0.9238,-0.9974,-1.0205,-1.0202,-1.0199,-1.0787,-1.1643,-1.2622,-1.2886,0.0,-1.8068,-1.7023,0.0,-1.8465,0.0,0.0,0.0,0.0,0.0,0.0,0.0,0.0,0.0,0.0,0.0,0.0,0.0,0.0,0.0,0.0,0.0,0.0,0.0,0.0,-2.3456,-2.2733,-2.2361,-2.2462,-2.2361,-2.2344,-2.2395,-2.2344,-2.262,-2.3203,-2.2195,-2.1979,-2.247,-2.1553,-2.1054,-2.1007,-2.1676,-2.1579,-2.1085,-2.2302,-2.2508,-2.2181,-2.3538,-2.4499,-2.5144,-2.5208,-2.5176,-2.5144,0.0,0.0,0.0,0.0,0.0,0.0,0.0,0.0,0.0,0.0,0.0,-0.7147,-0.7614,0.0,0.0,0.0,0.0,0.0,0.0,-0.5784,-0.5923,-0.6765,-0.5813,-0.5589,-0.6337,-0.6385,-0.5878,-0.4831,-0.4335,-0.4433,-0.5136,-0.6494,-0.7306,-0.7661,-0.9077,-0.9885,-1.0195,-1.0206,-1.0197,-1.0207,-1.0221,-1.0268,0.0,0.0,0.0,0.0,0.0,0.0,0.0,0.0,-0.9355,-0.9707,-0.918,-0.9375,-0.9863,-1.0175,-1.0253,-1.0251,-1.0202,-1.082,-1.1782,-1.3163,-1.3094,0.0,0.0,-1.7837,-1.7484,-2.0023,-1.9624,0.0,0.0,0.0,0.0,0.0,0.0,0.0,0.0,0.0,0.0,0.0,0.0,0.0,0.0,0.0,0.0,0.0,0.0,0.0,0.0,-2.2691,-2.2463,-2.231,-2.231,-2.231,-2.231,-2.231,-2.2446,-2.2716,-2.2269,-2.2182,-2.2434,-2.2003,-2.1645,-2.1385,-2.1645,-2.1471,-2.1039,-2.155,-2.1869,-2.2175,-2.3867,-2.5196,-2.6087,-2.5799,-2.5689,-2.5652,0.0,0.0,0.0,0.0,0.0,0.0,0.0,0.0,-0.7315,0.0,0.0,0.0,0.0,-0.8445,0.0,0.0,0.0,0.0,-0.7137,-0.6634,-0.6745,-0.7647,-0.6332,-0.613,-0.7267,-0.6764,-0.5762,-0.4299,-0.3622,-0.3916,-0.5136,-0.6542,-0.7195,-0.7259,-0.9013,-0.9798,-0.98,-1.0081,-1.0195,-1.0191,-1.0199,-1.0233,0.0,0.0,0.0,0.0,0.0,0.0,0.0,0.0,-0.9629,-0.9824,-0.9512,-0.9629,-0.9941,-1.0215,-1.0293,-1.0351,-1.0558,-1.1054,-1.1893,0.0,0.0,0.0,-1.8453,-1.853,-1.835,-2.0658,-2.0295,0.0,0.0,0.0,0.0,0.0,0.0,0.0,0.0,0.0,0.0,0.0,0.0,0.0,0.0,0.0,0.0,0.0,0.0,0.0,0.0,-2.2772,-2.2625,-2.2426,-2.2349,-2.231,-2.231,-2.231,-2.231,-2.231,-2.231,-2.231,-2.231,-2.231,-2.2106,-2.1823,-2.1823,-2.1675,-2.1415,-2.1415,-2.1808,-2.2606,-2.4116,-2.5246,-2.6015,-2.6165,-2.6077,-2.5841,0.0,0.0,0.0,0.0,0.0,0.0,0.0,0.0,-0.8068,-0.8807,-0.8265,0.0,0.0,0.0,0.0,0.0,0.0,0.0,-0.7095,-0.7108,-0.7515,-0.8454,-0.7721,-0.7303,-0.7322,-0.6728,-0.5363,-0.322,-0.4428,-0.5039,-0.5116,-0.5926,-0.6311,-0.6388,-0.8133,-0.8918,-0.8963,-0.9845,-1.0211,-1.0194,-1.0205,-1.0193,-1.0195,0.0,0.0,0.0,0.0,0.0,0.0,0.0,-0.9727,-0.916,-1.0039,-0.9707,-0.918,-1.0059,-1.0312,-1.0488,-1.1275,-1.151,0.0,0.0,0.0,0.0,-1.9307,-1.8946,-1.8215,-1.9965,0.0,-2.1349,0.0,0.0,0.0,0.0,0.0,0.0,0.0,0.0,0.0,0.0,0.0,0.0,0.0,0.0,0.0,0.0,0.0,0.0,0.0,-2.2898,-2.2721,-2.2695,-2.2453,-2.231,-2.231,-2.231,-2.231,-2.231,-2.231,-2.231,-2.231,-2.231,-2.231,-2.231,-2.231,-2.231,-2.231,-2.231,-2.2733,-2.346,-2.4188,-2.4506,-2.4692,-2.6133,-2.6218,-2.5693,0.0,0.0,0.0,0.0,0.0,0.0,0.0,0.0,-0.8549,-0.8863,-0.8705,0.0,0.0,0.0,0.0,0.0,0.0,0.0,-0.7768,-0.7283,-0.7461,-0.8381,-0.7069,-0.716,-0.8952,-0.8266,-0.6738,-0.439,-0.5606,-0.5797,-0.507,-0.6535,-0.7218,-0.7295,-0.8983,-0.9748,-0.9806,-1.0672,-1.0721,-1.0208,-1.0148,-1.0155,-1.0193,0.0,0.0,0.0,0.0,0.0,0.0,0.0,0.0,0.0,-1.0215,-1.0117,-1.0098,-1.0957,-1.0781,-1.0488,-1.1346,-1.1958,0.0,-1.3021,0.0,0.0,0.0,-1.814,0.0,0.0,0.0,0.0,0.0,0.0,0.0,0.0,0.0,0.0,0.0,0.0,0.0,0.0,0.0,0.0,0.0,0.0,0.0,0.0,0.0,0.0,0.0,-2.3477,-2.33,-2.3069,-2.2965,-2.2933,-2.2933,-2.2704,-2.2573,-2.2573,-2.2388,-2.231,-2.231,-2.231,-2.231,-2.231,-2.231,-2.231,-2.231,-2.231,-2.2733,-2.341,-2.363,-2.4036,-2.4557,-2.4997,-2.5,-2.4847,0.0,0.0,0.0,0.0,0.0,0.0,-0.8489,-0.8657,-0.8729,-0.8818,-0.8858,-0.8891,0.0,0.0,0.0,0.0,0.0,0.0,-0.8456,-0.8067,-0.8115,-0.8738,-0.7788,-0.7842,-0.9117,-0.8074,-0.6954,-0.5861,-0.659,-0.6441,-0.5493,-0.6556,-0.6867,-0.6625,-0.7979,-0.879,-0.9156,-1.004,-1.031,-1.0161,-1.0129,-1.0112,-1.0155,0.0,0.0,0.0,0.0,0.0,0.0,0.0,0.0,0.0,-1.0293,-1.0547,-1.0859,-1.1035,-1.0957,-1.1074,-1.2264,0.0,0.0,-1.4962,-1.6196,-1.7228,-1.7862,0.0,0.0,0.0,0.0,0.0,0.0,0.0,0.0,0.0,0.0,0.0,0.0,0.0,0.0,0.0,0.0,0.0,0.0,0.0,0.0,0.0,0.0,0.0,0.0,-2.3774,-2.361,-2.3414,-2.3259,-2.3189,-2.3189,-2.2996,-2.2898,-2.2898,-2.259,-2.2463,-2.2463,-2.2349,-2.231,-2.231,-2.231,-2.231,-2.231,-2.231,-2.2564,-2.2987,-2.3291,-2.3477,-2.3697,-2.4286,-2.432,-2.4086,0.0,0.0,-0.7941,-0.8063,0.0,0.0,-0.8348,-0.853,-0.8652,-0.8693,-0.8806,-0.888,0.0,0.0,0.0,-0.8891,-0.8891,-0.8923,-0.8981,-0.8991,-0.9034,-0.9178,-0.9277,-0.9037,-0.8422,-0.7045,-0.6723,-0.7524,-0.744,-0.7004,-0.6184,-0.6274,-0.589,-0.5153,-0.6104,-0.6963,-0.7777,-0.8732,-0.9498,-1.0094,-1.0094,-1.0094,-1.0094,-1.0094,0.0,0.0,0.0,0.0,0.0,0.0,0.0,0.0,-1.0272,-1.084,-1.1328,-1.0625,-1.0977,-1.1953,-1.3564,0.0,0.0,-1.7881,0.0,0.0,0.0,0.0,0.0,0.0,0.0,0.0,0.0,0.0,0.0,0.0,0.0,0.0,0.0,0.0,0.0,0.0,0.0,0.0,0.0,0.0,0.0,0.0,0.0,0.0,0.0,-2.3917,-2.3753,-2.3753,-2.3437,-2.33,-2.33,-2.3259,-2.3253,-2.3236,-2.2923,-2.2746,-2.2746,-2.2426,-2.231,-2.231,-2.231,-2.231,-2.231,-2.231,-2.231,-2.2378,-2.3038,-2.2885,-2.2462,-2.3799,-2.3866,-2.3393,0.0,0.0,-0.7914,-0.7941,0.0,0.0,-0.8144,-0.8198,-0.8345,-0.8669,-0.8729,-0.8783,-0.888,-0.8891,0.0,-0.8891,-0.8891,-0.8676,-0.8119,-0.8085,-0.8136,-0.8276,-0.9037,-0.9384,-0.9247,-0.9023,-0.9,-0.9191,-0.86,-0.7573,-0.6143,-0.6828,-0.675,-0.6081,-0.7602,-0.8401,-0.871,-1.0214,-1.0579,-1.0094,-1.0094,-1.0094,-1.0094,-1.0094,-1.0102,0.0,0.0,0.0,0.0,0.0,0.0,0.0,-1.0229,-1.0358,-1.06,-1.1109,-1.1405,-1.1836,-1.2871,-1.3628,0.0,0.0,0.0,0.0,0.0,0.0,0.0,0.0,0.0,0.0,0.0,0.0,0.0,0.0,0.0,0.0,0.0,0.0,0.0,0.0,0.0,0.0,0.0,0.0,0.0,0.0,0.0,0.0,-2.419,-2.4113,-2.4094,-2.4094,-2.4016,-2.3996,-2.3996,-2.3714,-2.3588,0.0,-2.3236,-2.3093,-2.3069,-2.2544,-2.231,-2.231,-2.231,-2.231,-2.231,-2.231,-2.231,-2.2327,-2.2479,-2.2446,-2.2344,-2.2665,-2.2682,-2.2564,0.0,0.0,0.0,0.0,0.0,0.0,0.0,0.0,-0.8463,-0.8681,-0.8748,-0.8829,-0.8891,-0.8891,0.0,0.0,-0.8891,-0.8739,-0.8349,-0.8332,-0.8377,-0.8526,-0.8727,-0.9036,-0.9482,-0.926,-0.9313,-0.9698,-0.9314,-0.8279,-0.669,-0.7163,-0.6792,-0.5731,-0.7027,-0.7854,-0.8367,-0.9656,-0.994,-0.9556,-0.994,-0.9863,-0.9575,-0.996,-1.0094,-1.0094,-1.0094,0.0,0.0,0.0,0.0,0.0,0.0,0.0,-1.0821,-1.088,-1.1203,-1.1737,0.0,0.0,0.0,0.0,0.0,0.0,0.0,0.0,0.0,0.0,0.0,0.0,0.0,0.0,0.0,0.0,0.0,0.0,0.0,0.0,0.0,0.0,0.0,0.0,0.0,0.0,0.0,0.0,0.0,-2.4339,-2.4339,-2.4266,-2.419,-2.419,-2.419,-2.419,-2.419,-2.4016,-2.3937,-2.3955,-2.3588,-2.3369,-2.3189,-2.2857,-2.2634,-2.25,-2.25,-2.2426,-2.231,-2.2453,-2.2426,-2.2293,-2.2436,-2.25,-2.249,-2.2349,-2.2388,-2.249,0.0,0.0,0.0,0.0,0.0,0.0,0.0,0.0,0.0,-0.8693,-0.8794,-0.8869,-0.8891,-0.8891,-0.8891,0.0,0.0,0.0,-0.8891,-0.8891,-0.8946,-0.9057,-0.8555,-0.8647,-0.9456,-0.8956,-0.9015,-0.9698,-0.9845,-0.9221,-0.7923,-0.7837,-0.704,-0.567,-0.6568,-0.729,-0.7889,-0.8748,-0.9114,-0.9171,-0.9825,-0.971,-0.9191,-0.9844,-1.0094,-1.0094,-1.0094,-1.0094,-1.0102,-1.0167,0.0,0.0,0.0,0.0,-1.1129,-1.0403,-1.0815,-1.167,0.0,0.0,-1.4883,0.0,0.0,0.0,0.0,0.0,0.0,0.0,0.0,0.0,0.0,0.0,0.0,0.0,0.0,0.0,0.0,0.0,0.0,0.0,0.0,0.0,0.0,0.0,0.0,0.0,0.0,-2.4543,-2.4543,-2.4357,-2.4266,-2.4266,-2.4209,-2.419,-2.419,-2.419,-2.419,-2.4208,-2.3917,-2.3649,-2.3369,-2.3369,-2.3165,-2.2797,-2.2797,-2.2652,-2.2453,-2.2686,-2.2669,-2.248,-2.2704,-2.2797,-2.2746,-2.2544,-2.2554,-2.2686,0.0,0.0,0.0,0.0,0.0,0.0,0.0,0.0,0.0,0.0,-0.8717,-0.8771,-0.888,-0.8891,-0.8891,-0.8891,-0.8891,-0.8891,-0.8891,0.0,0.0,-0.8925,-0.895,-0.9074,-0.9331,-0.9357,-0.9476,-0.9698,-1.0406,-1.0636,-1.0406,-0.9766,-0.8987,-0.8154,-0.9162,-0.9268,-0.8787,-0.9594,-0.994,-0.994,-1.0056,-1.0037,-0.996,-1.0056,-1.0094,-1.0094,-1.0094,-1.0094,-1.0094,-1.0106,-1.0106,0.0,0.0,0.0,-1.0355,-1.0236,-1.0829,-1.1533,0.0,0.0,0.0,0.0,0.0,0.0,0.0,0.0,0.0,0.0,0.0,0.0,0.0,0.0,0.0,0.0,0.0,0.0,0.0,0.0,0.0,0.0,0.0,0.0,0.0,0.0,0.0,0.0,-2.4775,-2.476,-2.476,-2.4559,-2.4461,-2.4461,-2.4284,-2.419,-2.419,-2.419,-2.419,-2.419,-2.4151,-2.4113,-2.4074,-2.4074,-2.3732,-2.3141,-2.3141,-2.3117,-2.3087,-2.3117,-2.3117,-2.3087,-2.3117,-2.3141,-2.3117,-2.3093,-2.2923,-2.2695,0.0,0.0,0.0,0.0,0.0,0.0,0.0,0.0,0.0,0.0,0.0,-0.8604,-0.8771,-0.8783,-0.8783,-0.8783,-0.8863,-0.8891,-0.8891,-0.8891,-0.8936,-0.9011,-0.9057,-0.9159,-0.9303,-0.943,-0.9525,-0.9593,-1.0464,-1.1352,-1.2251,-1.2445,-1.1106,-0.8618,-1.0537,-1.0148,-0.8176,-1.004,-1.0232,-0.9359,-0.989,-0.954,-0.8813,-0.9752,-1.0094,-1.0152,-1.0656,-1.0829,-1.0829,-1.0829,-1.0502,-1.0094,-1.0094,0.0,0.0,0.0,-1.0437,0.0,-1.1952,0.0,0.0,0.0,0.0,0.0,0.0,0.0,0.0,0.0,0.0,0.0,0.0,0.0,0.0,0.0,0.0,0.0,0.0,0.0,0.0,0.0,0.0,0.0,0.0,0.0,0.0,0.0,-2.4987,-2.4917,-2.4917,-2.4756,-2.4607,-2.4512,-2.4409,-2.4321,-2.419,-2.419,-2.419,-2.419,-2.419,-2.419,-2.419,-2.419,-2.3937,-2.3477,-2.3477,-2.3369,-2.3212,-2.3392,-2.3369,-2.3212,-2.3414,-2.3477,-2.3437,-2.3069,-2.2947,-2.2923,0.0,0.0,0.0,0.0,0.0,0.0,0.0,0.0,0.0,0.0,0.0,0.0,-0.9267,0.0,0.0,0.0,-0.9126,-0.9095,-0.8908,-0.8891,-0.8946,-0.9054,-0.9054,-0.9109,-0.9237,-0.9349,-0.9538,-0.9807,-1.0713,-1.1883,-1.3317,-1.464,-1.329,-0.9806,-1.1594,-1.1081,-0.899,-1.0665,-1.0473,-0.9151,-1.0293,-0.9752,-0.837,-0.9617,-1.0248,-1.0521,-1.1175,-1.1541,-1.1699,-1.1464,-1.0964,-1.0383,-1.0171,-1.0248,0.0,0.0,0.0,0.0,0.0,0.0,0.0,0.0,0.0,0.0,0.0,0.0,0.0,0.0,0.0,0.0,0.0,0.0,0.0,0.0,0.0,0.0,0.0,0.0,0.0,0.0,0.0,0.0,0.0,0.0,0.0,0.0,-2.4856,-2.4859,-2.5069,-2.493,-2.4785,-2.4636,-2.4591,-2.4478,-2.4266,-2.4228,-2.419,-2.419,-2.419,-2.419,-2.419,-2.419,-2.4074,-2.3816,-2.3816,-2.3692,-2.3459,-2.3714,-2.3671,-2.3477,-2.3714,-2.3816,-2.3774,-2.3277,-2.3189,-2.3253,0.0,0.0,0.0,0.0,0.0,0.0,0.0,0.0,0.0,0.0,0.0,0.0,-1.0896,-1.0978,-1.0693,-0.9988,-0.9933,-0.9641,-0.8942,-0.8891,-0.8902,-0.8902,-0.8913,0.0,-0.9099,-0.9109,-0.9618,-1.0638,-1.1445,-1.2352,-1.3353,-1.5692,-1.5454,-1.3043,-1.2593,-1.2591,-1.2825,-1.1757,-1.0803,-1.0186,-1.1891,-1.1526,-0.9979,-1.0075,-1.0617,-1.1329,-1.1387,-1.193,-1.2507,-1.168,-1.1368,-1.1194,-1.0363,-1.0675,0.0,0.0,0.0,0.0,0.0,0.0,0.0,0.0,0.0,0.0,0.0,0.0,0.0,0.0,0.0,0.0,0.0,0.0,0.0,0.0,0.0,0.0,0.0,0.0,0.0,0.0,0.0,0.0,0.0,0.0,0.0,0.0,-2.4139,-2.4476,-2.5235,-2.5099,-2.4967,-2.4967,-2.4836,-2.4685,-2.4495,-2.4303,-2.419,-2.419,-2.419,-2.419,-2.419,-2.419,-2.419,-2.417,-2.417,-2.417,-2.4151,-2.417,-2.417,-2.4151,-2.417,-2.417,-2.417,-2.4133,-2.3917,-2.361,0.0,0.0,0.0,0.0,0.0,0.0,0.0,0.0,0.0,0.0,0.0,0.0,0.0,-1.097,-1.087,-1.0589,-1.0219,-0.9883,-0.9624,-0.9162,-0.8891,-0.8891,-0.9354,-0.9632,-0.9679,-1.022,-1.0767,-1.1283,-1.2165,-1.3102,-1.4095,-1.549,-1.5949,-1.56,-1.5484,-1.4392,-1.2662,-1.3372,-1.2901,-1.1852,-1.3602,-1.2618,-1.0286,0.0,0.0,0.0,0.0,0.0,0.0,-1.3305,-1.2656,-1.218,-1.1872,-1.1988,0.0,0.0,0.0,0.0,0.0,0.0,0.0,0.0,0.0,0.0,0.0,0.0,0.0,0.0,0.0,0.0,0.0,0.0,0.0,0.0,0.0,0.0,0.0,0.0,0.0,0.0,0.0,0.0,0.0,0.0,0.0,0.0,0.0,-2.3043,-2.4447,-2.3928,-2.4011,-2.4972,-2.4949,-2.485,-2.47,-2.4623,-2.4594,-2.4575,-2.4444,-2.4393,-2.4393,-2.4266,-2.419,-2.419,-2.419,-2.419,-2.419,-2.419,-2.419,-2.419,-2.419,-2.419,-2.417,-2.3976,-2.3795,-2.3649,0.0,0.0,0.0,-0.8636,0.0,-0.8652,-0.8728,-0.9266,-0.9827,-1.0248,0.0,0.0,0.0,0.0,-1.1754,-1.1754,-1.0905,-1.0369,-1.0369,-0.9912,-0.9636,-0.9636,-1.0115,-1.0369,-1.0369,-1.0937,-1.1482,-1.1996,-1.2639,-1.3335,-1.4114,-1.5197,-1.5839,-1.6101,-1.6565,-1.5781,-1.4154,-1.4962,-1.4747,-1.3952,0.0,0.0,-1.1805,0.0,0.0,0.0,0.0,0.0,0.0,0.0,0.0,0.0,0.0,0.0,0.0,0.0,0.0,0.0,-1.2541,0.0,0.0,0.0,0.0,0.0,0.0,0.0,0.0,0.0,0.0,0.0,0.0,0.0,0.0,0.0,0.0,0.0,0.0,0.0,0.0,0.0,0.0,0.0,0.0,0.0,0.0,0.0,0.0,0.0,-2.4014,-2.3552,-2.3813,-2.5061,-2.4767,-2.4683,-2.4883,-2.4814,-2.4804,-2.4804,-2.467,-2.4591,-2.4591,-2.4461,-2.441,-2.441,-2.4339,-2.4247,-2.419,-2.419,-2.419,-2.419,-2.419,-2.419,-2.417,-2.3937,-2.3876,-2.3816,-0.995,-0.9935,-0.9962,-1.0077,-1.0096,-1.0165,-1.0366,-1.043,-1.08,-1.1778,0.0,0.0,0.0,0.0,0.0,-1.3396,-1.2041,-1.1164,-1.113,-1.1113,-1.1096,-1.1096,-1.1113,-1.113,-1.113,-1.1147,-1.1713,-1.2824,-1.2824,-1.3016,-1.3372,-1.4933,-1.5252,-1.4543,-1.5625,-1.6688,-1.7582,-1.6446,-1.6075,-1.6246,0.0,-1.5583,-1.457,0.0,0.0,0.0,-1.5632,-1.5781,0.0,-1.6215,0.0,0.0,0.0,0.0,0.0,0.0,0.0,0.0,0.0,0.0,0.0,0.0,0.0,0.0,-1.4112,0.0,0.0,0.0,0.0,0.0,0.0,0.0,0.0,0.0,0.0,0.0,0.0,0.0,0.0,0.0,0.0,0.0,0.0,0.0,0.0,0.0,-2.1446,-2.2197,-2.3937,-2.4052,-2.4409,-2.5187,-2.4277,-2.4152,-2.4934,-2.4826,-2.478,-2.478,-2.4799,-2.4804,-2.4804,-2.4804,-2.4804,-2.479,-2.4591,-2.441,-2.4209,-2.419,-2.419,-2.419,-2.419,-2.419,-2.419,-2.419,-2.419,-2.4151,-1.1266,-1.0772,-1.0312,-1.0194,-1.0166,-1.025,-1.0511,-1.1124,-1.1662,0.0,0.0,0.0,-1.3379,-1.3396,-1.3396,-1.3396,-1.3007,-1.2549,-1.1992,-1.1417,-1.1096,-1.1096,-1.1654,-1.1975,-1.1975,-1.2499,-1.3041,-1.3595,-1.3595,-1.38,-1.4187,-1.4628,-1.4719,-1.4543,-1.5625,-1.6266,-1.656,-1.7017,0.0,-1.5363,-1.7805,-1.6498,0.0,0.0,0.0,0.0,0.0,-1.7073,-1.598,0.0,-1.6682,-1.5708,0.0,0.0,0.0,0.0,0.0,0.0,-1.3574,0.0,0.0,0.0,0.0,0.0,-1.483,-1.5997,0.0,0.0,0.0,0.0,0.0,0.0,0.0,0.0,0.0,0.0,0.0,0.0,0.0,0.0,0.0,0.0,0.0,0.0,0.0,0.0,-2.0042,-2.0435,-2.212,-2.2812,-2.3254,-2.3485,-2.3218,-2.318,-2.342,-2.3994,-2.4279,-2.4298,-2.4751,-2.4937,-2.4937,-2.4842,-2.4804,-2.4804,-2.4746,-2.4685,-2.4607,-2.4321,-2.419,-2.419,-2.419,-2.419,-2.419,-2.419,-2.419,-2.419,-1.1805,-1.1386,-1.1012,-1.0879,-1.0965,-1.109,-1.1235,-1.1818,-1.2286,0.0,0.0,0.0,-1.2821,-1.3159,-1.3227,-1.2804,-1.3159,-1.3227,-1.2787,-1.2329,-1.2058,-1.2058,-1.2516,-1.2754,-1.2754,-1.3176,-1.3543,-1.3827,-1.3927,-1.4162,-1.4488,-1.4488,-1.4488,-1.4524,-1.5148,-1.5423,-1.5496,-1.6578,0.0,0.0,-1.7813,0.0,0.0,-1.8578,-1.8092,0.0,0.0,0.0,-1.7293,-1.825,-1.7728,0.0,0.0,0.0,0.0,0.0,0.0,0.0,0.0,0.0,0.0,0.0,0.0,0.0,-1.5177,-1.6223,-1.7115,0.0,0.0,0.0,0.0,0.0,0.0,0.0,0.0,0.0,0.0,0.0,0.0,0.0,0.0,0.0,0.0,-2.1124,-2.0886,-2.0339,-1.9838,-2.0125,-2.1427,-2.1985,-2.2427,-2.2793,-2.2447,-2.2601,-2.334,-2.386,-2.4264,-2.4601,-2.4962,-2.5141,-2.5111,-2.5037,-2.5019,-2.5,-2.4923,-2.4877,-2.485,-2.4575,-2.441,-2.4339,-2.4339,-2.4266,-2.419,-2.419,-2.419,-2.419,0.0,-1.1833,-1.1876,-1.1854,-1.2086,-1.2276,-1.2218,-1.2485,-1.2713,0.0,-1.2851,-1.2589,-1.1827,-1.2432,-1.2617,-1.1859,-1.2787,-1.3396,-1.3396,-1.3396,-1.3396,-1.3396,-1.3396,-1.3396,-1.3396,-1.3396,-1.3494,-1.3676,-1.3941,-1.4188,-1.4464,-1.4488,-1.4488,-1.4488,-1.4488,-1.4488,-1.4561,-1.5515,0.0,-1.8794,-1.7142,-1.7931,0.0,0.0,-1.9488,-1.935,-2.0511,-1.9899,-1.8644,-1.9367,-1.872,0.0,0.0,0.0,0.0,0.0,-1.5689,0.0,0.0,0.0,0.0,0.0,0.0,0.0,-1.5275,-1.644,-1.7563,0.0,0.0,0.0,0.0,0.0,0.0,0.0,0.0,0.0,0.0,0.0,0.0,0.0,0.0,0.0,-2.0508,-2.0441,-2.0374,-2.033,-2.0294,-2.0605,-2.1328,-2.1378,-2.1716,-2.2504,-2.1773,-2.2158,-2.3802,-2.3918,-2.4351,-2.5168,-2.5264,-2.5303,-2.5303,-2.5303,-2.5303,-2.5284,-2.5111,-2.5034,-2.5022,-2.491,-2.4731,-2.4545,-2.4545,-2.4409,-2.4247,-2.4247,-2.4228,-2.4228,-1.1805,-1.2154,-1.2396,-1.2235,-1.2569,-1.2726,-1.234,-1.2841,-1.2824,-1.163,-1.1849,-1.1746,-1.0808,-1.0145,-1.0178,-1.1164,-1.2583,-1.3396,-1.3396,-1.3396,-1.3396,-1.3396,-1.3396,-1.3396,-1.3396,-1.3396,-1.3462,-1.3615,-1.3739,-1.3941,-1.427,-1.4411,-1.4488,-1.4488,-1.4488,-1.4488,-1.4506,0.0,0.0,-1.6835,-1.8151,0.0,-1.8096,-2.1138,-2.071,-1.8771,-2.0986,-2.0237,-1.8227,-1.8375,-1.8373,-1.8063,0.0,0.0,0.0,-1.5407,0.0,0.0,0.0,0.0,0.0,0.0,0.0,0.0,-1.5212,-1.5468,-1.5901,0.0,0.0,0.0,0.0,0.0,0.0,0.0,0.0,0.0,0.0,0.0,0.0,0.0,0.0,0.0,-2.051,-2.0484,-2.0444,-2.0398,-2.0327,-2.0359,-2.054,-2.0523,-2.0619,-2.0773,-2.0619,-2.1004,-2.2004,-2.2697,-2.3475,-2.4341,-2.4986,-2.5303,-2.5303,-2.5303,-2.5303,-2.5303,-2.5264,-2.5234,-2.5253,-2.5203,-2.5012,-2.4746,-2.4746,-2.4716,-2.4654,-2.4495,-2.4426,-2.4428,-1.1805,-1.2024,-1.2336,-1.2762,-1.2724,-1.2574,-1.2344,-1.2802,-1.2924,-1.2156,-1.1731,-1.1417,-1.118,-0.9806,-0.9196,-0.9941,-1.2092,-1.3396,-1.3396,-1.387,-1.3921,-1.343,-1.3752,-1.3768,-1.3413,-1.3396,-1.3684,-1.4247,-1.4016,-1.425,-1.4876,-1.4611,-1.4488,-1.4524,-1.4921,-1.4885,-1.4543,0.0,-1.601,-1.6652,-1.8537,0.0,-1.9099,-2.1931,-2.2021,-2.0741,-2.1588,-2.0507,-1.8643,-1.8338,-1.857,0.0,0.0,-1.7478,-1.7063,0.0,-1.5852,-1.5462,0.0,0.0,0.0,-1.5127,0.0,0.0,0.0,-1.5541,-1.5977,0.0,0.0,0.0,0.0,0.0,0.0,0.0,0.0,0.0,0.0,0.0,0.0,0.0,0.0,0.0,-1.9292,-1.9643,-2.0046,-2.0428,-2.0398,-2.0351,-2.0294,-2.0326,-2.0328,-2.0308,-2.0301,-2.0706,-2.1536,-2.2376,-2.3244,-2.411,-2.4928,-2.5303,-2.5303,-2.5303,-2.5303,-2.5303,-2.5303,-2.5303,-2.5303,-2.5303,-2.5212,-2.5043,-2.493,-2.4869,-2.479,-2.4685,-2.4594,-2.4478,-1.1805,-1.1805,-1.2071,-1.2944,-1.2687,-1.2376,-1.2376,-1.2684,-1.2961,-1.3067,-1.1919,-1.1383,-1.2111,-1.047,-0.9315,-0.9315,-1.2346,-1.426,-1.426,-1.5003,-1.4969,-1.387,-1.4394,-1.4394,-1.3701,-1.3786,-1.4226,-1.5037,-1.4701,-1.4932,-1.5719,-1.5243,-1.4989,-1.4983,-1.5527,-1.5564,0.0,0.0,0.0,-1.7495,0.0,-2.0097,-2.0759,-2.2556,-2.3235,-2.3144,-2.2318,-2.1051,-1.9669,-1.9017,-1.9212,-1.967,-1.9564,-1.8952,0.0,0.0,0.0,0.0,0.0,0.0,0.0,0.0,0.0,-1.5152,0.0,0.0,0.0,0.0,0.0,0.0,0.0,0.0,0.0,0.0,0.0,0.0,0.0,0.0,0.0,0.0,0.0,0.0,0.0,-1.8047,-1.9022,-2.0183,-2.0213,-2.0227,-2.0337,-2.037,-2.039,-2.0316,-2.0311,-2.0737,-2.1609,-2.2434,-2.3265,-2.4133,-2.4962,-2.533,-2.5322,-2.5322,-2.5313,-2.5303,-2.5303,-2.5303,-2.5303,-2.5303,-2.5303,-2.5274,-2.5111,-2.4993,-2.4883,-2.4842,-2.4712,-2.4543,-1.1805,-1.1805,-1.1833,-1.1961,-1.2316,-1.2572,-1.2572,-1.261,-1.2815,-1.3278,-1.2028,-1.1637,-1.3074,0.0,0.0,0.0,0.0,0.0,-1.7304,0.0,-1.6847,-1.5409,-1.5426,-1.524,-1.4733,-1.5138,-1.5409,-1.5511,-1.5894,-1.6108,-1.6231,-1.6679,-1.6808,-1.6615,-1.623,0.0,0.0,0.0,-1.8155,0.0,-2.0848,-2.1235,0.0,-2.3235,-2.4061,-2.3951,-2.3162,-2.2281,-2.1399,0.0,-2.0315,-2.026,0.0,-1.8768,-1.8135,-1.8167,0.0,0.0,0.0,0.0,0.0,0.0,-1.4981,0.0,0.0,0.0,0.0,-1.5096,0.0,0.0,0.0,0.0,0.0,0.0,0.0,0.0,0.0,0.0,0.0,0.0,0.0,0.0,0.0,-1.5331,-1.6836,-1.9258,-1.9363,-1.966,-2.0438,-2.0429,-2.0406,-2.0379,-2.0398,-2.0806,-2.1677,-2.2552,-2.3383,-2.4194,-2.5054,-2.5453,-2.5391,-2.5383,-2.5365,-2.5303,-2.5303,-2.5303,-2.5303,-2.5303,-2.5303,-2.5303,-2.5274,-2.5253,-2.5233,-2.5053,-2.4891,-2.4746,-1.1805,-1.1805,-1.1805,-1.1805,-1.2003,-1.2931,-1.5263,-1.4451,-1.3549,-1.3413,-1.2837,-1.2685,0.0,0.0,0.0,0.0,0.0,-1.3024,0.0,0.0,-1.7523,-1.6898,-1.4682,-1.4039,-1.5274,-1.5494,-1.5798,-1.6241,-1.6123,-1.6372,-1.6941,-1.6842,-1.6827,0.0,-1.7147,0.0,-1.8151,0.0,-1.9567,0.0,0.0,0.0,0.0,-2.3602,-2.3914,-2.3327,-2.2006,-2.1657,-2.1601,0.0,-2.0758,0.0,0.0,0.0,0.0,0.0,0.0,0.0,0.0,0.0,0.0,0.0,0.0,0.0,-1.5692,0.0,-1.498,0.0,0.0,0.0,0.0,0.0,0.0,0.0,-1.3865,0.0,0.0,0.0,0.0,0.0,0.0,0.0,0.0,0.0,0.0,0.0,-1.7948,-1.843,-1.8241,-1.969,-2.0508,-2.047,-2.0425,-2.0597,-2.099,-2.1789,-2.2629,-2.3499,-2.4355,-2.5007,-2.5465,-2.5465,-2.5441,-2.5427,-2.5427,-2.5391,-2.5354,-2.5354,-2.5339,-2.5303,-2.5303,-2.5303,-2.5284,-2.5203,-2.5053,-2.4898,-1.2174,-1.2003,-1.1805,-1.1805,-1.2706,-1.4287,-1.6807,-1.6101,-1.5001,-1.4292,0.0,0.0,-1.4937,-1.864,0.0,0.0,-1.5832,-1.3058,0.0,0.0,-1.8217,0.0,0.0,0.0,0.0,-1.6339,-1.6458,-1.6982,-1.6604,-1.682,-1.7608,-1.717,-1.7154,-1.7501,0.0,-1.8555,-1.8886,0.0,-2.1383,-2.1255,-2.2116,-2.2685,-2.3107,-2.3896,-2.3841,-2.318,-2.1951,-2.1914,-2.2226,-2.0794,-2.151,0.0,-2.1566,0.0,0.0,0.0,0.0,0.0,-1.8189,0.0,0.0,0.0,0.0,0.0,0.0,0.0,0.0,0.0,0.0,0.0,0.0,0.0,0.0,0.0,0.0,0.0,0.0,0.0,0.0,0.0,0.0,0.0,0.0,0.0,0.0,0.0,0.0,-1.6835,-1.6649,-1.8924,-2.0331,-2.0518,-2.048,-2.0477,-2.0536,-2.1305,-2.2127,-2.304,-2.3855,-2.4705,-2.5535,-2.5535,-2.5526,-2.5493,-2.5493,-2.5463,-2.5441,-2.542,-2.536,-2.5331,-2.5303,-2.5303,-2.5303,-2.5303,-2.5163,-2.501,-1.3139,-1.2514,-1.1805,-1.1805,-1.501,-1.7175,-1.5866,-1.6809,0.0,0.0,0.0,0.0,0.0,0.0,0.0,0.0,0.0,-2.1904,-2.1617,0.0,-1.9256,0.0,0.0,-1.8099,0.0,-1.8234,-1.7743,-1.7755,-1.7743,-1.7898,-1.8173,-1.8139,-1.8438,-1.8946,-1.9159,-1.9693,-2.0576,-2.3033,-2.3639,-2.2997,-2.3804,-2.4135,-2.4153,0.0,-2.4171,-2.4153,-2.4098,0.0,0.0,-2.3162,-2.2923,0.0,0.0,0.0,0.0,0.0,0.0,0.0,0.0,0.0,0.0,-1.743,0.0,0.0,0.0,0.0,-1.4677,0.0,0.0,0.0,0.0,0.0,0.0,0.0,0.0,0.0,0.0,0.0,0.0,0.0,0.0,0.0,0.0,0.0,0.0,0.0,0.0,0.0,-1.6601,-1.8379,-1.9727,-2.0566,-2.0586,-2.0586,-2.0605,-2.1465,-2.2304,-2.3105,-2.3984,-2.482,-2.5601,-2.5601,-2.5561,-2.5493,-2.5493,-2.5508,-2.5484,-2.5428,-2.5406,-2.5383,-2.5331,-2.5303,-2.5303,-2.5303,-2.5163,-2.501,-1.608,-1.602,-1.5769,-1.5769,0.0,-1.5664,-1.5218,-1.5561,0.0,0.0,0.0,0.0,0.0,-1.5107,-1.5291,0.0,0.0,-2.231,-2.231,-2.1667,0.0,0.0,0.0,-2.023,0.0,0.0,0.0,0.0,-1.7811,-1.7856,-1.7949,-1.8149,-1.8432,0.0,0.0,-1.9436,0.0,0.0,0.0,0.0,0.0,-2.3419,-2.3474,0.0,0.0,-2.419,-2.419,-2.419,0.0,-2.3272,-2.3364,-2.3694,-2.318,-2.2813,-2.2758,-2.3566,-2.2648,0.0,0.0,0.0,-2.0701,-1.9626,0.0,0.0,0.0,0.0,0.0,0.0,0.0,0.0,0.0,0.0,0.0,0.0,0.0,0.0,0.0,0.0,0.0,0.0,0.0,0.0,0.0,0.0,0.0,0.0,0.0,0.0,0.0,-1.5957,-1.8301,-1.8027,-1.9645,-2.0562,-2.0605,-2.0855,-2.1422,-2.2324,-2.3184,-2.4023,-2.4821,-2.5407,-2.5659,-2.5634,-2.5634,-2.5573,-2.5508,-2.5488,-2.5408,-2.533,-2.5303,-2.5303,-2.5303,-2.5303,-2.5264,-2.5173,-1.7635,-1.7811,-1.7811,0.0,0.0,0.0,0.0,0.0,0.0,0.0,-1.6965,0.0,-1.6576,0.0,-1.5801,0.0,-2.0078,-2.231,-2.231,-2.231,0.0,-2.0846,-2.1431,0.0,0.0,0.0,0.0,0.0,0.0,-1.7811,0.0,0.0,0.0,0.0,0.0,-1.8963,-1.9381,0.0,-2.173,0.0,0.0,-2.318,0.0,0.0,-2.3951,-2.419,0.0,-2.419,-2.4116,-2.3602,-2.3768,-2.4116,-2.3602,-2.3437,-2.3529,-2.4043,-2.3456,-2.2648,-2.2648,-2.2648,0.0,-2.1253,-2.0574,0.0,-1.9538,0.0,0.0,0.0,0.0,0.0,0.0,0.0,0.0,0.0,0.0,0.0,0.0,-1.2907,0.0,0.0,0.0,0.0,0.0,0.0,0.0,0.0,0.0,0.0,0.0,0.0,-1.7422,-1.7168,-1.9352,-2.0562,-2.0605,-2.0562,-2.0993,-2.1914,-2.2773,-2.3613,-2.4434,-2.5293,-2.5703,-2.5703,-2.5703,-2.5658,-2.5564,-2.5551,-2.5477,-2.5371,-2.5337,-2.5331,-2.5303,-2.5303,-2.5303,-2.5274,-1.7811,-1.7811,-1.7811,0.0,-1.6712,0.0,0.0,0.0,-1.7507,0.0,-1.8718,-1.9046,-2.1989,-2.0585,-2.0213,-2.2141,-2.231,-2.2175,-2.1887,-2.2141,0.0,0.0,-2.1228,-2.1312,-2.2293,0.0,0.0,0.0,0.0,0.0,0.0,0.0,0.0,0.0,-1.804,0.0,-1.9353,-2.0999,-2.175,-2.186,-2.263,-2.34,-2.4061,-2.329,-2.3511,-2.419,-2.419,-2.419,-2.419,-2.419,-2.419,-2.419,-2.419,-2.419,-2.419,-2.419,-2.419,-2.419,-2.419,-2.419,-2.3823,-2.2317,0.0,0.0,0.0,0.0,-1.9308,0.0,0.0,0.0,0.0,0.0,0.0,0.0,0.0,0.0,0.0,0.0,0.0,0.0,0.0,0.0,0.0,0.0,0.0,0.0,0.0,0.0,0.0,0.0,-1.6953,-1.791,-1.9492,-2.043,-2.0605,-2.0508,-2.0937,-2.1855,-2.2754,-2.3594,-2.4375,-2.5273,-2.5703,-2.5703,-2.5703,-2.5703,-2.5683,-2.5633,-2.5561,-2.5484,-2.5434,-2.5352,-2.5293,-2.5313,-2.5303,-2.5303,-1.7811,-1.7811,-1.7811,0.0,-1.838,-1.8616,0.0,0.0,0.0,0.0,-1.8988,-2.0154,-2.2107,-2.1837,-2.1735,-2.226,-2.231,0.0,0.0,0.0,0.0,-1.5866,-1.9688,-2.204,-2.231,-2.1803,0.0,-1.7811,0.0,0.0,-1.7811,0.0,0.0,0.0,0.0,0.0,-1.8284,-1.9964,-2.1164,-2.1868,-2.1841,-2.241,0.0,0.0,-2.3511,-2.419,-2.419,-2.419,-2.419,-2.419,-2.419,-2.419,-2.419,-2.419,-2.419,-2.419,-2.419,-2.419,-2.419,-2.419,-2.4098,-2.3694,-2.3125,-2.2593,0.0,0.0,0.0,0.0,0.0,0.0,0.0,0.0,0.0,0.0,0.0,0.0,0.0,0.0,0.0,-1.3227,0.0,0.0,0.0,0.0,0.0,0.0,0.0,0.0,0.0,0.0,0.0,-1.6973,-1.6836,-1.7988,-2.0566,-1.9316,-1.9434,-2.0957,-2.2422,-2.3262,-2.3555,-2.5039,-2.5703,-2.5703,-2.5703,-2.5662,-2.5611,-2.5605,-2.5561,-2.5508,-2.5473,-2.5434,-2.5371,-2.5322,-2.5303,-2.5303,-1.7811,-1.7811,0.0,-1.6103,0.0,0.0,-1.8582,-1.8589,0.0,-1.9655,-1.99,0.0,-2.2141,-2.231,-2.231,-2.231,-2.231,0.0,-1.3786,0.0,0.0,-1.7439,-2.0517,-2.231,-2.231,-2.231,0.0,-1.9773,0.0,0.0,-1.7811,0.0,0.0,0.0,0.0,-1.8125,-1.8274,-2.0167,-2.1437,-2.2206,-2.2133,0.0,0.0,-2.3144,-2.3511,-2.419,-2.419,-2.419,-2.419,-2.419,-2.419,-2.419,-2.419,-2.419,-2.419,-2.419,-2.419,-2.419,-2.419,-2.419,-2.419,-2.419,-2.3859,-2.3529,-2.3529,-2.2446,-2.1565,0.0,0.0,0.0,0.0,0.0,0.0,0.0,0.0,0.0,0.0,0.0,0.0,0.0,-1.2421,0.0,0.0,0.0,0.0,0.0,0.0,0.0,0.0,0.0,0.0,-1.5019,-1.5972,-1.7261,-1.8887,-1.7539,-1.8125,-2.0605,-2.1562,-2.2617,-2.3769,-2.5098,-2.5703,-2.5684,-2.5293,-2.5116,-2.5051,-2.4659,-2.4683,-2.5017,-2.5366,-2.5488,-2.5434,-2.5379,-2.534,-2.5303,-1.7304,-1.7219,0.0,0.0,0.0,0.0,0.0,-1.9959,0.0,-2.2073,0.0,-2.066,-2.1617,-2.2073,-2.231,-2.231,0.0,-1.9773,-1.3786,-1.8995,-2.231,-2.231,-2.231,-2.231,-2.231,-2.1532,-2.1532,0.0,0.0,0.0,0.0,0.0,0.0,0.0,0.0,0.0,0.0,-2.0698,-2.1859,-2.2479,-2.2715,-2.3249,-2.3855,-2.325,-2.3451,-2.4074,-2.4074,-2.4132,-2.419,-2.419,-2.419,-2.419,-2.419,-2.417,-2.4151,-2.419,-2.417,-2.4151,-2.419,-2.419,-2.419,-2.419,-2.419,-2.419,-2.419,-2.419,-2.419,-2.419,-2.3566,-2.2538,0.0,0.0,0.0,0.0,0.0,0.0,0.0,0.0,0.0,0.0,0.0,0.0,0.0,0.0,0.0,0.0,0.0,0.0,0.0,0.0,0.0,-1.3261,-1.5814,-1.7103,-1.6854,0.0,-1.7415,-2.074,-2.0741,-2.2011,-2.4413,-2.5058,-2.543,-2.5488,-2.4629,-2.4238,-2.4199,-2.3535,-2.3747,-2.4549,-2.5231,-2.5503,-2.5498,-2.5441,-2.536,-2.5313,-1.4648,0.0,0.0,0.0,0.0,-1.5308,-2.1042,-2.1837,-2.1904,-2.226,-2.2046,-2.1059,-1.8819,-2.0822,-2.231,-2.231,-2.231,0.0,0.0,0.0,0.0,-2.231,-2.231,-2.231,-2.231,-1.7473,-1.7371,0.0,0.0,0.0,0.0,0.0,0.0,0.0,0.0,0.0,-1.9604,-1.9687,0.0,-2.1707,-2.1785,-2.2059,-2.2434,-2.2977,-2.3244,-2.3369,-2.3369,-2.3714,-2.419,-2.419,-2.419,-2.419,-2.419,-2.4016,-2.3837,-2.4113,-2.3996,-2.3855,-2.4113,-2.419,-2.419,-2.419,-2.419,-2.419,-2.419,-2.419,-2.419,-2.419,-2.3566,-2.2905,-2.2612,0.0,0.0,0.0,0.0,0.0,0.0,0.0,0.0,0.0,0.0,-1.3604,0.0,0.0,0.0,0.0,0.0,0.0,0.0,0.0,0.0,0.0,-1.4078,0.0,0.0,0.0,-1.876,-2.1519,-2.1507,-2.2483,-2.43,-2.3796,-2.3941,-2.457,-2.3769,-2.3418,-2.3457,-2.3965,-2.4687,-2.5467,-2.5547,-2.5573,-2.5567,-2.5517,-2.5441,-2.5379,0.0,0.0,0.0,0.0,0.0,0.0,0.0,-2.0314,0.0,-2.231,-2.231,-2.1752,-2.0297,-2.1448,-2.231,-2.231,-2.231,-2.1092,-1.82,-2.072,-2.231,-2.231,-2.231,0.0,-2.231,-1.9486,-1.9418,-2.231,0.0,0.0,0.0,0.0,0.0,0.0,0.0,-1.8444,0.0,0.0,0.0,-2.1596,-2.2199,-2.25,-2.2652,-2.3047,-2.3189,-2.3189,-2.3189,-2.3414,-2.3714,-2.3896,-2.4054,-2.417,-2.3996,-2.3816,-2.3692,-2.3692,-2.3566,-2.3522,-2.3837,-2.3937,-2.3996,-2.4151,-2.419,-2.419,-2.419,-2.419,-2.419,-2.419,-2.3896,-2.3492,-2.3088,-2.1675,0.0,0.0,0.0,0.0,0.0,0.0,0.0,0.0,0.0,0.0,0.0,0.0,0.0,0.0,0.0,0.0,0.0,0.0,0.0,0.0,0.0,0.0,0.0,0.0,0.0,-2.1029,-2.1029,-2.1944,-2.3628,-2.3686,-2.3725,-2.3687,-2.2847,-2.2498,-2.2598,-2.3398,-2.4238,-2.5078,-2.5485,-2.5659,-2.5637,-2.559,-2.5535,-2.5498,0.0,-1.3396,0.0,0.0,-1.7693,0.0,-1.5815,-1.9283,-2.231,-2.231,-2.231,-2.231,-2.231,-2.231,-2.231,-2.231,-2.231,-2.231,-2.231,-2.231,-2.231,-2.231,-2.231,-2.231,-2.231,-2.231,-2.231,0.0,0.0,0.0,0.0,0.0,0.0,0.0,0.0,0.0,0.0,0.0,-2.1599,-2.1823,-2.2688,-2.3014,-2.3014,-2.3014,-2.3014,-2.3014,-2.3014,-2.3038,-2.3141,-2.3392,-2.3714,-2.3937,-2.3671,-2.3544,-2.3437,-2.3277,-2.3141,-2.3165,-2.3482,-2.3649,-2.3756,-2.4016,-2.4151,-2.417,-2.4113,-2.4094,-2.4074,-2.3996,-2.4036,-2.393,-2.3364,-2.2593,0.0,0.0,0.0,0.0,0.0,0.0,0.0,0.0,0.0,0.0,-1.4897,0.0,0.0,0.0,0.0,-1.3099,-1.2555,-1.3247,-1.3422,0.0,0.0,-1.5548,-1.6827,0.0,-1.7752,-2.1182,-2.0997,-2.1808,-2.3519,-2.365,-2.3486,-2.3018,-2.1964,-2.1745,-2.2206,-2.2831,-2.3711,-2.4746,-2.543,-2.5703,-2.5683,-2.5636,-2.5607,-2.5573,0.0,0.0,0.0,0.0,0.0,0.0,-2.0737,-2.1955,-2.231,-2.231,-2.231,-2.231,-2.231,-2.231,-2.231,-2.231,-2.231,-2.231,-2.231,-2.231,-2.231,-2.231,-2.231,-2.231,-2.231,-2.231,-2.231,0.0,0.0,0.0,0.0,0.0,0.0,0.0,0.0,0.0,0.0,-2.2152,-2.2231,-2.2248,-2.2343,-2.236,-2.236,-2.236,-2.236,-2.236,-2.236,-2.2554,-2.2746,-2.2797,-2.3021,-2.33,-2.3277,-2.3045,-2.2848,-2.3117,-2.2996,-2.2822,-2.3165,-2.3459,-2.3714,-2.3735,-2.3976,-2.4113,-2.3816,-2.3753,-2.3671,-2.3369,-2.3544,-2.3819,-2.4059,-2.3437,-2.2373,0.0,0.0,0.0,0.0,0.0,0.0,0.0,0.0,0.0,0.0,-1.4708,0.0,0.0,-1.356,-1.3392,-1.4805,-1.356,-1.3104,-1.3777,0.0,-1.5176,-1.7562,-1.8287,-2.0354,-2.3732,-2.2962,-2.3501,-2.5098,-2.2863,-2.2283,-2.2909,-2.1255,-2.148,-2.2994,-2.3072,-2.4077,-2.5586,-2.5664,-2.5703,-2.5703,-2.5683,-2.5659,-2.5601,0.0,0.0,0.0,0.0,0.0,0.0,0.0,-2.001,-2.231,-2.231,-2.231,-2.231,-2.231,-2.231,-2.231,-2.231,-1.9029,-1.8488,-2.2073,-1.8944,-1.8555,-2.2158,-2.231,-2.231,-2.231,-2.231,-2.231,0.0,0.0,0.0,0.0,0.0,0.0,0.0,0.0,-2.231,-2.231,-2.231,-2.231,-2.231,-2.231,-2.231,-2.231,-2.231,-2.231,-2.231,-2.231,-2.236,-2.2463,-2.2463,-2.2781,-2.3165,-2.2972,-2.2822,-2.2695,-2.2686,-2.2554,-2.2527,-2.2822,-2.2996,-2.3141,-2.3346,-2.35,-2.3566,-2.3414,-2.3392,-2.3369,-2.3212,-2.3477,-2.3735,-2.3876,-2.3642,-2.31,0.0,0.0,0.0,0.0,0.0,0.0,0.0,0.0,0.0,0.0,0.0,0.0,0.0,0.0,-1.4418,-1.5151,-1.5061,-1.5599,-1.692,0.0,-1.7657,-2.0735,-2.01,-2.0966,-2.3321,-2.3494,-2.3675,-2.3794,-2.2782,-2.1984,-2.1371,-2.1249,-2.1882,-2.3033,-2.3033,-2.4037,-2.5573,-2.5611,-2.5636,-2.5637,-2.5683,-2.5683,-2.566,-2.3596,0.0,-2.4746,0.0,-2.231,-2.0889,-1.6661,-1.9587,-2.231,-2.231,-2.231,-2.231,-2.231,-2.231,-2.231,-2.231,-1.8454,-1.7794,-2.204,-1.8352,-1.7896,-2.2124,-2.231,0.0,-2.231,-2.231,-2.231,-2.231,-2.231,0.0,0.0,0.0,0.0,0.0,-2.231,-2.231,-2.231,-2.231,-2.231,-2.231,-2.231,-2.231,-2.231,-2.231,-2.231,-2.231,-2.231,-2.231,-2.231,-2.231,-2.2571,-2.2908,-2.2652,-2.2573,-2.2537,-2.2349,-2.231,-2.2349,-2.2537,-2.2634,-2.2772,-2.2996,-2.3117,-2.3165,-2.3069,-2.3045,-2.3045,-2.3045,-2.3236,-2.3477,-2.3671,-2.361,-2.3397,-2.2919,0.0,0.0,0.0,0.0,0.0,0.0,-1.7032,-1.65,-1.7638,-1.6288,0.0,0.0,0.0,0.0,-1.5795,-1.5713,0.0,0.0,0.0,0.0,0.0,-2.0639,-2.1139,-2.3543,-2.4159,-2.412,-2.3524,-2.3024,-2.2007,-2.0682,-2.1357,-2.2153,-2.2994,-2.3247,-2.4209,-2.5493,-2.5554,-2.5573,-2.5603,-2.5659,-2.5683,-2.5703,-2.664,-2.4323,-2.2344,-2.231,-2.231,-2.2293,-2.2209,-2.226,-2.231,-2.231,-2.231,-2.231,-2.231,-2.231,-2.231,-2.231,-2.2243,-2.2226,-2.231,-2.2243,-2.2226,0.0,0.0,-2.231,-2.231,-2.231,-2.231,-2.231,0.0,0.0,-1.7929,0.0,-2.2276,-2.231,-2.231,-2.231,-2.231,-2.231,-2.231,-2.231,-2.231,-2.231,-2.231,-2.231,-2.231,-2.231,-2.231,-2.231,-2.231,-2.231,-2.231,-2.231,-2.231,-2.231,-2.231,-2.231,-2.231,-2.231,-2.231,-2.25,-2.2695,-2.2721,-2.2972,-2.3117,-2.2772,-2.2721,-2.2721,-2.2721,-2.2721,-2.2923,-2.3566,-2.3414,-2.3033,-2.2584,0.0,0.0,0.0,0.0,0.0,0.0,-1.7876,-1.689,-1.6908,-1.689,0.0,0.0,0.0,0.0,0.0,0.0,0.0,-1.6284,-1.4721,0.0,-2.0285,-1.9453,-2.1119,-2.5264,-2.5284,-2.5284,-2.5207,-2.3562,-2.2312,-2.1485,-2.1504,-2.2038,-2.2959,-2.3831,-2.469,-2.5493,-2.5493,-2.5547,-2.5601,-2.5601,-2.5637,-2.5703,-2.3714,-2.2953,-2.231,-2.231,-2.231,-2.231,-2.231,-1.8843,-1.7693,-2.1786,-2.231,-2.231,-2.231,-2.231,-2.231,0.0,-2.231,-2.231,0.0,-2.231,-2.231,-2.231,-2.0331,-1.9249,-1.9249,-2.1262,-2.231,-2.231,0.0,0.0,0.0,-2.1854,-2.231,-2.231,-2.231,-2.231,-2.231,-2.231,-2.231,-2.231,-2.231,-2.231,-2.231,-2.231,-2.231,-2.231,-2.231,-2.231,-2.231,-2.231,-2.231,-2.231,-2.231,-2.231,-2.231,-2.231,-2.231,-2.231,-2.231,-2.236,-2.2426,-2.2426,-2.2508,-2.2544,-2.2453,-2.2426,-2.2426,-2.2426,-2.2573,-2.2772,-2.2972,-2.2923,-2.2702,-2.2225,-2.1736,0.0,0.0,0.0,0.0,-1.8482,-1.7069,-1.6298,-1.6853,-1.6395,0.0,0.0,0.0,0.0,0.0,0.0,0.0,0.0,-2.0115,0.0,-2.3482,-2.2095,-2.27,-2.5303,-2.5303,-2.5005,-2.4485,-2.4505,-2.3408,-2.1562,-2.2754,-2.3108,-2.289,-2.3758,-2.4623,-2.5371,-2.5401,-2.5441,-2.5471,-2.5503,-2.5567,-2.5634,-2.187,-2.05,-1.9672,-2.1921,-2.231,-2.231,-2.231,-1.9147,-1.8082,-2.182,-2.231,-2.231,-2.231,-2.231,0.0,-2.231,-2.231,-2.1363,-1.9096,-2.1059,-2.231,-2.231,-2.0517,-1.9502,-1.9502,-2.0974,0.0,-2.231,-2.231,-2.231,-2.231,-2.231,-2.231,-2.231,-2.231,-2.231,-2.231,-2.231,-2.231,-2.231,-2.231,-2.231,-2.231,-2.231,-2.231,-2.231,-2.231,-2.231,-2.231,-2.231,-2.231,-2.231,-2.231,-2.231,-2.231,-2.231,-2.231,-2.231,-2.231,-2.231,-2.231,-2.231,-2.231,-2.231,-2.231,-2.231,-2.231,-2.231,-2.2409,-2.2573,-2.2669,-2.2625,-2.247,-2.2293,-2.2001,-2.1826,-2.1817,0.0,0.0,0.0,0.0,0.0,0.0,-1.7527,-1.7215,0.0,0.0,0.0,0.0,0.0,0.0,-2.192,-2.1475,0.0,-2.3929,-2.2899,-2.3301,-2.5115,-2.5152,-2.4955,-2.4543,-2.4428,-2.3485,-2.2023,-2.2793,-2.3004,-2.287,-2.3744,-2.4562,-2.5293,-2.5348,-2.5387,-2.5413,-2.5453,-2.5498,-2.5561,-2.1184,-1.7828,-1.5764,0.0,-2.231,0.0,-2.231,-2.231,-2.231,-2.231,-2.231,-2.231,-2.231,-2.231,-2.231,-2.231,0.0,0.0,0.0,-1.9215,-2.231,-2.231,-2.231,-2.231,-2.231,-2.1278,-2.1262,-2.231,-2.231,-2.231,-2.231,-2.231,-2.231,-2.231,-2.231,-2.231,-2.231,-2.231,-2.231,-2.231,-2.231,-2.231,-2.231,-2.231,-2.231,-2.231,-2.231,-2.231,-2.231,-2.231,-2.231,-2.231,-2.231,-2.231,-2.231,-2.231,-2.231,-2.231,-2.231,-2.231,-2.231,-2.231,-2.231,-2.231,-2.231,-2.231,-2.231,-2.231,-2.231,-2.2388,-2.2634,-2.2463,-2.2388,-2.2634,-2.2021,-2.1779,-2.2522,0.0,0.0,0.0,0.0,0.0,0.0,-1.9767,-1.872,0.0,0.0,0.0,0.0,0.0,-1.7969,-1.9777,-1.9833,-2.0653,-2.2351,-2.2351,-2.3168,-2.4804,-2.493,-2.5069,-2.5139,-2.3592,-2.2803,-2.2658,-2.1927,-2.2043,-2.287,-2.3744,-2.4562,-2.5303,-2.5303,-2.5339,-2.5379,-2.5379,-2.5441,-2.5484,0.0,0.0,-2.0653,-2.2057,-2.231,-2.231,-2.231,-2.231,-2.231,-2.231,-2.231,-2.231,-2.231,-2.231,-2.231,-2.231,-2.231,-2.1701,-2.0297,-2.1532,-2.231,-2.231,-2.231,-2.231,-2.231,-2.0897,-2.0863,-2.231,-2.231,-2.231,-2.231,-2.231,-2.231,-2.231,-2.231,-2.231,-2.231,-2.231,-2.231,-2.231,-2.231,-2.231,-2.231,-2.231,-2.231,-2.231,-2.231,-2.231,-2.231,-2.231,-2.231,-2.231,-2.231,-2.231,-2.231,-2.231,-2.231,-2.231,-2.231,-2.231,-2.231,-2.231,-2.231,-2.231,-2.231,-2.231,-2.231,-2.231,-2.231,-2.2338,-2.2388,-2.2349,-2.2321,-2.2388,-2.1928,-2.1638,-2.1836,-2.0834,0.0,0.0,-2.0008,-1.9758,-1.8761,-1.962,-1.9565,0.0,0.0,0.0,0.0,-1.9842,-2.0684,-2.3014,-2.3088,-2.3377,-2.3948,-2.3964,-2.4245,-2.4804,-2.4828,-2.4594,-2.4129,-2.3728,-2.293,-2.1831,-2.2293,-2.2601,-2.287,-2.3744,-2.4562,-2.5303,-2.5303,-2.5303,-2.5312,-2.5312,-2.5371,-2.5421,-2.2375,-2.231,-2.231,-2.231,-2.231,-2.231,-2.231,-2.231,-2.231,-2.231,-2.231,-2.231,-2.231,-2.231,-2.231,-2.231,-2.231,-2.231,-2.231,-2.231,-2.231,-2.231,-2.231,-2.231,-2.231,-2.1471,-2.1454,-2.231,-2.231,-2.231,-2.231,-2.231,-2.231,-2.231,-2.231,-2.231,-2.231,-2.231,-2.231,-2.231,-2.231,-2.231,-2.231,-2.231,-2.231,-2.231,-2.231,-2.231,-2.231,-2.231,-2.231,-2.231,-2.231,-2.231,-2.231,-2.231,-2.231,-2.231,-2.231,-2.231,-2.231,-2.231,-2.231,-2.231,-2.231,-2.231,-2.231,-2.231,-2.231,-2.231,-2.231,-2.231,-2.2192,-2.1854,-2.1574,-2.1276,-2.0916,-2.0425,0.0,-2.0177,-2.0492,-2.0536,-2.0153,-2.0709,-2.0739,-1.9858,-1.9418,0.0,-2.1548,-2.129,-2.2042,-2.4135,-2.419,-2.4081,-2.382,-2.3802,-2.4107,-2.4654,-2.4654,-2.4308,-2.3663,-2.3362,-2.2762,-2.201,-2.216,-2.2658,-2.3437,-2.3898,-2.4562,-2.5303,-2.5303,-2.5303,-2.5303,-2.5303,-2.5312,-2.5354,-2.2801,-2.231,-2.231,-2.231,-2.231,-2.231,-2.231,-2.231,-2.231,-2.231,-2.231,-2.231,-2.231,-2.231,-2.231,-2.231,-2.2049,-2.202,-2.2282,-2.231,-2.231,-2.231,-2.231,-2.231,-2.231,-2.231,-2.231,-2.231,-2.231,-2.231,-2.231,-2.231,-2.231,-2.231,-2.231,-2.231,-2.231,-2.231,-2.231,-2.231,-2.231,-2.231,-2.231,-2.231,-2.231,-2.231,-2.231,-2.231,-2.231,-2.231,-2.231,-2.231,-2.231,-2.231,-2.231,-2.231,-2.231,-2.231,-2.231,-2.231,-2.231,-2.231,-2.231,-2.231,-2.231,-2.231,-2.231,-2.231,-2.231,-2.231,-2.231,-2.231,-2.2073,-2.1312,-2.1119,-2.0771,-2.0086,0.0,-2.044,-2.1475,-2.1381,-2.1583,-2.2425,-2.2153,-2.1879,-2.1821,-2.1106,-2.1365,-2.2923,-2.2354,-2.2648,-2.4153,-2.419,-2.3878,-2.3199,-2.318,-2.3547,-2.4258,-2.4258,-2.3867,-2.3078,-2.2628,-2.2395,-2.2318,-2.1866,-2.2574,-2.4063,-2.4082,-2.4562,-2.5303,-2.5303,-2.5303,-2.5303,-2.5303,-2.5303,-2.5303,-2.2395,-2.231,-2.231,-2.231,-2.231,-2.231,-2.231,-2.231,-2.231,-2.231,-2.231,-2.231,-2.231,-2.231,-2.231,-2.231,-2.0959,-2.0731,-2.2209,-2.231,-2.231,-2.231,-2.231,-2.231,-2.231,-2.231,-2.231,-2.231,-2.231,-2.231,-2.231,-2.231,-2.231,-2.231,-2.231,-2.231,-2.231,-2.231,-2.231,-2.231,-2.231,-2.231,-2.231,-2.231,-2.231,-2.231,-2.231,-2.231,-2.231,-2.231,-2.231,-2.231,-2.231,-2.231,-2.231,-2.231,-2.231,-2.231,-2.231,-2.231,-2.231,-2.231,-2.231,-2.231,-2.231,-2.231,-2.231,-2.231,-2.231,-2.231,-2.231,-2.231,-2.2073,-2.1312,-2.0636,-2.0137,-2.0018,0.0,-2.0731,-2.1524,-2.2353,-2.2754,-2.2512,-2.2431,-2.2224,-2.184,-2.1657,-2.2006,-2.296,-2.2887,-2.3235,-2.4171,-2.419,-2.4135,-2.4006,-2.4006,-2.375,-2.3235,-2.3235,-2.2528,-2.1241,-2.182,-2.177,-2.128,-2.2037,-2.2923,-2.3861,-2.4024,-2.4562,-2.5303,-2.5303,-2.5303,-2.5303,-2.5303,-2.5303,-2.5303,-2.0894,-2.1661,-2.202,-2.1055,-2.0894,-2.1229,-2.2152,-2.231,-2.231,-2.231,-2.231,-2.1945,-2.0991,-2.1751,-2.1915,-2.0959,-2.0139,-2.005,-2.0829,-2.0894,-2.0894,-2.0894,-2.1781,-2.231,-2.231,-2.231,-2.231,-2.231,-2.231,-2.231,-2.231,-2.231,-2.231,-2.2282,-2.2032,-2.1899,-2.184,-2.2163,-2.1961,-2.1432,-2.2049,-2.2135,-2.1957,-2.2209,-2.231,-2.231,-2.231,-2.231,-2.231,-2.231,-2.231,-2.231,-2.231,-2.231,-2.231,-2.231,-2.231,-2.231,-2.231,-2.231,-2.231,-2.231,-2.231,-2.231,-2.231,-2.231,-2.231,-2.231,-2.231,-2.231,-2.231,-2.231,-2.2073,-2.1312,-2.0873,0.0,0.0,-2.0492,-2.1011,-2.1353,-2.2312,-2.2856,-2.2623,-2.294,-2.3048,-2.2844,-2.2996,-2.3254,-2.3639,-2.3254,-2.3382,-2.4171,-2.3786,-2.3547,-2.3547,-2.3125,-2.2721,-2.2354,-2.2354,-2.2002,-2.1345,-2.181,-2.2088,-2.2262,-2.2816,-2.3537,-2.4359,-2.4435,-2.4748,-2.5141,-2.5141,-2.5203,-2.5303,-2.5303,-2.5303,-2.5303,-1.969,-2.0764,-2.126,-1.9909,-1.969,-2.0154,-2.1493,-2.1691,-2.1691,-2.1691,-2.2049,-2.1631,-1.9889,-2.0894,-2.1166,-1.9818,-1.969,-1.969,-1.969,-1.969,-1.969,-1.969,-2.1354,-2.231,-2.231,-2.231,-2.2106,-2.1691,-2.1691,-2.1915,-2.231,-2.231,-2.231,-2.2282,-2.1794,-2.1521,-2.146,-2.184,-2.1493,-2.078,-2.1751,-2.1928,-2.1658,-2.2106,-2.231,-2.231,-2.231,-2.231,-2.231,-2.231,-2.231,-2.2282,-2.2163,-2.2135,-2.2106,-2.202,-2.2077,-2.2163,-2.2282,-2.231,-2.231,-2.231,-2.231,-2.231,-2.231,-2.231,-2.231,-2.231,-2.231,-2.231,-2.231,-2.231,-2.2073,-2.1312,0.0,0.0,0.0,-2.0805,-2.1271,-2.1431,-2.2131,-2.2634,-2.2695,-2.3165,-2.3522,-2.3692,-2.3937,-2.4113,-2.4208,-2.3621,-2.3492,-2.3914,-2.3327,-2.2923,-2.2721,-2.2281,-2.1877,-2.1492,-2.1711,-2.1692,-2.1509,-2.1808,-2.2425,-2.3254,-2.3592,-2.4114,-2.4731,-2.4775,-2.4869,-2.4949,-2.4998,-2.5099,-2.5243,-2.5274,-2.5303,-2.5303,-1.969,-1.9782,-1.9854,-1.9711,-1.969,-1.9747,-1.9889,-1.9874,-1.9874,-1.9874,-2.1291,-2.1631,-1.9889,-1.9818,-1.9854,-1.9711,-1.969,-1.969,-1.969,-1.969,-1.969,-1.969,-2.1354,-2.231,-2.231,-2.231,-2.1524,-1.9874,-1.9874,-2.0698,-2.231,-2.231,-2.231,-2.2282,-2.1794,-2.1582,-2.1552,-2.126,-2.1039,-2.1007,-2.1477,-2.1628,-2.1658,-2.2106,-2.231,-2.231,-2.231,-2.231,-2.231,-2.231,-2.231,-2.2209,-2.1794,-2.1658,-2.1598,-2.1229,-2.1368,-2.1764,-2.218,-2.231,-2.231,-2.231,-2.231,-2.231,-2.231,-2.231,-2.231,-2.231,-2.231,-2.231,-2.231,-2.231,-2.2073,-2.1312,0.0,0.0,-2.1136,-2.117,-2.1448,-2.2141,-2.2287,-2.2426,-2.2686,-2.2746,-2.3021,-2.3649,-2.3714,-2.3876,-2.417,-2.4135,-2.3804,-2.3125,-2.3033,-2.2648,-2.1913,-2.2575,-2.2116,-2.0594,-2.14,-2.1382,-2.0613,-2.1435,-2.2261,-2.307,-2.4018,-2.4472,-2.4545,-2.4731,-2.4804,-2.4832,-2.4949,-2.501,-2.5034,-2.5224,-2.5303,-2.5303,-2.2113,-2.2113,-2.2113,-2.2113,-2.0767,-1.969,-1.969,-1.969,-1.969,-1.969,-2.0277,-2.0447,-1.9782,-1.969,-1.969,-1.969,-1.969,-1.969,-1.969,-1.969,-1.969,-1.969,-2.1354,-2.1781,-2.0698,-2.0698,-2.0379,-1.969,-1.969,-2.005,-2.0698,-2.1071,-2.1339,-2.1477,-2.1007,-2.0797,-2.0765,-2.0649,-2.0431,-2.0243,-2.0959,-2.1039,-2.0846,-2.1323,-2.1645,-2.1869,-2.1869,-2.2032,-2.231,-2.231,-2.2379,-2.2457,-2.2287,-2.2345,-2.242,-2.23,-2.2572,-2.2946,-2.3121,-2.2718,-2.231,-2.231,-2.231,-2.231,-2.231,-2.231,-2.231,-2.231,-2.231,-2.231,-2.231,-2.2682,-2.2733,-2.2006,0.0,-2.2395,-2.1955,-2.187,-2.1989,-2.2276,-2.231,-2.2349,-2.2436,-2.2599,-2.2822,-2.3069,-2.3477,-2.3774,-2.3896,-2.4094,-2.3602,-2.2299,-2.2263,-2.184,-2.0996,-2.1308,-2.0886,-1.9767,-2.0611,-2.0831,-2.0539,-2.1932,-2.2721,-2.3052,-2.3916,-2.4321,-2.4321,-2.4393,-2.4512,-2.4623,-2.4682,-2.4766,-2.4896,-2.4962,-2.5049,-2.5111,-2.3595,-2.3595,-2.3595,-2.3595,-2.1425,-1.969,-1.969,-1.969,-1.969,-1.969,-1.969,-1.969,-1.969,-1.969,-1.969,-1.969,-1.969,-1.969,-1.969,-1.969,-1.969,-1.969,-2.0829,-2.0926,-1.9726,-1.969,-1.969,-1.969,-1.969,-1.969,-1.9726,-2.012,-2.0548,-2.0959,-2.0516,-2.0314,-2.028,-2.0158,-1.9929,-1.9747,-2.0499,-2.0583,-2.0348,-2.0829,-2.1181,-2.1399,-2.1399,-2.1615,-2.1919,-2.2152,-2.232,-2.2411,-2.2505,-2.2544,-2.2676,-2.3028,-2.3191,-2.3363,-2.3728,-2.3307,-2.2794,-2.2958,-2.2987,-2.2987,-2.2987,-2.2987,-2.2987,-2.2987,-2.2987,-2.2987,-2.2987,-2.3393,-2.3579,-2.3071,-2.341,-2.3477,-2.275,-2.2649,-2.2564,-2.2344,-2.231,-2.231,-2.231,-2.2463,-2.2625,-2.2695,-2.3117,-2.3414,-2.3544,-2.3518,-2.3044,-2.2045,-2.1771,-2.1423,-2.0923,-2.0631,-2.0209,-1.9693,-2.0519,-2.1051,-2.131,-2.2465,-2.3144,-2.3419,-2.3951,-2.419,-2.419,-2.419,-2.4284,-2.441,-2.4478,-2.4575,-2.4716,-2.4775,-2.4869,-2.4943,-2.3595,-2.3595,-2.3595,-2.3595,-2.144,-1.972,-1.972,-1.972,-1.972,-1.972,-1.972,-1.972,-1.972,-1.972,-1.9705,-1.969,-1.969,-1.969,-1.969,-1.9705,-1.972,-1.972,-1.969,-1.969,-1.969,-1.969,-1.969,-1.969,-1.969,-1.969,-1.969,-1.969,-2.0139,-2.0959,-2.0516,-2.0314,-2.028,-1.9874,-1.969,-1.9711,-2.0124,-2.0314,-2.0348,-2.0829,-2.0991,-2.1007,-2.1007,-2.1007,-2.1119,-2.1789,-2.2029,-2.2054,-2.2263,-2.2017,-2.1949,-2.3079,-2.2879,-2.2583,-2.3798,-2.3916,-2.3836,-2.4365,-2.4475,-2.4475,-2.4475,-2.4475,-2.4475,-2.4475,-2.4506,-2.4506,-2.4506,-2.4506,-2.4523,-2.4506,-2.4506,-2.4269,-2.3511,-2.3393,-2.3122,-2.2412,-2.231,-2.231,-2.231,-2.231,-2.2398,-2.2669,-2.2695,-2.2848,-2.3165,-2.2458,-2.2162,-2.2497,-2.1722,-2.1479,-2.1804,-2.0941,-2.0503,-2.0521,-2.1382,-2.2208,-2.2997,-2.2997,-2.3437,-2.419,-2.419,-2.419,-2.419,-2.419,-2.419,-2.4209,-2.4428,-2.4495,-2.4528,-2.4716,-2.4804,-2.4804,-2.3595,-2.3595,-2.3595,-2.3595,-2.2951,-2.2443,-2.2443,-2.2443,-2.2443,-2.2443,-2.2443,-2.2443,-2.2443,-2.2443,-2.1695,-1.9854,-1.969,-1.969,-1.969,-2.141,-2.2443,-2.2443,-2.0662,-1.969,-1.969,-1.969,-1.969,-1.969,-1.969,-1.969,-1.969,-1.969,-1.9854,-2.0085,-1.9945,-1.9874,-1.9874,-1.9747,-1.969,-1.9711,-1.9839,-1.9874,-1.9909,-2.005,-2.0261,-2.0579,-2.103,-2.1408,-2.1805,-2.2471,-2.2812,-2.2956,-2.3158,-2.3137,-2.3113,-2.3447,-2.3631,-2.3832,-2.4193,-2.4512,-2.4539,-2.3675,-2.3687,-2.3836,-2.3534,-2.372,-2.3934,-2.3934,-2.4223,-2.4506,-2.4506,-2.4915,-2.5101,-2.4591,-2.4932,-2.5,-2.4286,-2.3714,-2.3325,-2.3105,-2.2632,-2.231,-2.231,-2.231,-2.2321,-2.2398,-2.2599,-2.2848,-2.3165,-2.2976,-2.2876,-2.2985,-2.2198,-2.1935,-2.2294,-2.1716,-2.14,-2.1418,-2.2244,-2.2464,-2.2189,-2.3327,-2.3657,-2.34,-2.3951,-2.419,-2.419,-2.419,-2.419,-2.4227,-2.4284,-2.4284,-2.4303,-2.4357,-2.4461,-2.4575,-2.3595,-2.3595,-2.3595,-2.3595,-2.3595,-2.3595,-2.3595,-2.3595,-2.3595,-2.3595,-2.3595,-2.3595,-2.3595,-2.3595,-2.2951,-2.1365,-2.1231,-2.1231,-2.1231,-2.2712,-2.3595,-2.3595,-2.2084,-2.1231,-2.1231,-2.1231,-2.0722,-1.969,-1.969,-1.969,-1.969,-2.0228,-2.0198,-1.969,-1.9974,-1.9944,-1.9705,-1.9974,-1.9929,-1.9705,-1.9989,-1.9929,-1.972,-1.9989,-2.0261,-2.0574,-2.121,-2.1624,-2.1989,-2.2652,-2.3102,-2.3431,-2.3546,-2.3595,-2.3655,-2.3924,-2.4048,-2.4197,-2.4732,-2.5051,-2.5091,-2.4222,-2.4185,-2.4227,-2.3935,-2.41,-2.4368,-2.4558,-2.4863,-2.5144,-2.5323,-2.5727,-2.5879,-2.5423,-2.5727,-2.5778,-2.5033,-2.4543,-2.4154,-2.3866,-2.3173,-2.275,-2.275,-2.275,-2.275,-2.275,-2.2907,-2.2926,-2.2849,-2.2832,-2.2908,-2.2996,-2.2534,-2.2429,-2.2761,-2.2499,-2.2335,-2.2281,-2.2776,-2.2905,-2.2776,-2.3749,-2.3933,-2.3511,-2.3988,-2.419,-2.419,-2.419,-2.419,-2.419,-2.419,-2.419,-2.419,-2.419,-2.4266,-2.4375,-2.3595,-2.3595,-2.3595,-2.3595,-2.3595,-2.3595,-2.3595,-2.3595,-2.3595,-2.3595,-2.3595,-2.3595,-2.3595,-2.3595,-2.3595,-2.3595,-2.3595,-2.3595,-2.3595,-2.3595,-2.3595,-2.3595,-2.3595,-2.3595,-2.3595,-2.3595,-2.2428,-2.0034,-2.0034,-2.0034,-2.0064,-2.1291,-2.1156,-1.9884,-2.0483,-2.0408,-1.9914,-2.0543,-2.0468,-1.9974,-2.0498,-2.0378,-1.9929,-2.0498,-2.0752,-2.0887,-2.1545,-2.1784,-2.1874,-2.2547,-2.3131,-2.361,-2.367,-2.3684,-2.3819,-2.4462,-2.4268,-2.4044,-2.527,-2.55,-2.5446,-2.5589,-2.5435,-2.5258,-2.5258,-2.5297,-2.5452,-2.5995,-2.6158,-2.6338,-2.6826,-2.6911,-2.6877,-2.681,-2.6793,-2.6539,-2.5812,-2.5642,-2.5355,-2.4692,-2.3934,-2.3494,-2.3494,-2.3494,-2.3494,-2.3494,-2.3494,-2.3173,-2.2446,-2.2412,-2.2466,-2.266,-2.2643,-2.2822,-2.3141,-2.3165,-2.3119,-2.3014,-2.3051,-2.3455,-2.4151,-2.419,-2.419,-2.419,-2.419,-2.419,-2.419,-2.419,-2.419,-2.419,-2.419,-2.419,-2.419,-2.419,-2.419,-2.419,-2.3595,-2.3595,-2.3595,-2.3595,-2.3595,-2.3595,-2.3595,-2.3595,-2.3595,-2.3595,-2.3595,-2.3595,-2.3595,-2.3595,-2.3595,-2.3595,-2.3595,-2.3595,-2.3595,-2.3595,-2.3595,-2.3595,-2.3595,-2.3595,-2.3595,-2.3595,-2.3325,-2.2742,-2.2742,-2.2742,-2.2757,-2.3056,-2.2503,-2.1246,-2.1021,-2.1051,-2.1276,-2.1425,-2.1575,-2.1665,-2.0991,-2.0932,-2.1216,-2.0857,-2.1036,-2.1575,-2.2218,-2.2458,-2.2562,-2.3191,-2.349,-2.3684,-2.4238,-2.4403,-2.4537,-2.5196,-2.5285,-2.5241,-2.5525,-2.5588,-2.5559,-2.557,-2.556,-2.55,-2.55,-2.5857,-2.6302,-2.6887,-2.7346,-2.7843,-2.8395,-2.8484,-2.8298,-2.7672,-2.7571,-2.7317,-2.6573,-2.5964,-2.5541,-2.5389,-2.4695,-2.4269,-2.4269,-2.4269,-2.4269,-2.4269,-2.4269,-2.3934,-2.319,-2.3156,-2.2914,-2.2405,-2.2388,-2.2527,-2.2822,-2.2822,-2.2933,-2.3164,-2.3419,-2.3632,-2.3816,-2.4074,-2.419,-2.419,-2.419,-2.419,-2.419,-2.419,-2.419,-2.419,-2.419,-2.419,-2.419,-2.419,-2.419,-2.419,-2.3595,-2.3595,-2.3999,-2.527,-2.5495,-2.5061,-2.3789,-2.3595,-2.3595,-2.3595,-2.3595,-2.3595,-2.3595,-2.3595,-2.3595,-2.3595,-2.3595,-2.3595,-2.3595,-2.4792,-2.4926,-2.3655,-2.3595,-2.3595,-2.3595,-2.3595,-2.3595,-2.3595,-2.3595,-2.3595,-2.3595,-2.3595,-2.3236,-2.2577,-2.2039,-2.1859,-2.1979,-2.2113,-2.2099,-2.1979,-2.1739,-2.1665,-2.1695,-2.1665,-2.1859,-2.2248,-2.2892,-2.3325,-2.3655,-2.3984,-2.4298,-2.4627,-2.4986,-2.5091,-2.5226,-2.5884,-2.5854,-2.5749,-2.6378,-2.6318,-2.6153,-2.6467,-2.6542,-2.6378,-2.5749,-2.5832,-2.6168,-2.6757,-2.7336,-2.7882,-2.8477,-2.8811,-2.8839,-2.8433,-2.8383,-2.823,-2.7841,-2.7131,-2.6793,-2.7182,-2.6218,-2.5541,-2.5541,-2.5541,-2.5389,-2.505,-2.5017,-2.4695,-2.3951,-2.3917,-2.3748,-2.3359,-2.3004,-2.2886,-2.3014,-2.2672,-2.2607,-2.2773,-2.341,-2.3692,-2.3714,-2.4054,-2.419,-2.419,-2.419,-2.419,-2.419,-2.419,-2.419,-2.419,-2.419,-2.419,-2.419,-2.419,-2.419,-2.419,-2.4193,-2.4268,-2.4971,-2.7235,-2.7625,-2.6726,-2.4014,-2.3595,-2.3595,-2.3595,-2.3595,-2.3595,-2.3595,-2.3595,-2.3595,-2.3595,-2.4014,-2.4268,-2.4268,-2.6348,-2.6378,-2.3714,-2.3595,-2.3595,-2.3595,-2.3595,-2.3595,-2.3595,-2.3595,-2.3595,-2.3595,-2.3595,-2.3595,-2.358,-2.3071,-2.2712,-2.2532,-2.2742,-2.2517,-2.2054,-2.2503,-2.2413,-2.2069,-2.2517,-2.2742,-2.2906,-2.3415,-2.4044,-2.4597,-2.4716,-2.5151,-2.563,-2.5734,-2.5779,-2.5899,-2.6557,-2.6378,-2.6183,-2.7275,-2.7171,-2.6916,-2.7575,-2.779,-2.7485,-2.6512,-2.6198,-2.6221,-2.6672,-2.724,-2.7806,-2.8233,-2.8805,-2.9185,-2.905,-2.9124,-2.9127,-2.9045,-2.8433,-2.8264,-2.8907,-2.7858,-2.7029,-2.6894,-2.6894,-2.659,-2.5845,-2.5795,-2.5473,-2.4743,-2.4678,-2.4642,-2.4506,-2.39,-2.3579,-2.3579,-2.2987,-2.2682,-2.2682,-2.3442,-2.371,-2.3544,-2.3955,-2.4113,-2.4113,-2.417,-2.419,-2.419,-2.419,-2.419,-2.419,-2.419,-2.419,-2.419,-2.419,-2.419,-2.419,-2.6587,-2.7085,-2.7141,-2.7565,-2.7625,-2.6726,-2.4014,-2.3595,-2.3595,-2.3595,-2.3595,-2.3595,-2.3595,-2.3595,-2.3595,-2.3595,-2.5704,-2.7085,-2.7085,-2.7415,-2.6378,-2.3714,-2.3595,-2.3595,-2.3595,-2.3595,-2.3595,-2.3595,-2.3595,-2.3595,-2.3595,-2.3595,-2.3595,-2.3595,-2.3505,-2.346,-2.343,-2.346,-2.343,-2.331,-2.2862,-2.2936,-2.3295,-2.2847,-2.3011,-2.349,-2.3565,-2.4044,-2.4672,-2.5285,-2.554,-2.5704,-2.6273,-2.6452,-2.6587,-2.7295,-2.743,-2.735,-2.7565,-2.75,-2.7655,-2.8293,-2.8457,-2.8562,-2.8951,-2.8607,-2.8228,-2.8229,-2.8745,-2.9202,-2.923,-2.9701,-2.9939,-2.9294,-2.9599,-2.9736,-2.9076,-2.889,-2.8873,-2.9011,-2.8805,-2.8416,-2.774,-2.7637,-2.7351,-2.6607,-2.6539,-2.6234,-2.549,-2.5456,-2.5152,-2.4523,-2.4421,-2.4371,-2.4371,-2.4269,-2.4188,-2.4201,-2.42,-2.3721,-2.2873,-2.3482,-2.3774,-2.3795,-2.4074,-2.419,-2.419,-2.419,-2.419,-2.419,-2.419,-2.419,-2.419,-2.419,-2.419,-2.419,-2.7385,-2.7625,-2.7625,-2.7625,-2.7625,-2.722,-2.6004,-2.5809,-2.5809,-2.5809,-2.4522,-2.3595,-2.3595,-2.3595,-2.4193,-2.5689,-2.554,-2.5989,-2.752,-2.7625,-2.6378,-2.3714,-2.5031,-2.5121,-2.3625,-2.3595,-2.3595,-2.3595,-2.3595,-2.3595,-2.3595,-2.3595,-2.3595,-2.3595,-2.3595,-2.3595,-2.3595,-2.3595,-2.3819,-2.4118,-2.346,-2.3595,-2.4103,-2.3445,-2.3355,-2.3655,-2.4029,-2.4837,-2.5764,-2.6063,-2.6408,-2.6752,-2.7051,-2.7141,-2.72,-2.7535,-2.7625,-2.77,-2.8038,-2.8143,-2.8308,-2.8981,-2.9146,-2.922,-2.952,-2.9624,-2.9424,-2.8697,-2.9035,-2.9366,-2.8952,-2.9681,-3.0266,-2.9889,-3.0344,-3.0623,-3.0273,-2.9871,-2.96,-2.96,-2.9973,-2.9922,-2.9178,-2.9093,-2.8789,-2.8027,-2.7571,-2.7182,-2.686,-2.6454,-2.6065,-2.5727,-2.5321,-2.5101,-2.5101,-2.4726,-2.4506,-2.4506,-2.443,-2.4061,-2.3371,-2.3606,-2.3588,-2.3437,-2.3774,-2.3917,-2.3955,-2.4113,-2.419,-2.419,-2.419,-2.419,-2.419,-2.419,-2.419,-2.419]},{"header":{"parameterUnit":"m.s-1","parameterCategory":1,"la1":30.6,"la2":28.766,"lo1":-90.7593,"lo2":-88.6598,"dy":0.0162,"dx":0.0183,"nx":116,"ny":114,"refTime":"2024-04-17T12:00:00:Z","depth":0,"parameterNumber":3,"parameterNumberName":"V-component_of_WINDS"},"data":[0.0,0.0,0.0,0.0,0.0,0.0,0.0,0.0,0.0,0.0,0.0,0.0,0.0,0.0,0.0,0.0,0.0,0.0,0.0,0.0,0.0,0.0,0.0,0.0,0.0,0.0,0.0,0.0,0.0,0.0,0.0,0.0,0.0,0.0,0.0,0.0,0.0,0.0,0.0,0.0,0.0,0.0,0.0,0.0,0.0,0.0,0.0,0.0,0.0,0.0,0.0,0.0,0.0,0.0,0.0,0.0,0.0,0.0,0.0,0.0,0.0,0.0,0.0,0.0,0.0,0.0,0.0,0.0,0.0,0.0,0.0,0.0,0.0,0.0,0.0,0.0,0.0,0.0,0.0,0.0,0.0,0.0,0.0,0.0,0.0,0.0,0.0,0.0,0.0,0.0,0.0,0.0,0.0,0.0,0.0,0.0,0.0,0.0,0.0,0.0,0.0,0.0,0.0,0.0,0.0,0.0,0.0,0.0,0.0,0.0,0.0,0.0,0.0,0.0,0.0,0.0,0.0,0.0,0.0,0.0,0.0,0.0,0.0,0.0,0.0,0.0,0.0,0.0,0.0,0.0,0.0,0.0,0.0,0.0,0.0,0.0,0.0,0.0,0.0,0.0,0.0,0.0,0.0,0.0,0.0,0.0,0.0,0.0,0.0,0.0,0.0,0.0,0.0,0.0,0.0,0.0,0.0,0.0,0.0,0.0,0.0,0.0,0.0,0.0,0.0,0.0,0.0,0.0,0.0,0.0,0.0,0.0,0.0,0.0,0.0,0.0,0.0,0.0,0.0,0.0,0.0,0.0,0.0,0.0,0.0,0.0,0.0,0.0,0.0,0.0,0.0,0.0,0.0,0.0,0.0,0.0,0.0,0.0,0.0,0.0,0.0,0.0,0.0,0.0,0.0,0.0,0.0,0.0,0.0,0.0,0.0,0.0,0.0,0.0,0.0,0.0,0.0,0.0,0.0,0.0,0.0,0.0,0.0,0.0,0.0,0.0,0.0,0.0,0.0,0.0,0.0,0.0,0.0,0.0,0.0,0.0,0.0,0.0,0.0,0.0,0.0,0.0,0.0,0.0,0.0,0.0,0.0,0.0,0.0,0.0,0.0,0.0,0.0,0.0,0.0,0.0,0.0,0.0,0.0,0.0,0.0,0.0,0.0,0.0,0.0,0.0,0.0,0.0,0.0,0.0,0.0,0.0,0.0,0.0,0.0,0.0,0.0,0.0,0.0,0.0,0.0,0.0,0.0,0.0,0.0,0.0,0.0,0.0,0.0,0.0,0.0,0.0,0.0,0.0,0.0,0.0,0.0,0.0,0.0,0.0,0.0,0.0,0.0,0.0,0.0,0.0,0.0,0.0,0.0,0.0,0.0,0.0,0.0,0.0,0.0,0.0,0.0,0.0,0.0,0.0,0.0,0.0,0.0,0.0,0.0,0.0,0.0,0.0,0.0,0.0,0.0,0.0,0.0,0.0,0.0,0.0,0.0,0.0,0.0,0.0,0.0,0.0,0.0,0.0,0.0,0.0,0.0,0.0,0.0,0.0,0.0,0.0,0.0,0.0,0.0,0.0,0.0,0.0,0.0,0.0,0.0,0.0,0.0,0.0,0.0,0.0,0.0,0.0,0.0,0.0,0.0,0.0,0.0,0.0,0.0,0.0,0.0,0.0,0.0,0.0,0.0,0.0,0.0,0.0,0.0,0.0,0.0,0.0,0.0,0.0,0.0,0.0,0.0,0.0,0.0,0.0,0.0,0.0,0.0,0.0,0.0,0.0,0.0,0.0,0.0,0.0,0.0,0.0,0.0,0.0,0.0,0.0,0.0,0.0,0.0,0.0,0.0,0.0,0.0,0.0,0.0,0.0,0.0,0.0,0.0,0.0,0.0,0.0,0.0,0.0,0.0,0.0,0.0,0.0,0.0,0.0,0.0,0.0,0.0,0.0,0.0,0.0,0.0,0.0,0.0,0.0,0.0,0.0,0.0,0.0,0.0,0.0,0.0,0.0,0.0,0.0,0.0,0.0,0.0,0.0,0.0,0.0,0.0,0.0,0.0,0.0,0.0,0.0,0.0,0.0,0.0,0.0,0.0,0.0,0.0,0.0,0.0,0.0,0.0,0.0,0.0,0.0,0.0,0.0,0.0,0.0,0.0,0.0,0.0,0.0,0.0,0.0,0.0,0.0,0.0,0.0,0.0,0.0,0.0,0.0,0.0,0.0,0.0,0.0,0.0,0.0,0.0,0.0,0.0,0.0,0.0,0.0,0.0,0.0,0.0,0.0,0.0,0.0,0.0,0.0,0.0,0.0,0.0,0.0,0.0,0.0,0.0,0.0,0.0,0.0,0.0,0.0,0.0,0.0,0.0,0.0,0.0,0.0,0.0,0.0,0.0,0.0,0.0,0.0,0.0,0.0,0.0,0.0,0.0,0.0,0.0,0.0,0.0,0.0,0.0,0.0,0.0,0.0,0.0,0.0,0.0,0.0,0.0,0.0,0.0,0.0,0.0,0.0,0.0,0.0,0.0,0.0,0.0,0.0,0.0,0.0,0.0,0.0,0.0,0.0,0.0,0.0,0.0,0.0,0.0,0.0,0.0,0.0,0.0,0.0,0.0,0.0,0.0,0.0,0.0,0.0,0.0,0.0,0.0,0.0,0.0,0.0,0.0,0.0,0.0,0.0,0.0,0.0,0.0,0.0,0.0,0.0,0.0,0.0,0.0,0.0,0.0,0.0,0.0,0.0,0.0,0.0,0.0,0.0,0.0,0.0,0.0,0.0,0.0,0.0,0.0,0.0,0.0,0.0,0.0,0.0,0.0,0.0,0.0,0.0,0.0,0.0,0.0,0.0,0.0,0.0,0.0,0.0,0.0,0.0,0.0,0.0,0.0,0.0,0.0,0.0,0.0,0.0,0.0,0.0,0.0,0.0,0.0,0.0,0.0,0.0,0.0,0.0,0.0,0.0,0.0,0.0,0.0,0.0,0.0,0.0,0.0,0.0,0.0,0.0,0.0,0.0,0.0,0.0,0.0,0.0,0.0,0.0,0.0,0.0,0.0,0.0,0.0,0.0,0.0,0.0,0.0,0.0,0.0,0.0,0.0,0.0,0.0,0.0,0.0,0.0,0.0,0.0,0.0,0.0,0.0,0.0,0.0,0.0,0.0,0.0,0.0,0.0,0.0,0.0,0.0,0.0,0.0,0.0,0.0,0.0,0.0,0.0,0.0,0.0,0.0,0.0,0.0,0.0,0.0,0.0,0.0,0.0,0.0,0.0,0.0,0.0,0.0,0.0,0.0,0.0,0.0,0.0,0.0,0.0,0.0,0.0,0.0,0.0,0.0,0.0,0.0,0.0,0.0,0.0,0.0,0.0,0.0,0.0,0.0,0.0,0.0,0.0,0.0,0.0,0.0,0.0,0.0,0.0,0.0,0.0,0.0,0.0,0.0,0.0,0.0,0.0,0.0,0.0,0.0,0.0,0.0,0.0,0.0,0.0,0.0,0.0,0.0,0.0,0.0,0.0,0.0,0.0,0.0,0.0,0.0,0.0,0.0,0.0,0.0,0.0,0.0,0.0,0.0,0.0,0.0,0.0,0.0,0.0,0.0,0.0,0.0,0.0,0.0,0.0,0.0,0.0,0.0,0.0,0.0,0.0,0.0,0.0,0.0,0.0,0.0,0.0,0.0,0.0,0.0,0.0,0.0,0.0,0.0,0.0,0.0,0.0,0.0,0.0,0.0,0.0,0.0,0.0,0.0,0.0,0.0,0.0,0.0,0.0,0.0,0.0,0.0,0.0,0.0,0.0,0.0,0.0,0.0,0.0,0.0,0.0,0.0,0.0,0.0,0.0,0.0,0.0,0.0,0.0,0.0,0.0,0.0,0.0,0.0,0.0,0.0,0.0,0.0,0.0,0.0,0.0,0.0,0.0,0.0,0.0,0.0,0.0,0.0,0.0,0.0,0.0,0.0,0.0,0.0,0.0,0.0,0.0,0.0,0.0,0.0,0.0,0.0,0.0,0.0,0.0,0.0,0.0,0.0,0.0,0.0,0.0,0.0,0.0,0.0,0.0,0.0,0.0,0.0,0.0,0.0,0.0,0.0,0.0,0.0,0.0,0.0,0.0,0.0,0.0,0.0,0.0,0.0,0.0,0.0,0.0,0.0,0.0,0.0,0.0,0.0,0.0,0.0,0.0,0.0,0.0,0.0,0.0,0.0,0.0,0.0,0.0,0.0,0.0,0.0,0.0,0.0,0.0,0.0,0.0,0.0,0.0,0.0,0.0,0.0,0.0,0.0,0.0,0.0,0.0,0.0,0.0,0.0,0.0,0.0,0.0,0.0,0.0,0.0,0.0,0.0,0.0,0.0,0.0,0.0,0.0,0.0,0.0,0.0,0.0,0.0,0.0,0.0,0.0,0.0,0.0,0.0,0.0,0.0,0.0,0.0,0.0,0.0,0.0,0.0,0.0,0.0,0.0,0.0,0.0,0.0,0.0,0.0,0.0,0.0,0.0,0.0,0.0,0.0,0.0,0.0,0.0,0.0,0.0,0.0,0.0,0.0,0.0,0.0,0.0,0.0,0.0,0.0,0.0,0.0,0.0,0.0,0.0,0.0,0.0,0.0,0.0,0.0,0.0,0.0,0.0,0.0,0.0,0.0,0.0,0.0,0.0,0.0,0.0,0.0,0.0,0.0,0.0,0.0,0.0,0.0,0.0,0.0,0.0,0.0,0.0,0.0,0.0,0.0,0.0,0.0,0.0,0.0,0.0,0.0,0.0,0.0,0.0,0.0,0.0,0.0,0.0,0.0,0.0,0.0,0.0,0.0,0.0,0.0,0.0,0.0,0.0,0.0,0.0,0.0,0.0,0.0,0.0,0.0,0.0,0.0,0.0,0.0,0.0,0.0,0.0,0.0,0.0,0.0,0.0,0.0,0.0,0.0,0.0,0.0,0.0,0.0,0.0,0.0,0.0,0.0,0.0,0.0,0.0,0.0,0.0,0.0,0.0,0.0,0.0,0.0,0.0,0.0,0.0,0.0,0.0,0.0,0.0,0.0,0.0,0.0,0.0,0.0,0.0,0.0,0.0,0.0,0.0,0.0,0.0,0.0,0.0,0.0,0.0,0.0,0.0,0.0,0.0,0.0,0.0,0.0,0.0,0.0,0.0,0.0,0.0,0.0,0.0,0.0,0.0,0.0,0.0,0.0,0.0,0.0,0.0,0.0,0.0,0.0,0.0,0.0,0.0,0.0,0.0,0.0,0.0,0.0,0.0,0.0,0.0,0.0,0.0,0.0,0.0,0.0,0.0,0.0,0.0,0.0,0.0,0.0,0.0,0.0,0.0,0.0,0.0,0.0,0.0,0.0,0.0,0.0,0.0,0.0,0.0,0.0,0.0,0.0,0.0,0.0,0.0,0.0,0.0,0.0,0.0,0.0,0.0,0.0,0.0,0.0,0.0,0.0,0.0,0.0,0.0,0.0,0.0,0.0,0.0,0.0,0.0,0.0,0.0,0.0,0.0,0.0,0.0,0.0,0.0,0.0,0.0,0.0,0.0,0.0,0.0,0.0,0.0,0.0,0.0,0.0,0.0,0.0,0.0,0.0,0.0,0.0,0.0,0.0,0.0,0.0,0.0,0.0,0.0,0.0,0.0,0.0,0.0,0.0,0.0,0.0,0.0,0.0,0.0,0.0,0.0,0.0,0.0,0.0,0.0,0.0,0.0,0.0,0.0,0.0,0.0,0.0,0.0,0.0,0.0,0.0,0.0,0.0,0.0,0.0,0.0,0.0,0.0,0.0,0.0,0.0,0.0,0.0,0.0,0.0,0.0,0.0,0.0,0.0,0.0,0.0,0.0,0.0,0.0,0.0,0.0,0.0,0.0,0.0,0.0,0.0,0.0,0.0,0.0,0.0,0.0,0.0,0.0,0.0,0.0,0.0,0.0,0.0,0.0,0.0,0.0,0.0,0.0,0.0,0.0,0.0,0.0,0.0,0.0,0.0,0.0,0.0,0.0,0.0,0.0,0.0,0.0,0.0,0.0,0.0,0.0,0.0,0.0,0.0,0.0,0.0,0.0,0.0,0.0,0.0,0.0,0.0,0.0,-1.8741,0.0,0.0,0.0,0.0,0.0,0.0,0.0,0.0,0.0,0.0,0.0,0.0,0.0,0.0,0.0,0.0,0.0,0.0,0.0,0.0,0.0,0.0,0.0,0.0,-0.4095,-0.4188,-0.4137,-0.4182,-0.416,-0.4005,0.0,0.0,0.0,0.0,0.0,-0.5117,-0.5526,-0.5664,-0.5526,-0.6514,-0.679,-0.6412,-0.6855,-0.7175,-0.7344,0.0,0.0,0.0,0.0,0.0,0.0,0.0,0.0,0.0,0.0,0.0,0.0,0.0,0.0,0.0,0.0,0.0,0.0,0.0,0.0,0.0,0.0,0.0,0.0,0.0,0.0,0.0,0.0,0.0,0.0,0.0,0.0,0.0,0.0,0.0,0.0,0.0,0.0,0.0,0.0,0.0,0.0,0.0,0.0,0.0,0.0,0.0,0.0,0.0,0.0,0.0,0.0,0.0,0.0,0.0,0.0,0.0,0.0,0.0,0.0,0.0,0.0,0.0,0.0,0.0,0.0,0.0,0.0,0.0,0.0,0.0,-1.9435,0.0,0.0,0.0,0.0,0.0,0.0,0.0,0.0,0.0,0.0,0.0,0.0,0.0,0.0,0.0,0.0,0.0,0.0,0.0,0.0,0.0,-0.3101,-0.4416,-0.4295,-0.4295,-0.4694,-0.4369,-0.4106,-0.4005,-0.4195,-0.4231,-0.4036,-0.4595,-0.525,-0.5978,-0.7055,-0.7096,-0.6074,-0.6826,-0.7521,-0.8153,-0.8548,-0.8785,-0.8789,-0.8213,0.0,0.0,0.0,0.0,0.0,0.0,0.0,0.0,0.0,0.0,0.0,0.0,0.0,0.0,0.0,0.0,0.0,0.0,0.0,0.0,0.0,0.0,0.0,0.0,0.0,0.0,0.0,0.0,0.0,0.0,0.0,0.0,0.0,0.0,0.0,0.0,0.0,0.0,0.0,0.0,0.0,0.0,0.0,0.0,0.0,0.0,0.0,0.0,0.0,0.0,0.0,0.0,0.0,0.0,0.0,0.0,0.0,0.0,0.0,0.0,0.0,0.0,0.0,-2.1397,-2.1211,-2.0779,-2.0779,-2.116,-2.1779,-2.1661,-2.1498,-2.1312,0.0,0.0,0.0,0.0,0.0,0.0,0.0,0.0,0.0,0.0,0.0,0.0,0.0,0.0,0.0,0.0,0.0,0.0,0.0,0.0,-0.3247,-0.4983,-0.4903,-0.4621,-0.4476,-0.4595,-0.4509,-0.4025,-0.4032,-0.4179,-0.4495,-0.4826,-0.5314,-0.5986,-0.6785,-0.6915,-0.6357,-0.7203,-0.8412,-0.9951,-1.0007,-1.0245,-1.0527,-0.9355,-0.8838,-0.8809,0.0,0.0,0.0,0.0,0.0,0.0,0.0,0.0,0.0,0.0,0.0,0.0,0.0,0.0,0.0,0.0,0.0,0.0,0.0,0.0,0.0,0.0,0.0,0.0,0.0,0.0,0.0,0.0,0.0,0.0,0.0,0.0,0.0,0.0,0.0,0.0,0.0,0.0,0.0,0.0,0.0,-1.0099,-1.3032,0.0,0.0,0.0,0.0,0.0,0.0,0.0,0.0,0.0,0.0,0.0,0.0,0.0,-1.7198,-1.908,-2.1197,-2.2637,-2.3422,-2.3829,-2.3998,-2.39,-2.39,-2.3951,-2.4049,-2.3376,0.0,-2.2107,-2.1346,0.0,0.0,0.0,0.0,0.0,0.0,0.0,0.0,0.0,0.0,0.0,0.0,0.0,0.0,0.0,0.0,0.0,0.0,0.0,0.0,0.0,-0.4609,-0.4676,-0.4876,-0.5157,-0.5053,-0.4496,-0.4898,-0.5082,-0.484,-0.547,-0.6004,-0.6371,-0.7074,-0.7577,-0.7871,-0.8747,-0.9657,-1.0645,-1.0897,-1.1142,-1.125,-1.0693,-1.0039,-0.9346,-0.9323,0.0,0.0,0.0,0.0,0.0,0.0,0.0,0.0,0.0,0.0,0.0,0.0,0.0,0.0,0.0,0.0,0.0,0.0,0.0,0.0,0.0,0.0,0.0,0.0,0.0,0.0,0.0,0.0,0.0,0.0,0.0,0.0,0.0,0.0,0.0,0.0,0.0,0.0,0.0,-0.9939,-1.2194,-1.3286,-1.3645,-1.354,0.0,0.0,0.0,0.0,0.0,0.0,0.0,0.0,0.0,-1.8322,-1.928,-2.0129,-2.0974,-2.3134,-2.419,-2.4218,-2.4404,-2.4506,-2.4506,-2.4506,-2.4932,-2.5659,-2.4509,-2.4306,-2.4628,-2.2632,-2.1566,-2.1136,0.0,0.0,0.0,0.0,-1.8978,-1.9461,0.0,0.0,0.0,0.0,0.0,0.0,0.0,0.0,0.0,0.0,0.0,0.0,-0.4122,-0.4542,-0.4917,-0.5351,-0.5658,-0.5578,-0.4935,-0.5441,-0.5613,-0.5269,-0.5987,-0.6556,-0.6942,-0.7646,-0.8386,-0.916,-1.0137,-1.083,-1.125,-1.1689,-1.1939,-1.1939,-1.1939,-1.123,-1.0107,-0.9893,-0.9434,-0.8871,0.0,0.0,0.0,0.0,0.0,0.0,0.0,0.0,0.0,0.0,0.0,0.0,0.0,0.0,0.0,0.0,0.0,0.0,0.0,0.0,0.0,0.0,0.0,0.0,0.0,0.0,0.0,0.0,0.0,0.0,0.0,0.0,0.0,0.0,0.0,0.0,0.0,-1.1374,-1.387,-1.357,-1.3989,-1.4049,0.0,0.0,0.0,0.0,0.0,0.0,-1.8042,-1.7896,-1.8525,-2.0238,-2.139,-2.2178,-2.2598,-2.4298,-2.5039,-2.478,-2.5152,-2.5338,-2.5338,-2.5541,-2.6234,-2.7215,-2.6116,-2.615,-2.6776,-2.4002,-2.2429,-2.1746,-2.1549,-2.1126,-2.0542,-2.0137,-2.0373,-2.0829,0.0,0.0,0.0,0.0,0.0,0.0,0.0,0.0,0.0,0.0,0.0,-0.4162,-0.4616,-0.5251,-0.5658,-0.5685,-0.6001,-0.5896,-0.5225,-0.4972,-0.5182,-0.5907,-0.6,-0.654,-0.7618,-0.8483,-0.916,-0.9563,-1.0869,-1.1728,-1.2122,-1.2607,-1.2812,-1.2812,-1.2812,-1.2361,-1.1449,-1.0636,-1.0225,-1.0078,-0.8901,0.0,0.0,0.0,0.0,0.0,0.0,0.0,0.0,0.0,0.0,0.0,0.0,0.0,0.0,0.0,0.0,0.0,0.0,0.0,0.0,0.0,0.0,0.0,0.0,0.0,0.0,0.0,0.0,0.0,0.0,0.0,0.0,0.0,0.0,0.0,0.0,0.0,0.0,-1.4677,-1.5304,0.0,0.0,0.0,0.0,-1.5649,-1.5381,-1.6291,-1.8719,-1.8075,-1.8681,-2.1075,-2.1084,-2.1804,-2.3342,-2.4463,-2.518,-2.5558,-2.6979,-2.762,-2.7637,-2.8416,-2.8825,-2.8892,-2.8825,-2.8383,-2.7553,-2.5304,-2.3934,-2.3224,-2.253,-2.2226,-2.2023,-2.0542,-2.1353,-2.3122,0.0,0.0,0.0,0.0,0.0,0.0,0.0,-0.1999,-0.3373,-0.2977,-0.3612,-0.4142,-0.4247,-0.5117,-0.5792,-0.6021,-0.6446,-0.6491,-0.5941,-0.5748,-0.5842,-0.6295,-0.5881,-0.634,-0.7859,-0.9178,-1.0166,-1.0869,-1.1949,-1.249,-1.2646,-1.2812,-1.3027,-1.3281,-1.3281,-1.3105,-1.2754,-1.1895,-1.1055,-1.0244,-0.9822,-0.9146,0.0,0.0,0.0,0.0,0.0,0.0,0.0,0.0,0.0,0.0,0.0,0.0,0.0,0.0,0.0,0.0,0.0,0.0,0.0,0.0,0.0,0.0,0.0,0.0,0.0,0.0,0.0,0.0,0.0,0.0,0.0,0.0,0.0,0.0,0.0,0.0,0.0,-1.5394,-1.6009,0.0,-1.6039,-1.6398,-1.6772,-1.7012,-1.7882,-1.8968,-2.0207,-2.0616,-2.1368,-2.2598,-2.3474,-2.4243,-2.4814,-2.6152,-2.6875,-2.7046,-2.8078,-2.8298,-2.7806,-2.8619,-2.9011,-2.9011,-2.9011,-2.911,-2.9194,-2.7909,-2.637,-2.4746,-2.4002,-2.3714,-2.3646,-2.3088,-2.341,-2.4052,0.0,0.0,0.0,0.0,0.0,0.0,0.0,-0.167,-0.2915,-0.2911,-0.3579,-0.4115,-0.4249,-0.5217,-0.5979,-0.631,-0.6646,-0.6608,-0.6027,-0.5731,-0.5622,-0.5766,-0.567,-0.6304,-0.775,-0.9385,-1.0593,-1.1246,-1.2347,-1.2881,-1.2881,-1.3027,-1.3242,-1.3516,-1.3652,-1.3721,-1.3682,-1.3066,-1.2129,-1.0898,-1.0459,-0.9812,-0.9008,0.0,0.0,0.0,0.0,0.0,0.0,0.0,0.0,0.0,0.0,0.0,0.0,0.0,0.0,0.0,0.0,0.0,0.0,0.0,0.0,0.0,0.0,0.0,0.0,0.0,0.0,0.0,0.0,0.0,0.0,0.0,0.0,0.0,0.0,0.0,-1.5469,-1.6323,-1.698,-1.7458,-1.7682,-1.7891,-1.8149,-1.8373,-1.9409,-2.0335,-2.1063,-2.1999,-2.2769,-2.3238,-2.4645,-2.5396,-2.5346,-2.696,-2.7789,-2.7806,-2.8873,-2.9093,-2.8619,-2.9381,-2.9448,-2.9008,-2.9516,-2.9736,-2.9702,-2.9465,-2.8332,-2.664,-2.5625,-2.5084,-2.4864,-2.4864,-2.5017,-2.5203,0.0,0.0,0.0,0.0,0.0,-0.0014,-0.0048,-0.1053,-0.219,-0.33,-0.3774,-0.4195,-0.4734,-0.5618,-0.6303,-0.6553,-0.6593,-0.6251,-0.5434,-0.4819,-0.4439,-0.4308,-0.5466,-0.651,-0.7396,-0.9199,-1.0281,-1.0651,-1.2168,-1.2891,-1.291,-1.332,-1.3516,-1.3564,-1.3975,-1.4097,-1.4097,-1.4097,-1.3326,-1.2086,-1.0889,-1.0342,-1.0166,0.0,0.0,0.0,0.0,0.0,0.0,0.0,0.0,0.0,0.0,0.0,0.0,0.0,0.0,0.0,0.0,0.0,0.0,0.0,0.0,0.0,0.0,0.0,0.0,0.0,0.0,0.0,0.0,0.0,0.0,0.0,0.0,0.0,-1.3397,-1.4826,-1.6353,-1.7623,-1.8388,-1.9031,-1.969,-1.9151,-1.9046,-1.969,-1.9765,-2.0237,-2.1286,-2.2019,-2.2613,-2.2992,-2.4305,-2.4959,-2.4806,-2.6821,-2.7823,-2.784,-2.9414,-3.0125,-3.0142,-3.0869,-3.0395,-2.9093,-3.0531,-3.0345,-2.9076,-2.9786,-2.9634,-2.8789,-2.7317,-2.6285,-2.5642,-2.5642,-2.6099,-2.659,0.0,0.0,0.0,0.0,0.0,-0.0294,-0.117,-0.158,-0.1915,-0.2224,-0.3454,-0.4349,-0.4502,-0.5531,-0.623,-0.6303,-0.6282,-0.593,-0.517,-0.4625,-0.4366,-0.4372,-0.5387,-0.6561,-0.7882,-0.9572,-1.0777,-1.145,-1.2445,-1.3037,-1.334,-1.3457,-1.3838,-1.4434,-1.4561,-1.4267,-1.3746,-1.3746,-1.2985,-1.1868,-1.2101,-1.1592,-1.0664,0.0,0.0,0.0,0.0,0.0,0.0,0.0,0.0,0.0,0.0,0.0,0.0,0.0,0.0,0.0,0.0,0.0,0.0,0.0,0.0,0.0,0.0,0.0,0.0,0.0,0.0,0.0,0.0,0.0,0.0,0.0,0.0,-1.5535,-1.5728,-1.6994,-1.8388,-1.9735,-2.0049,-2.0423,-2.1081,-2.0543,-2.0438,-2.1096,-2.159,-2.1931,-2.2,-2.2731,-2.3099,-2.3064,-2.4339,-2.4993,-2.4959,-2.7429,-2.867,-2.8687,-3.0176,-3.0615,-3.0142,-3.0869,-3.0683,-2.982,-3.0226,-3.0176,-2.977,-2.9431,-2.8839,-2.8095,-2.7672,-2.7063,-2.6404,-2.6404,-2.6522,-2.6505,0.0,0.0,0.0,0.0,0.0,-0.032,-0.128,-0.1634,-0.1832,-0.1918,-0.3274,-0.4269,-0.4389,-0.5262,-0.5873,-0.5994,-0.5841,-0.5386,-0.4585,-0.4175,-0.4179,-0.4639,-0.5532,-0.6656,-0.799,-0.9637,-1.0815,-1.1366,-1.2572,-1.3271,-1.3516,-1.3877,-1.4307,-1.4795,-1.4971,-1.4573,-1.387,-1.387,-1.311,-1.2044,-1.2511,-1.2027,-1.0903,-1.0359,-0.9677,-0.8977,-0.8727,-0.8451,-0.8079,-0.7295,0.0,0.0,0.0,0.0,0.0,0.0,0.0,0.0,0.0,0.0,0.0,0.0,0.0,0.0,0.0,0.0,0.0,0.0,0.0,0.0,0.0,0.0,0.0,0.0,-1.561,-1.7388,-1.8619,-1.9241,-2.0049,-2.138,-2.1545,-2.1784,-2.2428,-2.1919,-2.1695,-2.2084,-2.2499,-2.2611,-2.2483,-2.3326,-2.3545,-2.2954,-2.4333,-2.485,-2.4325,-2.6698,-2.7881,-2.7914,-2.9334,-2.9769,-2.9314,-3.0034,-2.9765,0.0,-2.9364,-2.9262,-2.8721,-2.9228,-2.8991,0.0,0.0,0.0,0.0,0.0,-2.6691,-2.6573,0.0,0.0,0.0,0.0,0.0,-0.0193,-0.076,-0.1326,-0.1777,-0.2011,-0.3136,-0.4028,-0.427,-0.485,-0.5284,-0.5544,-0.526,-0.472,-0.3917,-0.361,-0.3937,-0.5015,-0.5814,-0.6801,-0.7956,-0.9595,-1.0548,-1.0813,-1.2605,-1.3525,-1.3594,-1.4404,-1.4758,-1.4751,-1.5119,-1.4821,-1.3967,-1.3967,-1.3297,-1.2241,-1.2161,-1.1769,-1.1064,-1.0317,-0.9776,-0.9423,-0.9325,-0.8675,-0.7824,-0.7385,0.0,0.0,0.0,0.0,0.0,0.0,0.0,0.0,0.0,0.0,0.0,0.0,0.0,0.0,0.0,0.0,0.0,0.0,0.0,0.0,0.0,0.0,0.0,0.0,-1.7069,-1.9132,-2.1372,-2.1326,-2.147,-2.2637,-2.2727,-2.2921,-2.3535,-2.3041,-2.2753,-2.2787,-2.2787,-2.2787,-2.2787,0.0,0.0,0.0,0.0,-2.4483,-2.3421,-2.5338,-2.6278,-2.631,-2.764,-2.8197,-2.8135,-2.8737,-2.8191,-2.6859,-2.8138,-2.7969,-2.6908,-2.8932,-2.9411,-2.8789,-2.8095,-2.7351,-2.6674,-2.6607,-2.6623,-2.6674,0.0,0.0,0.0,0.0,0.0,-0.0111,-0.0445,-0.0827,-0.1207,-0.1562,-0.2673,-0.3507,-0.3664,-0.4225,-0.4596,-0.4649,-0.4345,-0.3996,-0.3603,-0.3324,-0.389,-0.5504,-0.6196,-0.7068,-0.8263,-0.9895,-1.0747,-1.0813,-1.2605,-1.3682,-1.397,-1.4541,-1.4611,-1.435,-1.4702,-1.3993,-1.26,-1.26,-1.2067,-1.1226,-1.0732,-1.0938,-1.1509,-1.1055,-1.053,-1.0038,-0.943,-0.8943,-0.851,-0.7715,-0.7599,-0.7719,-0.7133,-0.6927,0.0,0.0,0.0,0.0,0.0,0.0,0.0,0.0,0.0,0.0,0.0,0.0,0.0,0.0,0.0,0.0,0.0,0.0,0.0,-1.6194,-1.8893,-2.1133,-2.1627,-2.2477,-2.3131,-2.3385,-2.2981,-2.2921,-2.3535,-2.3041,-2.2877,-2.3385,-2.343,-2.343,-2.343,-2.3182,-2.2911,-2.2724,-2.3379,-2.3624,-2.3406,-2.5338,-2.6278,-2.6294,0.0,0.0,-2.7567,-2.7696,-2.7575,-2.725,-2.6935,-2.6983,-2.7187,-2.7542,-2.7838,-2.8027,-2.784,-2.7351,-2.6623,-2.6031,-2.6184,-2.6607,0.0,0.0,0.0,0.0,-0.0251,-0.0437,-0.0408,-0.0768,-0.1112,-0.1283,-0.2211,-0.2931,-0.3181,-0.3522,-0.3808,-0.3924,-0.3584,-0.3524,-0.3917,-0.4169,-0.4923,-0.6299,-0.7081,-0.7829,-0.8577,-0.9896,-1.0527,-1.0527,-1.2143,-1.303,-1.3282,-1.3678,-1.3788,-1.3623,-1.3752,-1.314,-1.2011,-1.2011,-1.1518,-1.0748,-1.0454,-1.0662,-1.1093,-1.0823,-1.0412,-0.9932,-0.9607,-0.9133,-0.8524,-0.8118,-0.7923,-0.7829,-0.753,-0.7442,-0.7437,0.0,0.0,0.0,0.0,0.0,0.0,0.0,0.0,0.0,0.0,0.0,0.0,0.0,0.0,-1.2309,-1.2467,0.0,-1.6123,-1.746,-1.9478,-2.1322,-2.2497,-2.3213,-2.3595,-2.3595,-2.3056,-2.2802,-2.3101,-2.2562,-2.2443,-2.3086,-2.3131,-2.3266,-2.358,-2.331,-2.2996,-2.2724,-2.3228,-2.3351,-2.3071,-2.4323,-2.4942,-2.4958,-2.5641,-2.5951,-2.5898,-2.6261,-2.6354,-2.6286,-2.5894,-2.5942,-2.6278,-2.6571,-2.6842,-2.7069,-2.7361,-2.7377,-2.7165,-2.642,-2.6623,-2.7165,0.0,0.0,0.0,0.0,-0.0495,-0.0794,-0.0489,-0.0836,-0.1136,-0.1101,-0.1754,-0.2348,-0.265,-0.2849,-0.3036,-0.3234,-0.2955,-0.32,-0.425,-0.504,-0.5964,-0.7054,-0.7923,-0.851,-0.8798,-0.9717,-1.0247,-1.0314,-1.1647,-1.2348,-1.243,-1.2783,-1.2948,-1.2765,-1.283,-1.2429,-1.1619,-1.1619,-1.1255,-1.0641,-1.0645,-1.0591,-1.045,-1.0286,-1.001,-0.9737,-0.9664,-0.9102,-0.8444,-0.8323,-0.817,-0.8009,-0.7902,-0.8041,-0.8107,-0.7444,-0.764,0.0,0.0,0.0,0.0,0.0,0.0,0.0,0.0,0.0,-1.1436,-1.1896,-1.277,-1.3533,-1.3799,-1.4942,-1.6505,-1.8446,-1.9796,-2.121,-2.2981,-2.3346,-2.3415,-2.3415,-2.2981,-2.2664,-2.2544,-2.2009,-2.1964,-2.2664,-2.2604,-2.2817,-2.3565,-2.337,-2.3056,-2.2724,-2.3161,-2.3116,-2.2488,-2.3221,-2.3535,-2.343,-2.4103,-2.4338,-2.4256,-2.4783,-2.4973,-2.491,-2.5013,-2.5219,-2.5512,-2.6086,-2.6406,-2.6511,-2.683,-2.7177,-2.7475,-2.7062,-2.7199,-2.7502,0.0,0.0,0.0,0.0,0.0,-0.083,-0.0616,-0.0774,-0.0978,-0.1082,-0.1387,-0.1687,-0.1892,-0.2257,-0.2445,-0.2358,-0.251,-0.3026,-0.3985,-0.4847,-0.5954,-0.7399,-0.8078,-0.851,-0.8798,-0.9501,-1.0016,-1.0314,-1.1439,-1.2134,-1.243,-1.2783,-1.2634,-1.1965,-1.2198,-1.1826,-1.1073,-1.1073,-1.1073,-1.0922,-1.0732,-1.0401,-1.0127,-0.9883,-0.9872,-0.996,-0.9159,-0.8837,-0.8677,-0.8156,-0.8136,-0.8277,-0.8016,-0.7909,-0.7902,-0.7624,0.0,-0.7936,-0.7618,-0.7642,-0.7955,-0.8785,-0.9705,-1.0626,0.0,0.0,-1.3847,-1.4385,-1.5337,-1.6103,-1.6103,-1.7932,-1.9192,-1.8426,-2.0575,-2.2295,-2.1965,-2.2425,-2.2787,-2.2787,-2.2727,-2.2484,-2.1859,-2.1739,-2.1964,-2.2664,-2.2143,-2.2338,-2.3535,-2.2532,-2.2143,-2.2667,-2.2783,-2.2458,-2.1814,-2.2996,-2.3325,-2.2787,-2.3415,-2.3713,-2.3681,-2.3756,-2.3784,-2.3824,-2.4415,-2.5284,-2.6333,-2.6411,-2.6745,-2.7144,-2.6615,-2.6414,-2.6555,-2.737,-2.7317,-2.6826,0.0,0.0,0.0,0.0,0.0,-0.0468,-0.074,-0.0784,-0.0828,-0.0968,-0.1153,-0.1357,-0.1596,-0.1887,-0.1977,-0.1804,-0.2078,-0.2819,-0.4142,-0.5043,-0.6192,-0.7669,-0.7898,-0.833,-0.8997,-0.893,-0.9314,-1.0205,-1.061,-1.1011,-1.1348,-1.1542,-1.1413,-1.1115,-1.1241,-1.1113,-1.0742,-1.0742,-1.0742,-1.0715,-1.0421,-1.0227,-1.0047,-0.9412,-0.9245,-0.9259,-0.855,-0.8183,0.0,-0.7742,-0.7742,-0.7903,-0.7916,-0.7643,-0.7355,-0.7271,-0.7284,0.0,-0.7792,-0.8546,0.0,0.0,-1.0976,-1.2322,-1.2977,-1.4409,-1.5714,-1.6236,-1.6697,-1.7024,-1.7024,-1.7524,-1.8119,0.0,-2.0089,-2.1187,-2.125,-2.2106,-2.2301,-2.119,-2.1,-2.0827,-2.0543,-2.0528,-2.0632,-2.0917,-2.1051,-2.153,-2.2443,-2.1979,-2.1994,-2.2694,-2.2724,-2.2712,-2.2802,-2.3325,-2.3475,-2.3221,-2.3475,-2.3595,-2.3595,-2.3595,-2.3595,-2.361,-2.3909,-2.4295,-2.48,-2.48,-2.4958,-2.5172,-2.5592,-2.578,-2.58,-2.6162,-2.6623,-2.6989,0.0,0.0,0.0,0.0,0.0,-0.01,-0.0626,-0.0659,-0.067,-0.0832,-0.0925,-0.109,-0.1353,-0.1516,-0.1555,-0.1454,-0.1743,-0.252,-0.3897,-0.4966,-0.6145,-0.7485,-0.7766,-0.8168,-0.8777,-0.8337,-0.845,-0.9266,-0.9266,-0.9449,-0.9788,-0.9788,-0.9832,-0.9907,-0.9907,-0.9907,-0.9907,-0.9907,-0.9863,-0.9769,-0.9506,-0.9354,-0.9136,-0.846,-0.8114,-0.7892,-0.7623,-0.7415,-0.7231,-0.6989,-0.707,-0.7278,-0.7301,-0.7128,-0.6887,-0.6922,-0.6986,-0.7225,-0.829,0.0,0.0,-1.0965,-1.2275,-1.3667,-1.4485,-1.5603,-1.6598,-1.7208,-1.73,-1.7309,-1.7413,-1.7162,-1.7371,-1.865,-1.94,-2.0017,-2.0575,-2.1269,-2.1181,-1.9782,-1.939,-1.9114,-1.8912,-1.9211,-1.957,-1.9944,-2.0258,-2.0887,-2.1919,-2.162,-2.1724,-2.2383,-2.2398,-2.2532,-2.2802,-2.3161,-2.334,-2.334,-2.352,-2.3595,-2.3595,-2.3595,-2.3595,-2.3595,-2.3595,-2.3699,-2.3864,-2.3684,-2.3714,-2.3953,-2.463,-2.4909,-2.4891,-2.478,-2.571,-2.6869,0.0,0.0,0.0,0.0,0.0,0.0178,-0.0167,-0.0324,-0.0479,-0.0682,-0.0706,-0.0818,-0.1083,-0.1116,-0.1171,-0.1291,-0.1617,-0.2125,-0.29,-0.4301,-0.5586,-0.6598,-0.7773,-0.8152,-0.7729,-0.7735,-0.7537,-0.7167,-0.7167,-0.739,-0.7814,-0.7814,-0.787,-0.8091,-0.8091,-0.8091,-0.8091,-0.8091,-0.7958,-0.7814,-0.7804,-0.741,-0.6902,-0.6706,-0.6294,-0.589,-0.6434,-0.6627,-0.6486,-0.5665,-0.5912,-0.652,-0.5959,-0.6159,0.0,-0.6767,-0.7139,-0.7783,-0.9162,0.0,-1.02,-1.2615,-1.3482,-1.418,-1.5797,-1.6081,-1.6243,-1.6938,-1.7085,-1.7183,-1.7372,-1.7802,-1.8166,-1.8204,-1.8747,-1.933,-1.994,-1.9557,-1.915,-1.8955,-1.836,-1.765,0.0,-1.7984,-1.9271,-2.0587,-2.0094,-2.0572,-2.2547,-2.144,-2.1051,-2.171,-2.1724,-2.1425,-2.0812,-2.2069,-2.2739,-2.2753,-2.331,-2.3595,-2.3595,-2.3595,-2.3595,-2.3595,-2.3595,-2.3984,-2.4507,-2.3879,-2.3984,-2.4537,-2.3879,-2.3668,-2.3668,-2.3653,-2.4729,-2.607,0.0,0.0,0.0,0.0,0.0,0.0,0.0233,-0.0067,-0.0324,-0.0479,-0.0615,0.0,0.0,0.0,0.0,0.0,-0.127,-0.1724,-0.2643,-0.3535,-0.4468,-0.5436,-0.5864,-0.6497,-0.7399,-0.6494,-0.6608,-0.7824,-0.7212,-0.7141,-0.7586,-0.7586,-0.7633,-0.7644,-0.7644,-0.7644,-0.7644,-0.7644,-0.7598,-0.755,-0.7145,-0.687,-0.6627,-0.6091,-0.5751,-0.552,0.0,-0.5264,-0.5345,-0.5053,-0.5153,-0.5424,-0.5424,-0.5554,-0.5809,-0.6407,-0.7264,-0.8217,-0.9288,0.0,-1.1606,-1.2749,-1.412,-1.5236,-1.5493,-1.6104,-1.6775,-1.7142,-1.6349,-1.572,-1.6211,-1.5517,-1.5266,-1.6358,-1.6736,-1.7233,-1.8138,-1.8123,-1.8145,-1.8352,-1.7776,0.0,0.0,0.0,0.0,-1.8698,-1.975,-2.0662,-2.1335,-2.1365,-2.1665,-2.2323,-2.2338,-2.2443,-2.2622,-2.3071,-2.3295,-2.3295,-2.349,-2.3595,-2.3595,-2.3595,-2.3595,-2.3595,-2.3595,-2.3729,-2.3924,-2.3684,-2.3729,-2.3969,-2.4193,-2.4283,-2.4283,-2.4283,-2.4625,-2.5083,0.0,0.0,0.0,0.0,0.0,0.0,0.0,0.0,0.0,0.0,0.0,0.0,0.0,0.0,0.0,0.0,0.0,-0.1345,-0.2093,-0.2817,-0.3563,-0.4361,-0.4723,-0.5305,-0.6152,-0.5298,-0.5396,-0.6462,-0.594,-0.5831,-0.6156,-0.6156,-0.6197,-0.6272,-0.6272,-0.6253,-0.6317,-0.6243,-0.6225,-0.6119,-0.57,-0.5424,-0.5231,-0.4706,-0.4552,0.0,-0.4049,-0.4063,-0.4356,-0.4469,-0.4635,-0.4807,-0.4816,-0.497,-0.5312,-0.6165,-0.7297,-0.8569,-0.9811,-1.1301,-1.2645,-1.3511,-1.4612,-1.545,-1.5237,-1.5584,-1.5992,-1.6029,-1.5165,-1.4506,-1.4805,-1.3964,-1.3704,-1.5191,-1.5299,-1.5633,-1.6879,-1.6952,-1.7029,-1.7421,-1.7098,-1.732,0.0,0.0,0.0,-1.8071,-1.948,-2.0453,-2.0707,-2.1335,-2.1994,-2.2694,-2.2724,-2.2877,-2.3266,-2.3266,-2.3385,-2.3595,-2.3595,-2.3595,-2.3595,-2.3595,-2.3355,-2.2951,-2.34,-2.334,-2.2951,-2.3415,-2.3595,-2.364,-2.4088,-2.4253,-2.4253,-2.4253,-2.4253,-2.4253,0.0,0.0,0.0,0.0,0.0,0.0,0.0,0.0,0.0,0.0,0.0,0.0,0.0,0.0,0.0,0.0,0.0,0.0,-0.1277,-0.2137,-0.2874,-0.3385,-0.4285,-0.4581,-0.4168,-0.4257,-0.4,-0.3327,-0.3473,-0.3619,-0.3758,-0.3758,-0.3836,-0.3975,-0.3975,-0.4003,-0.413,-0.3986,-0.389,-0.3744,-0.3595,-0.328,-0.2879,-0.2743,-0.2857,-0.3052,-0.2929,-0.314,-0.3524,-0.3854,-0.4335,-0.4694,-0.4227,-0.4538,-0.5242,-0.6089,-0.7371,-0.8902,-1.0723,-1.2081,-1.3363,-1.4831,-1.5006,-1.4869,-1.506,-1.458,-1.3965,-1.3768,-1.3678,-1.3495,0.0,0.0,-1.3469,-1.46,-1.4362,-1.4588,-1.6233,-1.6007,-1.5818,0.0,0.0,0.0,0.0,0.0,0.0,-1.8688,0.0,-2.0057,-2.0782,-2.144,-2.2084,-2.2739,-2.2768,-2.2768,-2.2768,-2.2768,-2.3011,-2.3595,-2.3595,-2.3595,-2.3595,-2.3595,-2.2936,-2.1859,-2.3071,-2.2936,-2.1934,-2.3146,-2.367,-2.3699,-2.367,-2.3655,-2.3655,-2.361,-2.3595,-2.3595,0.0,0.0,0.0,0.0,0.0,0.0,0.0,0.0,0.0,0.0,0.0,0.0,0.0,0.0,0.0,0.0,0.0,0.0,-0.1128,-0.1617,-0.1995,-0.2227,-0.2802,-0.3244,-0.3515,-0.328,-0.3329,-0.3672,-0.3282,-0.3154,-0.3293,-0.3293,-0.3314,-0.3351,-0.3351,-0.3329,-0.3363,-0.3323,-0.3327,-0.3269,-0.3015,-0.2842,-0.273,-0.2549,-0.2524,-0.2595,-0.2706,-0.2946,-0.3251,-0.3527,0.0,-0.459,-0.511,-0.5543,-0.6054,-0.6765,-0.8421,-1.024,-1.1102,-1.2811,-1.4478,-1.5167,-1.5091,-1.4645,-1.4089,-1.357,-1.3045,-1.2519,-1.1701,-1.1148,0.0,0.0,0.0,-1.2935,-1.3032,0.0,-1.5618,-1.5429,0.0,-1.6874,0.0,-1.7584,-1.8948,-1.9072,0.0,0.0,-2.0171,-2.1043,-2.2128,-2.2772,-2.3191,-2.3355,-2.337,-2.337,-2.337,-2.337,-2.3445,-2.3595,-2.3595,-2.3595,-2.3595,-2.3595,-2.3415,-2.3131,-2.346,-2.3699,-2.3909,-2.4194,-2.4657,-2.5046,-2.4552,-2.4373,-2.4253,-2.3789,-2.3595,-2.3595,0.0,0.0,0.0,0.0,0.0,0.0,0.0,0.0,0.0,0.0,0.0,0.0,0.0,0.0,0.0,0.0,0.0,0.0,0.0,-0.1217,-0.1444,-0.1576,-0.1975,-0.2344,-0.2631,-0.2477,-0.2568,-0.2934,-0.2701,-0.2588,-0.2537,-0.2636,-0.2629,-0.254,-0.2639,-0.27,-0.27,-0.27,-0.27,0.0,0.0,-0.2347,-0.2287,-0.2178,-0.2212,-0.234,-0.243,0.0,0.0,0.0,0.0,-0.4939,-0.5819,-0.6224,-0.6562,-0.7459,0.0,-1.0327,-1.1584,-1.3059,-1.4336,-1.4731,-1.4668,-1.417,-1.2939,-1.2471,-1.2069,-1.1093,-1.0372,0.0,-0.9819,-0.9611,0.0,0.0,0.0,0.0,-1.5053,-1.5279,-1.5663,0.0,-1.7183,0.0,-1.9289,-1.9248,-1.9387,0.0,-2.0331,-2.0981,-2.2178,-2.2579,-2.3038,-2.358,-2.3595,-2.3595,-2.3595,-2.3595,-2.3595,-2.3595,-2.3595,-2.3595,-2.3595,-2.3595,-2.3295,-2.2817,0.0,-2.3939,-2.3819,-2.4388,-2.5016,-2.551,-2.4552,-2.4313,-2.4507,-2.3849,-2.3595,-2.3595,0.0,0.0,0.0,0.0,0.0,0.0,0.0,0.0,0.0,0.0,0.0464,0.039,0.0,0.0,0.0,0.0,0.0,0.0,0.0,0.0,0.0,-0.1289,-0.1617,-0.1803,-0.1803,-0.1913,-0.1916,-0.1803,-0.202,-0.2016,-0.1809,-0.201,-0.1993,-0.1813,-0.2013,-0.2134,-0.215,-0.215,-0.215,-0.214,-0.2006,-0.1899,-0.1803,0.0,0.0,0.0,0.0,0.0,0.0,0.0,-0.5036,-0.5504,-0.6466,-0.6794,-0.7034,-0.8116,-0.8976,-1.0033,-1.189,-1.2952,-1.3659,-1.3981,-1.3985,-1.3564,-1.2047,-1.1557,-1.1035,-0.9768,0.0,-0.9308,-0.8921,-0.9206,-1.0003,-1.1467,0.0,-1.3019,-1.445,-1.5316,-1.5982,-1.6459,-1.7099,-1.7944,-1.9021,-1.8614,-1.8982,-2.0694,-2.0166,-2.0367,-2.1636,-2.1772,-2.2396,-2.358,-2.3508,-2.3508,-2.3595,-2.3684,-2.3684,-2.3595,-2.3684,-2.3684,-2.3595,-2.3595,-2.2996,-2.2054,-2.3849,0.0,-2.3161,-2.4388,-2.527,-2.5749,-2.4492,-2.4313,-2.4627,-2.3984,-2.3684,-2.3595,0.0,0.0,0.0,0.0,0.0,0.0,0.0,0.0,0.0,0.0,0.0787,0.0637,0.0,0.0,0.0,0.0,0.0,0.0,0.0,0.0,0.0,0.0,-0.1631,-0.1803,-0.1803,-0.183,-0.183,-0.1803,0.0,-0.1858,-0.1803,-0.1737,-0.1741,-0.1799,-0.1737,-0.1772,-0.1862,-0.1862,-0.1862,-0.1859,-0.1854,-0.1827,-0.1803,0.0,0.0,0.0,0.0,0.0,0.0,0.0,-0.5163,-0.5878,-0.7261,-0.7862,-0.815,-0.8604,-0.9653,-1.0695,-1.1099,-1.2347,-1.3609,-1.3659,-1.3393,-1.292,-1.2266,-1.1279,0.0,0.0,-0.8838,-0.8587,-0.8493,-0.9084,-0.9942,-1.1035,-1.2263,0.0,0.0,0.0,-1.6409,0.0,0.0,0.0,0.0,0.0,0.0,0.0,0.0,-2.0368,-2.1625,-2.2224,-2.2863,-2.3595,-2.3113,-2.3113,-2.361,-2.4163,-2.4163,-2.361,-2.4178,-2.4148,-2.3595,-2.3595,-2.3475,-2.3325,-2.4194,0.0,-2.5166,-2.5929,-2.6632,-2.7156,-2.6378,-2.5809,-2.536,-2.4642,-2.4088,-2.3595,0.0,0.0,0.0,0.0,0.0,0.0,0.0,0.1136,0.1033,0.1097,0.0924,0.0807,0.0807,0.0659,0.0502,0.0,0.0,0.0,0.0,0.0,0.0,0.0,0.0,0.0,0.0,0.0,0.0,0.0,0.0,0.0,0.0,0.0,0.0,0.0,0.0,0.0,-0.1441,-0.1703,-0.1803,-0.1803,0.0,0.0,0.0,0.0,0.0,0.0,0.0,0.0,0.0,0.0,-0.466,-0.5338,-0.7131,-0.8003,-0.843,-0.8717,-0.9487,-1.0351,-1.0793,-1.166,-1.2414,-1.2487,-1.2418,-1.2014,-1.0932,0.0,0.0,0.0,-0.8174,-0.8037,-0.8037,-0.8527,0.0,-1.0945,-1.1926,0.0,0.0,0.0,0.0,0.0,0.0,0.0,0.0,0.0,0.0,0.0,0.0,-2.0073,-2.1635,-2.1993,-2.2331,-2.2606,-2.268,-2.2989,-2.3656,-2.4268,-2.4627,-2.4642,-2.4986,-2.4956,-2.4642,-2.4298,-2.4328,-2.4657,-2.5001,0.0,-2.5181,-2.6183,-2.6572,-2.6482,-2.5824,-2.5585,-2.5495,-2.4477,-2.3879,-2.3655,0.0,0.0,0.0,0.0,0.0,0.0,0.1412,0.126,0.1158,0.1185,0.107,0.0976,0.0943,0.0818,0.0729,0.0,0.0,0.0,0.0,0.0,0.0,0.0,0.0,0.0,0.0,0.0,0.0,0.0,0.0,0.0,0.0,0.0,0.0,0.0,0.0,0.0,0.0,0.0,-0.1698,0.0,0.0,0.0,0.0,0.0,0.0,0.0,0.0,0.0,0.0,0.0,-0.4037,-0.4605,-0.6357,-0.741,-0.8076,-0.8497,-0.8991,-0.9608,-1.04,-1.087,-1.1115,-1.1237,-1.1328,-1.0983,-0.9611,-0.9278,0.0,-0.7933,-0.7704,-0.7725,-0.7822,-0.8176,-0.9025,0.0,-1.1269,-1.2193,0.0,0.0,0.0,0.0,0.0,0.0,0.0,0.0,0.0,0.0,0.0,0.0,-2.1588,-2.1444,-2.1479,-2.1904,-2.2137,-2.2601,-2.3273,-2.3999,-2.4584,-2.4938,-2.5217,-2.5276,-2.5129,-2.4567,-2.4646,-2.5171,-2.5438,0.0,0.0,-2.6138,-2.6333,-2.557,-2.5196,-2.536,-2.5659,-2.4313,-2.3821,-2.3867,0.0,0.0,0.0,0.0,0.0,0.0,0.1725,0.149,0.1325,0.1454,0.1349,0.1215,0.1101,0.0962,0.0832,0.0,0.0,0.0,0.0,0.0,0.0,0.0,0.0,0.0,0.0,0.0,0.0,0.0,0.0,0.0,0.0,0.0,0.0,0.0,0.0,0.0,0.0,0.0,0.0,0.0,0.0,0.0,0.0,0.0,0.0,0.0,0.0,0.0,0.0,0.0,0.0,-0.4165,-0.4833,-0.5834,-0.6921,-0.7762,0.0,0.0,-0.9579,-1.0108,-1.0382,-1.0431,-1.015,-0.9806,-0.9391,0.0,-0.8225,-0.7862,-0.7755,-0.7812,-0.8252,-0.8705,-0.9181,-0.9689,0.0,-1.1108,0.0,0.0,0.0,0.0,0.0,0.0,0.0,0.0,0.0,0.0,0.0,0.0,-2.1548,-2.0566,-2.0768,-2.244,-2.1507,-2.1286,-2.1888,-2.3089,-2.3409,-2.2895,-2.4007,-2.4191,-2.3598,-2.3543,-2.3603,-2.3741,-2.499,0.0,0.0,-2.6437,-2.6737,-2.5659,-2.6198,-2.6437,-2.6348,-2.5016,-2.4467,-2.4346,0.0,0.0,0.0,0.0,0.0,0.0,0.179,0.1587,0.1437,0.1493,0.1385,0.128,0.1226,0.1171,0.105,0.084,0.0,0.0,0.0,0.0,0.0,0.0,0.0,0.0,0.0,0.0,-0.0906,-0.0752,0.0,0.0,0.0,0.0,0.0,0.0,0.0,0.0,0.0,0.0,0.0,0.0,0.0,0.0,0.0,0.0,0.0,0.0,0.0,0.0,0.0,0.0,0.0,0.0,-0.3604,-0.4211,0.0,0.0,-0.7455,-0.8183,-0.853,-0.9138,-0.9582,-0.9218,-0.9136,-0.8913,-0.8198,0.0,-0.774,-0.7445,-0.7366,-0.7459,-0.7889,-0.8129,-0.847,0.0,0.0,0.0,-1.2295,0.0,0.0,0.0,0.0,0.0,0.0,0.0,0.0,0.0,0.0,0.0,-2.1027,-2.0256,-2.0144,-2.091,-2.1143,-2.1462,-2.1736,-2.3286,-2.3989,-2.3741,-2.4611,-2.4846,-2.4584,-2.3854,-2.3955,-2.4609,-2.446,0.0,0.0,-2.5383,-2.5568,-2.4487,-2.4725,-2.5084,-2.5267,-2.3931,-2.3425,-2.3442,0.0,0.0,0.0,0.0,0.0,0.1844,0.1803,0.1677,0.1622,0.1701,0.1559,0.147,0.1507,0.142,0.1269,0.1043,0.0984,0.0,0.0,0.0,0.0,0.0,0.0,0.0,0.0,0.0,-0.0536,-0.0335,-0.0447,-0.0406,0.0,0.0,0.0,0.0,0.0,0.0,0.0,0.0,0.0,0.0,0.0,0.0,0.0,0.0,0.0,0.0,0.0,0.0,0.0,0.0,0.0,0.0,0.0,0.0,0.0,0.0,-0.648,-0.7284,-0.755,-0.8127,-0.8637,-0.8323,-0.8221,-0.7989,0.0,0.0,-0.7111,-0.6797,-0.6841,-0.7059,-0.7442,-0.753,-0.7822,0.0,0.0,-0.9784,-1.1903,-1.2296,0.0,0.0,0.0,0.0,0.0,0.0,0.0,0.0,0.0,0.0,0.0,-2.0024,-1.9874,-2.0049,-2.0733,-2.1095,-2.1198,-2.2751,-2.346,-2.3406,-2.4148,-2.4431,-2.4229,-2.3353,-2.3433,-2.4232,-2.3755,0.0,0.0,-2.4362,-2.4455,-2.3387,-2.3348,-2.3764,-2.4212,-2.2908,-2.2476,-2.2752,0.0,0.0,0.0,0.0,0.0,0.1958,0.1813,0.1792,0.189,0.2157,0.1954,0.1841,0.1976,0.1697,0.1448,0.1302,0.1177,0.0,0.0,0.0,0.0,0.0,0.0,0.0,0.0,0.0,-0.0073,-0.0196,-0.0534,-0.0761,-0.0881,-0.0759,-0.0688,0.0,0.0,0.0,0.0,0.0,0.0,0.0,0.0,0.0,0.0,0.0,0.0,0.0,0.0,0.0,0.0,0.0,0.0,0.0,0.0,-0.2437,-0.2994,0.0,-0.5239,-0.5925,-0.6753,-0.7255,-0.76,-0.7862,-0.7482,-0.6954,0.0,0.0,-0.6245,-0.5981,-0.6213,-0.6639,-0.702,-0.7118,-0.7405,-0.8269,-0.873,0.0,-1.1015,0.0,0.0,0.0,0.0,0.0,0.0,0.0,0.0,0.0,0.0,0.0,0.0,-1.9798,-2.0062,-2.0693,-2.0112,-1.9811,-1.9811,-2.0983,-2.1272,-2.0743,-2.1794,-2.2033,-2.1562,-2.1549,-2.1549,0.0,0.0,0.0,0.0,-2.3713,-2.3741,-2.26,-2.2699,-2.3123,-2.3548,-2.2201,-2.2088,-2.2578,0.0,0.0,0.0,0.0,0.0,0.0,0.237,0.2119,0.1932,0.1922,0.1854,0.1822,0.1861,0.1767,0.1634,0.1448,0.1227,0.0,0.0,0.0,0.0,0.0,0.0,0.0,0.0,0.039,0.0251,0.0204,0.0012,-0.0111,-0.0154,-0.0196,-0.0216,-0.0216,-0.0108,0.0,0.0,0.0,0.0,0.0,0.0,0.0,0.0,0.0,0.0,0.0,0.0,0.0,0.0,0.0,0.0,0.0,0.0,0.0,0.0,-0.3166,-0.3914,-0.4632,-0.5096,-0.5726,-0.6297,-0.6352,-0.6409,-0.6353,-0.6059,-0.595,-0.5886,-0.5887,-0.6006,-0.6213,-0.6601,-0.6901,-0.7284,-0.788,-0.8565,0.0,0.0,0.0,0.0,0.0,0.0,0.0,0.0,0.0,0.0,0.0,0.0,0.0,0.0,-1.9798,-1.9886,-2.0075,-2.0288,-2.02,-1.9798,-2.0928,-2.1393,-2.123,-2.1581,-2.1656,-2.1481,-2.1104,-2.099,0.0,0.0,0.0,0.0,-2.2042,-2.2299,-2.2011,-2.1511,-2.1772,-2.2288,-2.1408,-2.1419,-2.1928,0.0,0.0,0.0,0.0,0.0,0.0,0.2715,0.2467,0.2235,0.2047,0.1936,0.1897,0.1949,0.186,0.175,0.1624,0.1389,0.0,0.0,0.0,0.0,0.0,0.0,0.0,0.0773,0.0604,0.0513,0.0513,0.0324,0.0256,0.0267,0.0089,0.0022,0.0078,0.0022,0.0,0.0,0.0,0.0,0.0,0.0,0.0,-0.0379,0.0,0.0,0.0,0.0,0.0,0.0,0.0,0.0,0.0,0.0,0.0,0.0,0.0,-0.275,-0.3304,-0.3906,-0.4574,-0.5157,-0.5257,-0.554,-0.5724,-0.551,0.0,-0.5564,-0.5652,-0.5765,-0.5904,-0.6206,-0.6564,-0.6969,-0.7467,-0.8505,0.0,0.0,0.0,0.0,0.0,0.0,0.0,0.0,0.0,0.0,0.0,0.0,0.0,0.0,-1.9643,-1.9798,-1.9798,-2.015,-2.0162,-1.9798,-2.0715,-2.1066,-2.0853,-2.1079,-2.1066,-2.084,-2.0489,-2.0338,0.0,0.0,0.0,0.0,-2.1041,-2.1278,-2.129,-2.0625,-2.0628,-2.0978,-2.0576,-2.0744,-2.1259,0.0,0.0,0.0,0.0,0.0,0.0,0.0,0.2817,0.2674,0.2419,0.216,0.2059,0.2175,0.1963,0.1803,0.1803,0.1624,0.0,0.0,0.0,0.0,0.0,0.0,0.0,0.0899,0.0773,0.0718,0.0718,0.0457,0.0354,0.0414,0.0154,0.009,0.0193,0.0068,0.0011,0.0,0.0,0.0,0.0,0.0,-0.0153,0.0,0.0,0.0,0.0,0.0,0.0,0.0,0.0,0.0,0.0,0.0,0.0,0.0,0.0,0.0,0.0,0.0,-0.3724,-0.4124,-0.4424,-0.4739,-0.5003,-0.5055,0.0,0.0,-0.5311,-0.5524,-0.5726,-0.5853,-0.6116,-0.6492,-0.6976,0.0,0.0,0.0,0.0,0.0,0.0,0.0,0.0,0.0,0.0,0.0,0.0,0.0,0.0,-1.8667,-1.9294,-1.9695,-1.9798,-1.9695,-1.9695,-1.9798,-2.0338,-2.0338,-1.9811,-2.0351,-2.03,-1.9748,-1.9786,-1.9786,0.0,0.0,0.0,0.0,-2.0655,-2.0655,-2.0605,-2.0012,-1.9798,-1.9811,-1.9849,-2.0225,-2.0857,0.0,0.0,0.0,0.0,0.0,0.0,0.0,0.0,0.0,0.0,0.2194,0.2126,0.2052,0.1993,0.1917,0.0,0.0,0.0,0.0,0.0,0.0,0.0,0.0,0.0,0.0899,0.0865,0.0854,0.0854,0.0682,0.0592,0.0547,0.038,0.0274,0.0199,0.0173,0.0099,0.0,0.0,0.0,0.0,0.0,-0.0041,0.0,0.0,0.0,0.0,-0.0446,-0.0557,0.0,0.0,0.0,0.0,0.0,0.0,0.0,0.0,-0.1803,-0.1864,-0.2119,0.0,-0.2901,-0.3212,-0.3585,-0.4029,0.0,-0.474,0.0,0.0,0.0,0.0,0.0,0.0,0.0,0.0,0.0,0.0,0.0,0.0,0.0,0.0,0.0,0.0,0.0,0.0,0.0,0.0,0.0,-1.7367,-1.8207,-1.8183,-1.8608,-1.9747,-1.8715,-1.8661,-1.9798,-1.9936,-1.9936,-1.9798,-1.9936,-1.9723,-1.9221,-1.9623,-1.9585,0.0,0.0,0.0,-2.0012,-2.0012,-2.0012,-1.9987,-1.9861,-1.9798,-1.9861,-2.03,-2.0815,-2.1317,0.0,0.0,0.0,0.0,0.0,0.0,0.0,0.0,0.0,0.0,0.2453,0.2451,0.2128,0.2257,0.2234,0.0,0.0,0.0,0.0,0.0,0.0,0.0,0.0,0.1068,0.0995,0.0932,0.0899,0.0899,0.0734,0.0688,0.0734,0.048,0.0331,0.028,0.0164,0.0061,0.0,0.0,0.0,0.0,0.0,0.0,0.0,0.0,0.0,0.0,-0.0312,-0.0401,0.0,-0.0781,-0.1005,-0.1139,0.0,0.0,0.0,0.0,-0.1803,-0.1803,-0.1803,-0.2039,-0.2385,-0.266,-0.3069,-0.3537,-0.4018,0.0,0.0,0.0,0.0,0.0,0.0,0.0,0.0,0.0,0.0,0.0,0.0,0.0,0.0,0.0,0.0,0.0,0.0,0.0,0.0,0.0,0.0,-1.6579,-1.7348,-1.7179,-1.7599,-1.8756,-1.7686,-1.7926,-1.9798,-1.9475,-1.9228,-1.9083,-1.956,-1.9258,-1.8304,-1.9334,-1.9371,0.0,0.0,0.0,-1.9447,-1.9447,-1.9585,-1.9798,-1.9798,-1.9798,-1.9836,-2.0162,-2.079,-2.1455,0.0,0.0,0.0,0.0,0.0,0.0,0.0,0.0,0.0,0.0,0.0,0.0,0.0,0.0,0.0,0.0,0.0,0.0,0.0,0.0,0.0,0.0,0.1243,0.1151,0.1129,0.1021,0.0945,0.0899,0.075,0.0753,0.0891,0.0546,0.0402,0.0391,0.0112,0.0,0.0,0.0,0.0,0.0,0.0,0.0,0.0,0.0,0.0,0.0,0.0,0.0,0.0,-0.0659,-0.0795,-0.0868,-0.1101,0.0,0.0,0.0,0.0,0.0,-0.1781,-0.2004,-0.2244,-0.2448,-0.2845,-0.3278,-0.3537,0.0,0.0,0.0,0.0,0.0,0.0,0.0,0.0,0.0,0.0,0.0,0.0,0.0,0.0,0.0,0.0,0.0,0.0,0.0,0.0,0.0,0.0,-1.58,-1.6252,-1.6114,-1.6465,-1.7386,-1.6521,-1.7093,-1.928,-1.8646,-1.8214,-1.7918,-1.8908,-1.8672,-1.7401,-1.887,-1.9058,-1.8242,0.0,0.0,-1.892,-1.9033,-1.9359,-1.9698,-1.9773,-1.9798,-1.9811,-1.9899,-2.0539,-2.1292,0.0,0.0,0.0,0.0,0.0,0.0,0.0,0.0,0.0,0.0,0.0,0.0,0.0,0.0,0.0,0.0,0.0,0.0,0.0,0.0,0.0,0.1725,0.1539,0.1384,0.1269,0.1243,0.1125,0.0899,0.0987,0.0987,0.0899,0.0837,0.0656,0.0394,0.0117,0.0,0.0,0.0,0.0,0.0,0.0,0.0,0.0,0.0,0.0,0.0,0.0,0.0,0.0,-0.0123,-0.0295,-0.0484,-0.0534,0.0,0.0,0.0,0.0,0.0,-0.1718,-0.2004,-0.2244,-0.2448,-0.2663,-0.2918,-0.3467,0.0,0.0,0.0,0.0,0.0,0.0,0.0,0.0,0.0,0.0,0.0,0.0,0.0,0.0,0.0,0.0,0.0,0.0,0.0,0.0,0.0,0.0,0.0,-1.5342,-1.4818,-1.5123,-1.6514,-1.5185,-1.5227,-1.6931,-1.683,-1.6699,-1.6539,-1.7286,-1.7484,-1.7159,-1.8078,-1.8355,-1.8242,0.0,-1.8769,-1.8405,-1.9309,-1.9472,-1.9196,-1.9623,-1.9798,-1.9861,-2.0351,-2.0639,-2.0832,0.0,0.0,0.0,0.0,0.0,0.0,0.0,0.0,0.0,0.0,0.0,0.0,0.0,0.0,0.0,0.0,0.0,0.0,0.0,0.0,0.1792,0.1792,0.1708,0.1587,0.1405,0.1408,0.1298,0.1061,0.1011,0.0963,0.0902,0.0901,0.0689,0.0294,0.0232,0.0138,0.0,0.0,0.0,0.0,0.0,0.0,0.0,0.0,0.0,0.0,0.0,0.0,0.0,0.0,-0.0083,-0.0199,-0.0364,0.0,0.0,0.0,0.0,0.0,-0.1449,-0.1702,-0.1995,-0.25,-0.2661,-0.2829,-0.3335,-0.3183,0.0,0.0,0.0,0.0,0.0,0.0,0.0,0.0,0.0,0.0,0.0,0.0,0.0,0.0,0.0,0.0,0.0,0.0,0.0,0.0,0.0,0.0,-1.4568,-1.3846,-1.3961,-1.5102,-1.4042,-1.3912,-1.4797,-1.4616,-1.4822,-1.5392,-1.6374,-1.6309,-1.5418,-1.6657,-1.7075,-1.6834,0.0,-1.7671,-1.7802,-1.8292,-1.8706,-1.8995,-1.8843,-1.8946,-1.9275,-1.989,-1.9902,-1.9736,0.0,0.0,0.0,0.0,0.0,0.0,0.0,0.0,0.0,0.0,0.0,0.0,0.0,0.0,0.0,0.0,0.0,0.0,0.0,0.1813,0.1826,0.1895,0.1902,0.1791,0.1577,0.1567,0.1471,0.1275,0.1117,0.0989,0.0906,0.0901,0.07,0.0361,0.0479,0.0401,0.0204,0.0131,0.0086,0.0081,0.0,0.0,0.0,0.0,0.0,0.0,0.0,0.0,0.0,0.0,0.0,0.0,0.0,0.0,0.0,-0.0686,-0.0781,-0.0847,-0.1139,-0.1396,-0.1755,-0.2326,-0.2542,-0.2713,-0.3192,-0.3002,0.0,0.0,0.0,0.0,0.0,0.0,0.0,0.0,0.0,0.0,0.0,0.0,0.0,0.0,0.0,0.0,0.0,0.0,0.0,0.0,0.0,0.0,-1.3912,-1.3281,-1.3174,-1.3818,-1.3213,-1.3037,-1.3359,-1.3037,-1.3385,-1.4421,-1.5344,-1.5171,-1.407,-1.5381,-1.5761,-1.5433,-1.595,-1.6417,-1.6769,-1.7085,-1.7554,-1.8142,-1.7796,-1.799,-1.8494,-1.8959,-1.8854,-1.8614,0.0,0.0,0.0,0.0,0.0,0.0,0.0,0.0,0.0,0.0,0.0,0.0,0.0,0.0,0.0,0.0,0.0,0.0,0.0,0.1865,0.1904,0.2157,0.2171,0.2055,0.1778,0.1778,0.1683,0.1475,0.1463,0.1265,0.0902,0.0904,0.088,0.0848,0.0867,0.0844,0.0819,0.0511,0.0377,0.0353,0.0089,0.0,0.0,0.0,0.0,0.0,0.0,0.0,0.0,0.0,0.0,0.0,0.0,0.0,-0.0081,-0.0348,-0.0446,-0.0512,-0.0847,-0.1253,-0.1636,-0.183,-0.2041,0.0,-0.3145,-0.3002,0.0,-0.3256,0.0,0.0,0.0,0.0,0.0,0.0,0.0,0.0,0.0,0.0,0.0,0.0,0.0,0.0,0.0,0.0,0.0,0.0,0.0,0.0,-1.3474,-1.3125,-1.291,-1.2969,-1.291,-1.29,-1.293,-1.29,-1.3126,-1.3599,-1.3869,-1.4137,-1.4384,-1.4675,-1.4811,-1.4777,-1.5319,-1.5321,-1.4971,-1.6055,-1.6204,-1.5822,-1.6712,-1.7314,-1.7688,-1.7733,-1.771,-1.7688,0.0,0.0,0.0,0.0,0.0,0.0,0.0,0.0,0.0,0.0,0.0,0.4106,0.4352,0.0,0.0,0.0,0.0,0.0,0.0,0.2264,0.2171,0.2429,0.213,0.2062,0.2291,0.209,0.1882,0.1687,0.1101,0.0842,0.0906,0.1072,0.1059,0.0907,0.1074,0.1061,0.0892,0.0758,0.0601,0.0401,0.0513,0.0336,0.0,0.0,0.0,0.0,0.0,0.0,0.0,0.0,0.0,0.0,0.0,0.0,-0.0022,-0.0111,-0.0157,-0.0224,-0.0512,-0.0923,-0.1316,-0.1442,-0.184,0.0,0.0,-0.3105,-0.3083,-0.3531,-0.3859,0.0,0.0,0.0,0.0,0.0,0.0,0.0,0.0,0.0,0.0,0.0,0.0,0.0,0.0,0.0,0.0,0.0,0.0,0.0,0.0,-1.232,-1.2452,-1.2881,-1.2881,-1.2881,-1.2881,-1.2881,-1.2959,-1.3115,-1.3183,-1.3329,-1.3479,-1.3549,-1.3789,-1.4154,-1.4327,-1.4551,-1.4731,-1.5159,-1.5384,-1.5527,-1.6099,-1.6284,-1.6301,-1.6754,-1.6922,-1.6978,0.0,0.0,0.0,0.0,0.0,0.0,0.0,0.0,0.4244,0.0,0.0,0.0,0.0,0.4585,0.0,0.0,0.0,0.0,0.303,0.2663,0.2539,0.2746,0.2305,0.2231,0.2591,0.2313,0.1984,0.1607,0.0971,0.0735,0.0906,0.1139,0.114,0.0972,0.1267,0.129,0.1117,0.106,0.0892,0.069,0.0847,0.0648,0.0,0.0,0.0,0.0,0.0,0.0,0.0,0.0,0.0,0.0,0.0,0.0,0.0,0.0,0.0,-0.0068,-0.0415,-0.0676,-0.0988,0.0,0.0,0.0,-0.3212,-0.3226,-0.3236,-0.3643,-0.3991,0.0,0.0,0.0,0.0,0.0,0.0,0.0,0.0,0.0,0.0,0.0,0.0,0.0,0.0,0.0,0.0,0.0,0.0,0.0,0.0,-1.1665,-1.203,-1.2559,-1.2774,-1.2881,-1.2881,-1.2881,-1.2881,-1.2881,-1.2881,-1.2881,-1.2881,-1.2881,-1.3152,-1.3505,-1.3505,-1.3742,-1.4107,-1.4107,-1.4434,-1.4892,-1.5216,-1.5169,-1.5096,-1.5877,-1.6058,-1.6069,0.0,0.0,0.0,0.0,0.0,0.0,0.0,0.0,0.4658,0.5059,0.4748,0.0,0.0,0.0,0.0,0.0,0.0,0.0,0.303,0.2999,0.3036,0.3098,0.2772,0.2604,0.2611,0.2416,0.1939,0.1204,0.1207,0.1094,0.0902,0.1032,0.1099,0.1112,0.1452,0.1613,0.158,0.1384,0.1299,0.1274,0.1005,0.0914,0.0892,0.0,0.0,0.0,0.0,0.0,0.0,0.0,0.0,0.0,0.0,0.0,0.0,0.0,0.0,-0.0092,-0.0566,-0.0553,0.0,0.0,0.0,0.0,-0.3318,-0.3341,-0.3212,-0.352,0.0,-0.4489,0.0,0.0,0.0,0.0,0.0,0.0,0.0,0.0,0.0,0.0,0.0,0.0,0.0,0.0,0.0,0.0,0.0,0.0,0.0,-1.1416,-1.1765,-1.1814,-1.251,-1.2881,-1.2881,-1.2881,-1.2881,-1.2881,-1.2881,-1.2881,-1.2881,-1.2881,-1.2881,-1.2881,-1.2881,-1.2881,-1.2881,-1.2881,-1.3125,-1.3545,-1.3965,-1.4077,-1.4184,-1.5088,-1.5137,-1.4834,0.0,0.0,0.0,0.0,0.0,0.0,0.0,0.0,0.5188,0.5117,0.5001,0.0,0.0,0.0,0.0,0.0,0.0,0.0,0.381,0.3377,0.3167,0.3238,0.2731,0.2713,0.3214,0.2988,0.2386,0.1405,0.1411,0.1285,0.1043,0.1182,0.124,0.1254,0.1584,0.1741,0.1751,0.1786,0.1602,0.1321,0.1471,0.1269,0.0914,0.0,0.0,0.0,0.0,0.0,0.0,0.0,0.0,0.0,0.0,0.0,0.0,0.0,0.0,-0.0023,-0.0173,-0.0601,0.0,-0.1082,0.0,0.0,0.0,-0.2954,0.0,0.0,0.0,0.0,0.0,0.0,0.0,0.0,0.0,0.0,0.0,0.0,0.0,0.0,0.0,0.0,0.0,0.0,0.0,0.0,0.0,0.0,0.0,-1.0269,-1.0618,-1.1065,-1.1325,-1.1434,-1.1434,-1.1882,-1.2129,-1.2129,-1.2666,-1.2881,-1.2881,-1.2881,-1.2881,-1.2881,-1.2881,-1.2881,-1.2881,-1.2881,-1.3125,-1.3516,-1.3643,-1.3877,-1.4107,-1.436,-1.4434,-1.4346,0.0,0.0,0.0,0.0,0.0,0.0,0.5646,0.5568,0.5454,0.5272,0.5166,0.5108,0.0,0.0,0.0,0.0,0.0,0.0,0.4355,0.4,0.3763,0.3709,0.3346,0.3268,0.35,0.2999,0.248,0.1933,0.189,0.1696,0.1382,0.1379,0.1319,0.1228,0.1425,0.155,0.1614,0.177,0.1702,0.1519,0.1718,0.1579,0.1269,0.0,0.0,0.0,0.0,0.0,0.0,0.0,0.0,0.0,0.0022,0.0,0.0,0.0,0.0,-0.0048,-0.0214,0.0,0.0,-0.1309,-0.1917,-0.246,-0.2709,0.0,0.0,0.0,0.0,0.0,0.0,0.0,0.0,0.0,0.0,0.0,0.0,0.0,0.0,0.0,0.0,0.0,0.0,0.0,0.0,0.0,0.0,0.0,0.0,-0.9666,-0.9961,-1.0364,-1.0661,-1.0813,-1.0813,-1.1216,-1.1416,-1.1416,-1.2138,-1.2452,-1.2452,-1.2774,-1.2881,-1.2881,-1.2881,-1.2881,-1.2881,-1.2881,-1.3027,-1.3271,-1.3447,-1.3555,-1.3682,-1.3951,-1.397,-1.3906,0.0,0.0,0.6517,0.6271,0.0,0.0,0.5954,0.5726,0.5539,0.5511,0.5291,0.5127,0.0,0.0,0.0,0.5108,0.5108,0.4972,0.47,0.4681,0.4554,0.4304,0.4277,0.4047,0.3553,0.274,0.243,0.2683,0.2508,0.2208,0.1817,0.1637,0.1401,0.1119,0.1145,0.1228,0.1336,0.154,0.1696,0.1803,0.1803,0.1803,0.1803,0.1803,0.0,0.0,0.0,0.0,0.0,0.0,0.0,0.0,0.0157,0.0071,0.0025,0.0046,0.0024,-0.0104,-0.0533,0.0,0.0,-0.1958,0.0,0.0,0.0,0.0,0.0,0.0,0.0,0.0,0.0,0.0,0.0,0.0,0.0,0.0,0.0,0.0,0.0,0.0,0.0,0.0,0.0,0.0,0.0,0.0,0.0,0.0,0.0,-0.9361,-0.9718,-0.9718,-1.0312,-1.0618,-1.0618,-1.0661,-1.072,-1.0712,-1.1366,-1.1715,-1.1715,-1.2559,-1.2881,-1.2881,-1.2881,-1.2881,-1.2881,-1.2881,-1.2881,-1.292,-1.3301,-1.3213,-1.2969,-1.374,-1.3779,-1.3506,0.0,0.0,0.6582,0.6517,0.0,0.0,0.6165,0.6094,0.5925,0.5549,0.5454,0.533,0.5127,0.5108,0.0,0.5108,0.5108,0.4934,0.457,0.4551,0.4417,0.4149,0.4047,0.3935,0.3807,0.3418,0.3254,0.33,0.2794,0.2351,0.1952,0.191,0.1667,0.1265,0.1529,0.1614,0.1555,0.1801,0.1865,0.1803,0.1803,0.1803,0.1803,0.1803,0.1759,0.0,0.0,0.0,0.0,0.0,0.0,0.0,0.0715,0.052,0.0324,0.0315,0.0174,-0.0026,-0.0112,-0.0357,0.0,0.0,0.0,0.0,0.0,0.0,0.0,0.0,0.0,0.0,0.0,0.0,0.0,0.0,0.0,0.0,0.0,0.0,0.0,0.0,0.0,0.0,0.0,0.0,0.0,0.0,0.0,0.0,-0.8804,-0.8956,-0.9008,-0.9008,-0.9159,-0.9211,-0.9211,-0.9762,-1.0012,0.0,-1.0712,-1.1015,-1.1065,-1.2304,-1.2881,-1.2881,-1.2881,-1.2881,-1.2881,-1.2881,-1.2881,-1.2891,-1.2978,-1.2959,-1.29,-1.3086,-1.3096,-1.3027,0.0,0.0,0.0,0.0,0.0,0.0,0.0,0.0,0.5789,0.553,0.5387,0.5253,0.5108,0.5108,0.0,0.0,0.5108,0.502,0.4796,0.4787,0.4668,0.4391,0.4069,0.3905,0.3903,0.3508,0.3366,0.3506,0.3184,0.277,0.2287,0.2156,0.182,0.131,0.1414,0.1456,0.1475,0.1703,0.1775,0.1706,0.1775,0.1761,0.171,0.1779,0.1803,0.1803,0.1803,0.0,0.0,0.0,0.0,0.0,0.0,0.0,0.0638,0.0642,0.0416,0.0179,0.0,0.0,0.0,0.0,0.0,0.0,0.0,0.0,0.0,0.0,0.0,0.0,0.0,0.0,0.0,0.0,0.0,0.0,0.0,0.0,0.0,0.0,0.0,0.0,0.0,0.0,0.0,0.0,0.0,-0.8262,-0.8262,-0.8593,-0.8804,-0.8804,-0.8804,-0.8804,-0.8804,-0.9159,-0.9309,-0.9316,-1.0012,-1.0466,-1.0813,-1.1584,-1.2098,-1.2344,-1.2344,-1.2559,-1.2881,-1.251,-1.2559,-1.2871,-1.2501,-1.2344,-1.2403,-1.2774,-1.2666,-1.2403,0.0,0.0,0.0,0.0,0.0,0.0,0.0,0.0,0.0,0.5511,0.531,0.5146,0.5108,0.5108,0.5108,0.0,0.0,0.0,0.5108,0.5108,0.501,0.4765,0.4289,0.4009,0.3965,0.3483,0.3326,0.3506,0.3559,0.3333,0.2845,0.249,0.2019,0.1479,0.1321,0.1285,0.1373,0.1562,0.1627,0.1638,0.1755,0.1734,0.1641,0.1758,0.1803,0.1803,0.1803,0.1803,0.1759,0.1474,0.0,0.0,0.0,0.0,0.0974,0.0979,0.0733,0.0484,0.0,0.0,-0.0065,0.0,0.0,0.0,0.0,0.0,0.0,0.0,0.0,0.0,0.0,0.0,0.0,0.0,0.0,0.0,0.0,0.0,0.0,0.0,0.0,0.0,0.0,0.0,0.0,0.0,0.0,-0.7503,-0.7503,-0.8209,-0.8593,-0.8593,-0.8752,-0.8804,-0.8804,-0.8804,-0.8804,-0.8811,-0.9361,-0.9917,-1.0466,-1.0466,-1.0864,-1.1616,-1.1616,-1.1981,-1.251,-1.1873,-1.199,-1.2461,-1.1882,-1.1616,-1.1715,-1.2304,-1.2246,-1.1873,0.0,0.0,0.0,0.0,0.0,0.0,0.0,0.0,0.0,0.0,0.5473,0.5349,0.5127,0.5108,0.5108,0.5108,0.5108,0.5108,0.5108,0.0,0.0,0.5049,0.4759,0.4475,0.4252,0.3948,0.3709,0.3506,0.3788,0.3898,0.3788,0.3126,0.2598,0.2242,0.1989,0.176,0.1569,0.1713,0.1775,0.1775,0.1796,0.1792,0.1779,0.1796,0.1803,0.1803,0.1803,0.1803,0.1803,0.1736,0.1736,0.0,0.0,0.0,0.1248,0.1257,0.1043,0.0832,0.0,0.0,0.0,0.0,0.0,0.0,0.0,0.0,0.0,0.0,0.0,0.0,0.0,0.0,0.0,0.0,0.0,0.0,0.0,0.0,0.0,0.0,0.0,0.0,0.0,0.0,0.0,0.0,-0.6696,-0.675,-0.675,-0.745,-0.783,-0.783,-0.848,-0.8804,-0.8804,-0.8804,-0.8804,-0.8804,-0.891,-0.8956,-0.9061,-0.9061,-0.9769,-1.0914,-1.0914,-1.0965,-1.1074,-1.0965,-1.0965,-1.1074,-1.0965,-1.0914,-1.0965,-1.1015,-1.1366,-1.1814,0.0,0.0,0.0,0.0,0.0,0.0,0.0,0.0,0.0,0.0,0.0,0.5614,0.5349,0.533,0.533,0.533,0.5195,0.5108,0.5108,0.5108,0.503,0.4893,0.4765,0.4567,0.4313,0.4027,0.3848,0.3731,0.3912,0.416,0.4429,0.4044,0.3422,0.2676,0.2627,0.232,0.1831,0.1883,0.1919,0.1904,0.1833,0.1682,0.1534,0.172,0.1803,0.1813,0.1879,0.1909,0.1909,0.1909,0.1852,0.1803,0.1803,0.0,0.0,0.0,0.1374,0.0,0.0705,0.0,0.0,0.0,0.0,0.0,0.0,0.0,0.0,0.0,0.0,0.0,0.0,0.0,0.0,0.0,0.0,0.0,0.0,0.0,0.0,0.0,0.0,0.0,0.0,0.0,0.0,0.0,-0.5769,-0.5982,-0.5982,-0.6691,-0.7289,-0.767,-0.799,-0.8374,-0.8804,-0.8804,-0.8804,-0.8804,-0.8804,-0.8804,-0.8804,-0.8804,-0.9309,-1.0269,-1.0269,-1.0466,-1.0762,-1.0415,-1.0466,-1.0762,-1.0364,-1.0269,-1.0312,-1.1065,-1.1316,-1.1366,0.0,0.0,0.0,0.0,0.0,0.0,0.0,0.0,0.0,0.0,0.0,0.0,0.5735,0.0,0.0,0.0,0.5403,0.5224,0.5117,0.5108,0.501,0.4814,0.4814,0.4666,0.4406,0.4211,0.4073,0.4037,0.4139,0.4413,0.4814,0.4934,0.4415,0.3376,0.3215,0.2866,0.2367,0.2146,0.2012,0.1945,0.1908,0.172,0.1457,0.1696,0.183,0.1855,0.197,0.2035,0.2037,0.2021,0.1933,0.1854,0.1816,0.183,0.0,0.0,0.0,0.0,0.0,0.0,0.0,0.0,0.0,0.0,0.0,0.0,0.0,0.0,0.0,0.0,0.0,0.0,0.0,0.0,0.0,0.0,0.0,0.0,0.0,0.0,0.0,0.0,0.0,0.0,0.0,0.0,-0.4888,-0.5171,-0.5214,-0.5928,-0.6583,-0.7122,-0.7343,-0.7777,-0.8533,-0.8699,-0.8804,-0.8804,-0.8804,-0.8804,-0.8804,-0.8804,-0.9061,-0.9562,-0.9562,-0.9814,-1.0261,-0.9762,-0.9865,-1.0269,-0.9762,-0.9562,-0.9666,-1.0669,-1.0813,-1.072,0.0,0.0,0.0,0.0,0.0,0.0,0.0,0.0,0.0,0.0,0.0,0.0,0.6323,0.6338,0.6205,0.5825,0.5764,0.5566,0.5137,0.5108,0.5088,0.5088,0.5069,0.0,0.4686,0.4666,0.4562,0.4379,0.4624,0.4773,0.4827,0.5711,0.5625,0.4651,0.37,0.3344,0.3376,0.2553,0.2051,0.1842,0.207,0.2006,0.1782,0.1799,0.1872,0.1998,0.2008,0.2077,0.2177,0.2033,0.2004,0.1974,0.1851,0.1882,0.0,0.0,0.0,0.0,0.0,0.0,0.0,0.0,0.0,0.0,0.0,0.0,0.0,0.0,0.0,0.0,0.0,0.0,0.0,0.0,0.0,0.0,0.0,0.0,0.0,0.0,0.0,0.0,0.0,0.0,0.0,0.0,-0.4256,-0.4371,-0.4563,-0.5164,-0.5592,-0.5592,-0.6308,-0.702,-0.7723,-0.8427,-0.8804,-0.8804,-0.8804,-0.8804,-0.8804,-0.8804,-0.8804,-0.8857,-0.8857,-0.8857,-0.891,-0.8857,-0.8857,-0.891,-0.8857,-0.8857,-0.8857,-0.8903,-0.9361,-0.9961,0.0,0.0,0.0,0.0,0.0,0.0,0.0,0.0,0.0,0.0,0.0,0.0,0.0,0.6657,0.6596,0.6457,0.6049,0.5734,0.5557,0.5263,0.5108,0.5108,0.54,0.5505,0.5421,0.5491,0.5368,0.5053,0.5132,0.5161,0.513,0.5638,0.5805,0.5678,0.4994,0.4297,0.3601,0.3118,0.2713,0.2384,0.249,0.2225,0.1837,0.0,0.0,0.0,0.0,0.0,0.0,0.2376,0.2232,0.212,0.2067,0.2087,0.0,0.0,0.0,0.0,0.0,0.0,0.0,0.0,0.0,0.0,0.0,0.0,0.0,0.0,0.0,0.0,0.0,0.0,0.0,0.0,0.0,0.0,0.0,0.0,0.0,0.0,0.0,0.0,0.0,0.0,0.0,0.0,0.0,-0.4063,-0.4311,-0.4435,-0.4831,-0.5479,-0.576,-0.6253,-0.6966,-0.7235,-0.7402,-0.7396,-0.7883,-0.8103,-0.8103,-0.8593,-0.8804,-0.8804,-0.8804,-0.8804,-0.8804,-0.8804,-0.8804,-0.8804,-0.8804,-0.8804,-0.8857,-0.9263,-0.9614,-0.9917,0.0,0.0,0.0,0.7056,0.0,0.7006,0.6911,0.7014,0.7042,0.688,0.0,0.0,0.0,0.0,0.7097,0.7097,0.6424,0.5986,0.5986,0.5723,0.5536,0.5536,0.584,0.5986,0.5986,0.6093,0.5945,0.5562,0.5561,0.5421,0.5137,0.5531,0.5765,0.59,0.5704,0.528,0.4599,0.4079,0.3745,0.3543,0.0,0.0,0.2698,0.0,0.0,0.0,0.0,0.0,0.0,0.0,0.0,0.0,0.0,0.0,0.0,0.0,0.0,0.0,0.1846,0.0,0.0,0.0,0.0,0.0,0.0,0.0,0.0,0.0,0.0,0.0,0.0,0.0,0.0,0.0,0.0,0.0,0.0,0.0,0.0,0.0,0.0,0.0,0.0,0.0,0.0,0.0,0.0,0.0,-0.418,-0.41,-0.4414,-0.5156,-0.5321,-0.5698,-0.6204,-0.6475,-0.6588,-0.6588,-0.7074,-0.7343,-0.7343,-0.783,-0.8049,-0.8049,-0.8321,-0.8586,-0.8804,-0.8804,-0.8804,-0.8804,-0.8804,-0.8804,-0.8857,-0.9309,-0.9465,-0.9562,0.8349,0.8336,0.8212,0.7944,0.7888,0.78,0.7531,0.7509,0.7527,0.7576,0.0,0.0,0.0,0.0,0.0,0.7695,0.6917,0.6445,0.6426,0.6416,0.6406,0.6406,0.6416,0.6426,0.6426,0.6436,0.6261,0.5912,0.5912,0.5525,0.4834,0.5398,0.5551,0.5329,0.5726,0.6115,0.64,0.5383,0.5069,0.524,0.0,0.4395,0.4316,0.0,0.0,0.0,0.3825,0.3535,0.0,0.2969,0.0,0.0,0.0,0.0,0.0,0.0,0.0,0.0,0.0,0.0,0.0,0.0,0.0,0.0,0.0894,0.0,0.0,0.0,0.0,0.0,0.0,0.0,0.0,0.0,0.0,0.0,0.0,0.0,0.0,0.0,0.0,0.0,0.0,0.0,0.0,0.0,-0.3782,-0.3914,-0.4167,-0.4187,-0.4304,-0.4498,-0.4994,-0.5299,-0.5471,-0.619,-0.6524,-0.6524,-0.6529,-0.6588,-0.6588,-0.6588,-0.6588,-0.6642,-0.7343,-0.8049,-0.8752,-0.8804,-0.8804,-0.8804,-0.8804,-0.8804,-0.8804,-0.8804,-0.8804,-0.891,0.9453,0.9039,0.8463,0.7858,0.7766,0.7654,0.7326,0.7363,0.743,0.0,0.0,0.0,0.7686,0.7695,0.7695,0.7695,0.7472,0.7209,0.6924,0.6592,0.6406,0.6406,0.6729,0.6914,0.6914,0.718,0.7007,0.6339,0.6339,0.5929,0.5164,0.5324,0.5357,0.5329,0.5726,0.5961,0.6068,0.6068,0.0,0.466,0.4938,0.4305,0.0,0.0,0.0,0.0,0.0,0.4099,0.38,0.0,0.3432,0.3844,0.0,0.0,0.0,0.0,0.0,0.0,0.2424,0.0,0.0,0.0,0.0,0.0,0.1657,0.1364,0.0,0.0,0.0,0.0,0.0,0.0,0.0,0.0,0.0,0.0,0.0,0.0,0.0,0.0,0.0,0.0,0.0,0.0,0.0,0.0,-0.3534,-0.3557,-0.39,-0.4022,-0.41,-0.4141,-0.4303,-0.4401,-0.4393,-0.4718,-0.4885,-0.4888,-0.5487,-0.5814,-0.5814,-0.6367,-0.6588,-0.6588,-0.6804,-0.702,-0.7289,-0.8374,-0.8804,-0.8804,-0.8804,-0.8804,-0.8804,-0.8804,-0.8804,-0.8804,0.9905,0.9554,0.9118,0.8693,0.849,0.8357,0.8162,0.8046,0.7941,0.0,0.0,0.0,0.7402,0.7559,0.7598,0.7393,0.7559,0.7598,0.7383,0.7082,0.6927,0.6927,0.7189,0.7363,0.7363,0.7569,0.7353,0.6669,0.6457,0.5975,0.5309,0.5309,0.5309,0.5322,0.5551,0.5652,0.5678,0.6075,0.0,0.0,0.5531,0.0,0.0,0.5769,0.5488,0.0,0.0,0.0,0.4432,0.4129,0.4133,0.0,0.0,0.0,0.0,0.0,0.0,0.0,0.0,0.0,0.0,0.0,0.0,0.0,0.2032,0.1848,0.1573,0.0,0.0,0.0,0.0,0.0,0.0,0.0,0.0,0.0,0.0,0.0,0.0,0.0,0.0,0.0,0.0,-0.2313,-0.2657,-0.3176,-0.3098,-0.3278,-0.3778,-0.3877,-0.3955,-0.4019,-0.3958,-0.3985,-0.4063,-0.4153,-0.4224,-0.4338,-0.4852,-0.5058,-0.5109,-0.555,-0.5719,-0.5714,-0.6041,-0.6145,-0.6253,-0.7396,-0.8049,-0.8321,-0.8321,-0.8533,-0.8804,-0.8804,-0.8804,-0.8804,0.0,0.9841,0.979,0.9816,0.9528,0.9251,0.9165,0.8865,0.8535,0.0,0.8108,0.779,0.6897,0.7178,0.7248,0.6881,0.7383,0.7695,0.7695,0.7695,0.7695,0.7695,0.7695,0.7695,0.7695,0.7695,0.7442,0.6931,0.6427,0.5913,0.5372,0.5309,0.5309,0.5309,0.5309,0.5309,0.5336,0.5685,0.0,0.684,0.6239,0.6526,0.0,0.0,0.7045,0.6852,0.6714,0.5989,0.5127,0.5371,0.4841,0.0,0.0,0.0,0.0,0.0,0.3121,0.0,0.0,0.0,0.0,0.0,0.0,0.0,0.2181,0.2164,0.2157,0.0,0.0,0.0,0.0,0.0,0.0,0.0,0.0,0.0,0.0,0.0,0.0,0.0,0.0,0.0,-0.0895,-0.1385,-0.1962,-0.2541,-0.2672,-0.2988,-0.3665,-0.3721,-0.3829,-0.3968,-0.3839,-0.3907,-0.4143,-0.4164,-0.4294,-0.4494,-0.4512,-0.4519,-0.4519,-0.4519,-0.4519,-0.4515,-0.5109,-0.5378,-0.5433,-0.6095,-0.6858,-0.7563,-0.7563,-0.799,-0.8586,-0.8646,-0.8699,-0.8699,0.9905,0.941,0.9089,0.9304,0.8883,0.8304,0.7636,0.7754,0.7629,0.6885,0.7014,0.6919,0.624,0.5827,0.5847,0.6445,0.7228,0.7695,0.7695,0.7695,0.7695,0.7695,0.7695,0.7695,0.7695,0.7695,0.75,0.705,0.685,0.6427,0.5765,0.546,0.5309,0.5309,0.5309,0.5309,0.5316,0.0,0.0,0.6169,0.6607,0.0,0.6055,0.7537,0.7283,0.619,0.6768,0.6673,0.6276,0.6327,0.5705,0.4882,0.0,0.0,0.0,0.3416,0.0,0.0,0.0,0.0,0.0,0.0,0.0,0.0,0.258,0.2589,0.2483,0.0,0.0,0.0,0.0,0.0,0.0,0.0,0.0,0.0,0.0,0.0,0.0,0.0,0.0,0.0,-0.0851,-0.0984,-0.134,-0.1919,-0.2406,-0.2771,-0.2887,-0.3388,-0.3636,-0.3663,-0.3636,-0.3704,-0.388,-0.4002,-0.4086,-0.4237,-0.4406,-0.4519,-0.4519,-0.4519,-0.4519,-0.4519,-0.4625,-0.4677,-0.468,-0.4842,-0.566,-0.6804,-0.6804,-0.6912,-0.7128,-0.7723,-0.7937,-0.7996,0.9905,0.9607,0.917,0.8568,0.8623,0.8601,0.8209,0.8077,0.7842,0.7413,0.6945,0.6592,0.6455,0.5633,0.5283,0.5711,0.6946,0.7695,0.7695,0.7968,0.7997,0.7715,0.7939,0.7949,0.7705,0.7695,0.7742,0.7857,0.695,0.6457,0.6391,0.5645,0.5309,0.5322,0.5431,0.5418,0.5329,0.0,0.5867,0.6102,0.6747,0.0,0.6623,0.7928,0.7852,0.7192,0.7433,0.7212,0.674,0.6314,0.5989,0.0,0.0,0.5427,0.4974,0.0,0.3916,0.3783,0.0,0.0,0.0,0.294,0.0,0.0,0.0,0.274,0.2745,0.0,0.0,0.0,0.0,0.0,0.0,0.0,0.0,0.0,0.0,0.0,0.0,0.0,0.0,0.0,-0.0421,-0.0471,-0.07,-0.1294,-0.1919,-0.2364,-0.2672,-0.2721,-0.2857,-0.3126,-0.317,-0.3233,-0.3363,-0.3795,-0.4046,-0.4197,-0.4395,-0.4519,-0.4519,-0.4519,-0.4519,-0.4519,-0.4519,-0.4519,-0.4519,-0.4519,-0.4901,-0.5609,-0.5928,-0.6258,-0.6642,-0.702,-0.7402,-0.7777,0.9905,0.9905,0.9516,0.8326,0.8679,0.9116,0.9116,0.8717,0.8336,0.8205,0.7126,0.6572,0.6992,0.6045,0.5351,0.5351,0.7092,0.8192,0.8192,0.8662,0.8643,0.7968,0.8311,0.8311,0.787,0.7919,0.8172,0.8682,0.737,0.6844,0.6999,0.612,0.5641,0.549,0.5651,0.5665,0.0,0.0,0.0,0.6411,0.0,0.7315,0.7607,0.821,0.8457,0.8424,0.8123,0.7662,0.7062,0.6317,0.6289,0.6582,0.6404,0.6204,0.0,0.0,0.0,0.0,0.0,0.0,0.0,0.0,0.0,0.2808,0.0,0.0,0.0,0.0,0.0,0.0,0.0,0.0,0.0,0.0,0.0,0.0,0.0,0.0,0.0,0.0,0.0,0.0,0.0,0.0039,-0.0208,-0.0705,-0.1281,-0.1859,-0.2317,-0.2006,-0.2008,-0.2495,-0.2539,-0.2592,-0.2701,-0.3303,-0.3685,-0.3822,-0.3954,-0.4125,-0.4294,-0.4294,-0.4349,-0.4519,-0.4519,-0.4519,-0.4519,-0.4519,-0.4519,-0.457,-0.5109,-0.5655,-0.6204,-0.6367,-0.6853,-0.7503,0.9905,0.9905,0.9841,0.9686,0.9197,0.8844,0.8844,0.8789,0.8523,0.786,0.6979,0.6719,0.7511,0.0,0.0,0.0,0.0,0.0,0.999,0.0,0.9727,0.8896,0.8906,0.8799,0.8506,0.874,0.8896,0.8955,0.8992,0.852,0.7525,0.7339,0.6834,0.6088,0.5947,0.0,0.0,0.0,0.6653,0.0,0.7536,0.7729,0.0,0.8457,0.8758,0.8717,0.843,0.811,0.7736,0.0,0.7344,0.7324,0.0,0.6739,0.6422,0.5903,0.0,0.0,0.0,0.0,0.0,0.0,0.3528,0.0,0.0,0.0,0.0,0.3799,0.0,0.0,0.0,0.0,0.0,0.0,0.0,0.0,0.0,0.0,0.0,0.0,0.0,0.0,0.0,0.0134,-0.0037,-0.0084,-0.0676,-0.103,-0.1116,-0.1563,-0.183,-0.1917,-0.1919,-0.1958,-0.2087,-0.2172,-0.2303,-0.2436,-0.2468,-0.2788,-0.3456,-0.3511,-0.3904,-0.4519,-0.4519,-0.4519,-0.4519,-0.4519,-0.4519,-0.4519,-0.457,-0.468,-0.4791,-0.5382,-0.6091,-0.6804,0.9905,0.9905,0.9905,0.9905,0.9633,0.9482,0.963,0.934,0.8757,0.7822,0.7374,0.7287,0.0,0.0,0.0,0.0,0.0,0.752,0.0,0.0,1.0117,0.9756,0.8477,0.8105,0.8818,0.8945,0.9121,0.933,0.8983,0.8522,0.7945,0.7455,0.6841,0.0,0.6283,0.0,0.6607,0.0,0.717,0.0,0.0,0.0,0.0,0.8591,0.8704,0.849,0.8064,0.7882,0.7809,0.0,0.7555,0.0,0.0,0.0,0.0,0.0,0.0,0.0,0.0,0.0,0.0,0.0,0.0,0.0,0.3659,0.0,0.3355,0.0,0.0,0.0,0.0,0.0,0.0,0.0,0.2351,0.0,0.0,0.0,0.0,0.0,0.0,0.0,0.0,0.0,0.0,0.0,-0.0235,-0.0523,-0.0876,-0.0817,-0.0895,-0.1252,-0.1607,-0.1666,-0.1376,-0.2146,-0.2378,-0.2108,-0.2184,-0.2353,-0.2676,-0.2676,-0.2899,-0.3178,-0.3178,-0.3456,-0.3846,-0.3846,-0.407,-0.4519,-0.4519,-0.4519,-0.4515,-0.4842,-0.5382,-0.5977,0.9384,0.9633,0.9905,0.9905,0.9972,1.0004,0.995,0.9722,0.9238,0.8293,0.0,0.0,0.8581,1.0762,0.0,0.0,0.9141,0.7539,0.0,0.0,1.0518,0.0,0.0,0.0,0.0,0.9434,0.9502,0.9805,0.9204,0.8803,0.8541,0.7961,0.7325,0.6674,0.0,0.6754,0.6874,0.0,0.7836,0.7789,0.8049,0.8257,0.841,0.8697,0.8677,0.8437,0.7989,0.7976,0.809,0.7569,0.7829,0.0,0.7903,0.0,0.0,0.0,0.0,0.0,0.6086,0.0,0.0,0.0,0.0,0.0,0.0,0.0,0.0,0.0,0.0,0.0,0.0,0.0,0.0,0.0,0.0,0.0,0.0,0.0,0.0,0.0,0.0,0.0,0.0,0.0,0.0,0.0,0.0,-0.0147,-0.0618,-0.0248,-0.0222,-0.0627,-0.1073,-0.1118,-0.0672,-0.163,-0.1887,-0.146,-0.1564,-0.1728,-0.1898,-0.1898,-0.2009,-0.2174,-0.2174,-0.2508,-0.3067,-0.3234,-0.3677,-0.4239,-0.4405,-0.4519,-0.4519,-0.4519,-0.4948,-0.5487,0.8052,0.8926,0.9905,0.9905,1.0124,1.0016,0.916,0.9753,0.0,0.0,0.0,0.0,0.0,0.0,0.0,0.0,0.0,1.2646,1.248,0.0,1.1062,0.0,0.0,1.0449,0.0,1.0527,1.0244,1.0302,1.0244,0.9972,0.946,0.9442,0.8844,0.7799,0.7259,0.7168,0.754,0.8383,0.8604,0.837,0.8664,0.8784,0.8791,0.0,0.8798,0.8791,0.8771,0.0,0.0,0.843,0.84,0.0,0.0,0.0,0.0,0.0,0.0,0.0,0.0,0.0,0.0,0.5705,0.0,0.0,0.0,0.0,0.4698,0.0,0.0,0.0,0.0,0.0,0.0,0.0,0.0,0.0,0.0,0.0,0.0,0.0,0.0,0.0,0.0,0.0,0.0,0.0,0.0,0.0,-0.0036,0.0,0.0,-0.0045,-0.0045,-0.0045,-0.0045,-0.0094,-0.0097,-0.005,-0.0052,-0.0433,-0.1118,-0.1118,-0.1507,-0.2174,-0.2174,-0.2232,-0.2286,-0.301,-0.3345,-0.3511,-0.4239,-0.4519,-0.4519,-0.4519,-0.4948,-0.5487,0.9757,0.9817,1.0143,1.0143,0.0,0.9836,0.8875,0.8984,0.0,0.0,0.0,0.0,0.0,0.8678,0.8828,0.0,0.0,1.2881,1.2881,1.251,0.0,0.0,0.0,1.168,0.0,0.0,0.0,0.0,1.0283,1.0205,1.0,0.9549,0.899,0.0,0.0,0.7074,0.0,0.0,0.0,0.0,0.0,0.8524,0.8544,0.0,0.0,0.8804,0.8804,0.8804,0.0,0.847,0.8504,0.8624,0.8437,0.8303,0.8283,0.8577,0.8243,0.0,0.0,0.0,0.7483,0.695,0.0,0.0,0.0,0.0,0.0,0.0,0.0,0.0,0.0,0.0,0.0,0.0,0.0,0.0,0.0,0.0,0.0,0.0,0.0,0.0,0.0,0.0,0.0,0.0,0.0,0.0,0.0,0.0,0.0,0.0,-0.0386,-0.0404,0.0,-0.041,-0.0374,0.0,0.0,-0.0105,-0.0379,-0.0388,-0.0504,-0.0727,-0.0727,-0.1284,-0.2232,-0.2454,-0.3176,-0.4125,-0.4405,-0.4519,-0.4519,-0.4519,-0.4625,-0.4893,1.0544,1.0283,1.0283,0.0,0.0,0.0,0.0,0.0,0.0,0.0,0.9795,0.0,0.957,0.0,0.9077,0.0,1.1592,1.2881,1.2881,1.2881,0.0,1.2096,1.2373,0.0,0.0,0.0,0.0,0.0,0.0,1.0283,0.0,0.0,0.0,0.0,0.0,0.7758,0.7054,0.0,0.7909,0.0,0.0,0.8437,0.0,0.0,0.8717,0.8804,0.0,0.8804,0.8778,0.8591,0.8651,0.8778,0.8591,0.853,0.8564,0.8751,0.8537,0.8243,0.8243,0.8243,0.0,0.7736,0.7488,0.0,0.6728,0.0,0.0,0.0,0.0,0.0,0.0,0.0,0.0,0.0,0.0,0.0,0.0,0.2685,0.0,0.0,0.0,0.0,0.0,0.0,0.0,0.0,0.0,0.0,0.0,0.0,0.0,0.0,-0.038,-0.0404,0.0,-0.0404,-0.0366,0.0,0.0,0.0,0.0,0.0,0.0,0.0,0.0,-0.056,-0.1452,-0.1675,-0.2565,-0.3735,-0.3956,-0.4239,-0.4519,-0.4519,-0.4519,-0.457,1.0283,1.0283,1.0283,0.0,0.9648,0.0,0.0,0.0,1.0107,0.0,1.0861,1.0996,1.2695,1.1885,1.167,1.2783,1.2881,1.2803,1.2637,1.2783,0.0,0.0,1.2256,1.2305,1.2871,0.0,0.0,0.0,0.0,0.0,0.0,0.0,0.0,0.0,0.9795,0.0,0.7188,0.7747,0.797,0.801,0.8293,0.8575,0.8758,0.8477,0.8557,0.8804,0.8804,0.8804,0.8804,0.8804,0.8804,0.8804,0.8804,0.8804,0.8804,0.8804,0.8804,0.8804,0.8804,0.8804,0.8671,0.8068,0.0,0.0,0.0,0.0,0.7027,0.0,0.0,0.0,0.0,0.0,0.0,0.0,0.0,0.0,0.0,0.0,0.0,0.0,0.0,0.0,0.0,0.0,0.0,0.0,0.0,0.0,0.0,0.0,0.0,0.0,0.0,0.0,0.0,0.0,0.0,0.0,0.0,0.0,0.0,0.0,0.0,0.0,0.0,0.0,-0.0112,-0.0783,-0.1507,-0.2286,-0.2954,-0.3732,-0.446,-0.4463,-0.4519,-0.4519,1.0283,1.0283,1.0283,0.0,1.0665,1.0802,0.0,0.0,0.0,0.0,1.1018,1.1694,1.2764,1.2607,1.2549,1.2852,1.2881,0.0,0.0,0.0,0.0,0.916,1.1367,1.2725,1.2881,1.2588,0.0,1.0283,0.0,0.0,1.0283,0.0,0.0,0.0,0.0,0.0,0.9417,0.8941,0.8875,0.9114,0.8769,0.8602,0.0,0.0,0.8557,0.8804,0.8804,0.8804,0.8804,0.8804,0.8804,0.8804,0.8804,0.8804,0.8804,0.8804,0.8804,0.8804,0.8804,0.8804,0.8771,0.8624,0.8417,0.8223,0.0,0.0,0.0,0.0,0.0,0.0,0.0,0.0,0.0,0.0,0.0,0.0,0.0,0.0,0.0,0.2872,0.0,0.0,0.0,0.0,0.0,0.0,0.0,0.0,0.0,0.0,0.0,0.0,0.0,0.0,0.0,0.0,0.0,0.0,0.0,0.0,0.0,0.0,0.0,0.0,0.0,-0.0336,-0.0838,-0.1006,-0.1507,-0.2232,-0.2397,-0.2954,-0.3735,-0.4294,-0.4519,-0.4519,1.0283,1.0283,0.0,0.9297,0.0,0.0,1.0783,1.0732,0.0,1.1348,1.1547,0.0,1.2783,1.2881,1.2881,1.2881,1.2881,0.0,0.7919,0.0,0.0,1.0068,1.1846,1.2881,1.2881,1.2881,0.0,1.1416,0.0,0.0,1.0283,0.0,0.0,0.0,0.0,0.9637,0.9563,0.8821,0.8879,0.9369,0.8774,0.0,0.0,0.8424,0.8557,0.8804,0.8804,0.8804,0.8804,0.8804,0.8804,0.8804,0.8804,0.8804,0.8804,0.8804,0.8804,0.8804,0.8804,0.8804,0.8804,0.8804,0.8684,0.8564,0.8564,0.817,0.7849,0.0,0.0,0.0,0.0,0.0,0.0,0.0,0.0,0.0,0.0,0.0,0.0,0.0,0.2896,0.0,0.0,0.0,0.0,0.0,0.0,0.0,0.0,0.0,0.0,0.0033,0.0383,0.0377,0.0,0.0115,0.0119,0.0,0.0,0.0,0.0,0.0,0.0,0.0,0.0,-0.0219,-0.0601,-0.0646,-0.1078,-0.1749,-0.2052,-0.2454,-0.2954,-0.368,-0.4184,-0.4519,0.999,0.9941,0.0,0.0,0.0,0.0,0.0,1.1523,0.0,1.2744,0.0,1.1988,1.248,1.2744,1.2881,1.2881,0.0,1.1416,0.7919,1.0967,1.2881,1.2881,1.2881,1.2881,1.2881,1.2432,1.2432,0.0,0.0,0.0,0.0,0.0,0.0,0.0,0.0,0.0,0.0,0.8468,0.8776,0.9426,0.8948,0.8866,0.8978,0.8809,0.8885,0.9061,0.9061,0.8962,0.8804,0.8804,0.8804,0.8804,0.8804,0.8857,0.891,0.8804,0.8857,0.891,0.8804,0.8804,0.8804,0.8804,0.8804,0.8804,0.8804,0.8804,0.8804,0.8804,0.8577,0.8259,0.0,0.0,0.0,0.0,0.0,0.0,0.0,0.0,0.0,0.0,0.0,0.0,0.0,0.0,0.0,0.0,0.0,0.0,0.0,0.0,0.0,0.0145,0.0898,0.0934,0.0184,0.0,0.0494,0.0272,0.0226,0.0192,0.016,0.0109,0.0055,0.0,0.0,0.0,0.0,0.0,-0.0363,-0.1018,-0.1764,-0.2063,-0.2119,-0.2899,-0.3677,-0.4349,0.8457,0.0,0.0,0.0,0.0,0.8838,1.2148,1.2607,1.2646,1.2852,1.2792,1.2158,1.092,1.2021,1.2881,1.2881,1.2881,0.0,0.0,0.0,0.0,1.2881,1.2881,1.2881,1.2881,1.0088,1.0029,0.0,0.0,0.0,0.0,0.0,0.0,0.0,0.0,0.0,0.9881,1.0358,0.0,1.1001,1.0802,1.0462,1.0164,1.029,1.041,1.0466,1.0466,0.9762,0.8804,0.8804,0.8804,0.8804,0.8804,0.9159,0.951,0.8956,0.9211,0.9517,0.8956,0.8804,0.8804,0.8804,0.8804,0.8804,0.8804,0.8804,0.8804,0.8804,0.8577,0.8393,0.8286,0.0,0.0,0.0,0.0,0.0,0.0,0.0,0.0,0.0,0.0,0.3998,0.0,0.0,0.0,0.0,0.0,0.0,0.0,0.0,0.0,0.0,0.1108,0.0,0.0,0.0,0.16,0.1646,0.1551,0.1277,0.0902,0.0779,0.047,0.0,0.0,0.0,0.0,0.0,-0.0054,-0.0278,-0.1004,-0.1284,-0.1396,-0.212,-0.2899,-0.368,0.0,0.0,0.0,0.0,0.0,0.0,0.0,1.1728,0.0,1.2881,1.2881,1.2559,1.1719,1.2383,1.2881,1.2881,1.2881,1.2178,1.0508,1.1963,1.2881,1.2881,1.2881,0.0,1.2881,1.125,1.1211,1.2881,0.0,0.0,0.0,0.0,0.0,0.0,0.0,1.0435,0.0,0.0,0.0,1.1302,1.1068,1.0853,1.0623,1.0747,1.0813,1.0813,1.0813,1.0364,0.9762,0.9413,0.9113,0.8857,0.9211,0.9562,0.9814,0.9814,1.0064,1.0167,0.951,0.9309,0.9211,0.891,0.8804,0.8804,0.8804,0.8804,0.8804,0.8804,0.8697,0.855,0.8404,0.7889,0.0,0.0,0.0,0.0,0.0,0.0,0.0,0.0,0.0,0.0,0.0,0.0,0.0,0.0,0.0,0.0,0.0,0.0,0.0,0.0,0.0,0.0,0.0,0.0,0.0,0.1886,0.1886,0.1727,0.1445,0.1449,0.1088,0.0465,0.0449,0.0295,0.0,0.0,0.0,-0.0055,-0.0389,-0.0504,-0.0615,-0.1341,-0.1898,-0.2343,0.0,0.7695,0.0,0.0,1.0215,0.0,0.9131,1.1133,1.2881,1.2881,1.2881,1.2881,1.2881,1.2881,1.2881,1.2881,1.2881,1.2881,1.2881,1.2881,1.2881,1.2881,1.2881,1.2881,1.2881,1.2881,1.2881,0.0,0.0,0.0,0.0,0.0,0.0,0.0,0.0,0.0,0.0,0.0,1.1424,1.1542,1.1312,1.1225,1.1225,1.1225,1.1225,1.1225,1.1225,1.1174,1.0914,1.0415,0.9762,0.9309,0.9865,1.0115,1.0312,1.0669,1.0914,1.0864,1.021,0.9917,0.9658,0.9159,0.891,0.8857,0.8956,0.9008,0.9061,0.9211,0.9106,0.8888,0.8561,0.8223,0.0,0.0,0.0,0.0,0.0,0.0,0.0,0.0,0.0,0.0,0.4378,0.0,0.0,0.0,0.0,0.231,0.2242,0.2366,0.2156,0.0,0.0,0.2463,0.2066,0.0,0.2376,0.232,0.2392,0.234,0.2109,0.2173,0.1797,0.1156,0.1103,0.0759,0.0194,0.0199,0.0103,0.0,0.0,0.0,-0.0056,-0.0671,-0.095,-0.1284,0.0,0.0,0.0,0.0,0.0,0.0,1.1973,1.2676,1.2881,1.2881,1.2881,1.2881,1.2881,1.2881,1.2881,1.2881,1.2881,1.2881,1.2881,1.2881,1.2881,1.2881,1.2881,1.2881,1.2881,1.2881,1.2881,0.0,0.0,0.0,0.0,0.0,0.0,0.0,0.0,0.0,0.0,1.2725,1.2706,1.2716,1.2706,1.2715,1.2715,1.2715,1.2715,1.2715,1.2715,1.2246,1.1715,1.1616,1.1166,1.0618,1.0669,1.1116,1.1516,1.0965,1.1216,1.1566,1.0864,1.0261,0.9762,0.971,0.9263,0.8956,0.9562,0.9718,0.9865,1.0466,1.0115,0.9503,0.8876,0.853,0.8143,0.0,0.0,0.0,0.0,0.0,0.0,0.0,0.0,0.0,0.0,0.4532,0.0,0.0,0.2391,0.2331,0.2644,0.2391,0.2281,0.2398,0.0,0.2676,0.2978,0.3142,0.3452,0.3971,0.3843,0.3565,0.3137,0.2908,0.249,0.1904,0.1766,0.1361,0.0803,0.0806,0.0473,0.0,0.0,0.0,0.0,-0.0056,-0.0504,-0.1118,0.0,0.0,0.0,0.0,0.0,0.0,0.0,1.1553,1.2881,1.2881,1.2881,1.2881,1.2881,1.2881,1.2881,1.2881,1.0986,1.0674,1.2744,1.0937,1.0713,1.2793,1.2881,1.2881,1.2881,1.2881,1.2881,0.0,0.0,0.0,0.0,0.0,0.0,0.0,0.0,1.2881,1.2881,1.2881,1.2881,1.2881,1.2881,1.2881,1.2881,1.2881,1.2881,1.2881,1.2881,1.2715,1.2452,1.2452,1.1733,1.0864,1.1266,1.1566,1.1814,1.1999,1.2246,1.2295,1.1566,1.1216,1.0914,1.0517,1.0218,1.0064,1.0364,1.0415,1.0466,1.0762,1.0269,0.971,0.9465,0.9313,0.8983,0.0,0.0,0.0,0.0,0.0,0.0,0.0,0.0,0.0,0.0,0.0,0.0,0.0,0.0,0.2803,0.2706,0.2656,0.2751,0.3021,0.0,0.3113,0.3656,0.3544,0.3697,0.406,0.409,0.3962,0.3715,0.3608,0.3139,0.2388,0.2046,0.177,0.156,0.156,0.147,0.1284,0.0838,0.0671,0.0615,0.0168,-0.0168,-0.0448,1.3623,0.0,1.4287,0.0,1.2881,1.2061,0.9619,1.1309,1.2881,1.2881,1.2881,1.2881,1.2881,1.2881,1.2881,1.2881,1.0654,1.0273,1.2725,1.0596,1.0332,1.2773,1.2881,0.0,1.2881,1.2881,1.2881,1.2881,1.2881,0.0,0.0,0.0,0.0,0.0,1.2881,1.2881,1.2881,1.2881,1.2881,1.2881,1.2881,1.2881,1.2881,1.2881,1.2881,1.2881,1.2881,1.2881,1.2881,1.2881,1.2255,1.1484,1.1981,1.2129,1.2236,1.2774,1.2881,1.2774,1.2236,1.1972,1.1665,1.1216,1.0965,1.0864,1.1065,1.1116,1.1116,1.1116,1.0712,1.0269,0.9865,0.9961,0.9811,0.8855,0.0,0.0,0.0,0.0,0.0,0.0,0.6199,0.6005,0.642,0.5608,0.0,0.0,0.0,0.0,0.3285,0.3197,0.0,0.0,0.0,0.0,0.0,0.3639,0.3727,0.4151,0.426,0.4253,0.4148,0.406,0.3633,0.2999,0.267,0.2426,0.2265,0.229,0.2278,0.2174,0.1619,0.1284,0.1062,0.0504,0.0168,0.0,1.5381,1.4043,1.29,1.2881,1.2881,1.2871,1.2822,1.2852,1.2881,1.2881,1.2881,1.2881,1.2881,1.2881,1.2881,1.2881,1.2842,1.2832,1.2881,1.2842,1.2832,0.0,0.0,1.2881,1.2881,1.2881,1.2881,1.2881,0.0,0.0,1.0352,0.0,1.2861,1.2881,1.2881,1.2881,1.2881,1.2881,1.2881,1.2881,1.2881,1.2881,1.2881,1.2881,1.2881,1.2881,1.2881,1.2881,1.2881,1.2881,1.2881,1.2881,1.2881,1.2881,1.2881,1.2881,1.2881,1.2881,1.2881,1.2344,1.1814,1.1765,1.1266,1.0965,1.1665,1.1765,1.1765,1.1765,1.1765,1.1366,1.0064,1.0364,1.0497,0.9528,0.0,0.0,0.0,0.0,0.0,0.0,0.6506,0.6189,0.6196,0.6189,0.0,0.0,0.0,0.0,0.0,0.0,0.0,0.361,0.3263,0.0,0.3622,0.3386,0.3724,0.4512,0.4515,0.4515,0.4501,0.4155,0.3934,0.3788,0.3792,0.3441,0.2921,0.3032,0.2759,0.2174,0.2174,0.173,0.1118,0.1118,0.0615,0.0,1.3691,1.3252,1.2881,1.2881,1.2881,1.2881,1.2881,1.0879,1.0215,1.2578,1.2881,1.2881,1.2881,1.2881,1.2881,0.0,1.2881,1.2881,0.0,1.2881,1.2881,1.2881,1.1738,1.1113,1.1113,1.2275,1.2881,1.2881,0.0,0.0,0.0,1.2617,1.2881,1.2881,1.2881,1.2881,1.2881,1.2881,1.2881,1.2881,1.2881,1.2881,1.2881,1.2881,1.2881,1.2881,1.2881,1.2881,1.2881,1.2881,1.2881,1.2881,1.2881,1.2881,1.2881,1.2881,1.2881,1.2881,1.2881,1.2715,1.2559,1.2559,1.2412,1.2304,1.251,1.2559,1.2559,1.2559,1.2129,1.1665,1.1266,1.1366,1.1195,1.0246,0.9906,0.0,0.0,0.0,0.0,0.6727,0.6212,0.5932,0.6176,0.6008,0.0,0.0,0.0,0.0,0.0,0.0,0.0,0.0,0.5296,0.0,0.4884,0.4646,0.4515,0.4519,0.4519,0.4409,0.4317,0.4321,0.4128,0.3802,0.4012,0.3919,0.3677,0.3816,0.3845,0.3735,0.3231,0.2899,0.2621,0.2063,0.1396,0.0727,1.2627,1.1836,1.1357,1.2656,1.2881,1.2881,1.2881,1.1055,1.0439,1.2598,1.2881,1.2881,1.2881,1.2881,0.0,1.2881,1.2881,1.2334,1.1025,1.2158,1.2881,1.2881,1.1846,1.126,1.126,1.2109,0.0,1.2881,1.2881,1.2881,1.2881,1.2881,1.2881,1.2881,1.2881,1.2881,1.2881,1.2881,1.2881,1.2881,1.2881,1.2881,1.2881,1.2881,1.2881,1.2881,1.2881,1.2881,1.2881,1.2881,1.2881,1.2881,1.2881,1.2881,1.2881,1.2881,1.2881,1.2881,1.2881,1.2881,1.2881,1.2881,1.2881,1.2881,1.2881,1.2881,1.2881,1.2881,1.255,1.2129,1.1864,1.203,1.1948,1.1054,1.085,1.0586,1.0058,0.0,0.0,0.0,0.0,0.0,0.0,0.6379,0.6266,0.0,0.0,0.0,0.0,0.0,0.0,0.6389,0.631,0.0,0.5745,0.5603,0.5433,0.5281,0.5003,0.4682,0.4328,0.4307,0.4141,0.3883,0.4019,0.4056,0.4033,0.4133,0.4331,0.446,0.4015,0.3624,0.3289,0.2788,0.2119,0.1507,1.2292,1.0293,0.9102,0.0,1.2881,0.0,1.2881,1.2881,1.2881,1.2881,1.2881,1.2881,1.2881,1.2881,1.2881,1.2881,0.0,0.0,0.0,1.1094,1.2881,1.2881,1.2881,1.2881,1.2881,1.2285,1.2275,1.2881,1.2881,1.2881,1.2881,1.2881,1.2881,1.2881,1.2881,1.2881,1.2881,1.2881,1.2881,1.2881,1.2881,1.2881,1.2881,1.2881,1.2881,1.2881,1.2881,1.2881,1.2881,1.2881,1.2881,1.2881,1.2881,1.2881,1.2881,1.2881,1.2881,1.2881,1.2881,1.2881,1.2881,1.2881,1.2881,1.2881,1.2881,1.2881,1.2881,1.2881,1.2881,1.2666,1.1972,1.2452,1.2666,1.1972,1.1586,1.1458,1.1724,0.0,0.0,0.0,0.0,0.0,0.0,0.7194,0.6814,0.0,0.0,0.0,0.0,0.0,0.6363,0.6569,0.6588,0.6462,0.6304,0.6304,0.6425,0.6588,0.5928,0.5214,0.4546,0.4213,0.4072,0.3995,0.3866,0.3887,0.4033,0.4133,0.4331,0.4519,0.4519,0.407,0.3398,0.3398,0.2899,0.2286,0.0,0.0,1.1924,1.2734,1.2881,1.2881,1.2881,1.2881,1.2881,1.2881,1.2881,1.2881,1.2881,1.2881,1.2881,1.2881,1.2881,1.2529,1.1719,1.2432,1.2881,1.2881,1.2881,1.2881,1.2881,1.2126,1.2106,1.2881,1.2881,1.2881,1.2881,1.2881,1.2881,1.2881,1.2881,1.2881,1.2881,1.2881,1.2881,1.2881,1.2881,1.2881,1.2881,1.2881,1.2881,1.2881,1.2881,1.2881,1.2881,1.2881,1.2881,1.2881,1.2881,1.2881,1.2881,1.2881,1.2881,1.2881,1.2881,1.2881,1.2881,1.2881,1.2881,1.2881,1.2881,1.2881,1.2881,1.2881,1.2881,1.2832,1.2666,1.2774,1.2822,1.2666,1.1844,1.1264,1.1307,0.9715,0.0,0.0,0.7881,0.7387,0.6875,0.7141,0.7121,0.0,0.0,0.0,0.0,0.7271,0.7528,0.8206,0.8233,0.7936,0.7379,0.7326,0.7067,0.6588,0.6421,0.5905,0.5129,0.5043,0.4561,0.3849,0.3931,0.3985,0.4033,0.4133,0.4331,0.4519,0.4519,0.4405,0.4236,0.4236,0.3735,0.3065,1.3312,1.2881,1.2881,1.2881,1.2881,1.2881,1.2881,1.2881,1.2881,1.2881,1.2881,1.2881,1.2881,1.2881,1.2881,1.2881,1.2881,1.2881,1.2881,1.2881,1.2881,1.2881,1.2881,1.2881,1.2881,1.2459,1.2449,1.2881,1.2881,1.2881,1.2881,1.2881,1.2881,1.2881,1.2881,1.2881,1.2881,1.2881,1.2881,1.2881,1.2881,1.2881,1.2881,1.2881,1.2881,1.2881,1.2881,1.2881,1.2881,1.2881,1.2881,1.2881,1.2881,1.2881,1.2881,1.2881,1.2881,1.2881,1.2881,1.2881,1.2881,1.2881,1.2881,1.2881,1.2881,1.2881,1.2881,1.2881,1.2881,1.2881,1.2881,1.2881,1.2812,1.2617,1.2082,1.1612,1.1415,1.0463,0.0,0.9462,0.8857,0.8349,0.7938,0.7743,0.7548,0.7228,0.7068,0.0,0.7896,0.7749,0.8023,0.8784,0.8804,0.8528,0.8028,0.8022,0.7717,0.7128,0.7128,0.6627,0.5681,0.534,0.489,0.4278,0.4007,0.3995,0.408,0.416,0.4331,0.4519,0.4519,0.4519,0.4519,0.4519,0.4236,0.3846,1.3164,1.2881,1.2881,1.2881,1.2881,1.2881,1.2881,1.2881,1.2881,1.2881,1.2881,1.2881,1.2881,1.2881,1.2881,1.2881,1.3248,1.3296,1.2929,1.2881,1.2881,1.2881,1.2881,1.2881,1.2881,1.2881,1.2881,1.2881,1.2881,1.2881,1.2881,1.2881,1.2881,1.2881,1.2881,1.2881,1.2881,1.2881,1.2881,1.2881,1.2881,1.2881,1.2881,1.2881,1.2881,1.2881,1.2881,1.2881,1.2881,1.2881,1.2881,1.2881,1.2881,1.2881,1.2881,1.2881,1.2881,1.2881,1.2881,1.2881,1.2881,1.2881,1.2881,1.2881,1.2881,1.2881,1.2881,1.2881,1.2881,1.2881,1.2881,1.2881,1.2744,1.2305,1.2132,1.1992,1.1655,0.0,1.1388,1.1239,1.0428,0.9722,0.9403,0.8615,0.8072,0.7888,0.7682,0.7829,0.8343,0.8136,0.8243,0.8791,0.8804,0.8691,0.8444,0.8437,0.8223,0.7823,0.7823,0.724,0.6238,0.5642,0.5273,0.4999,0.43,0.4133,0.4351,0.4246,0.4331,0.4519,0.4519,0.4519,0.4519,0.4519,0.4519,0.4519,1.293,1.2881,1.2881,1.2881,1.2881,1.2881,1.2881,1.2881,1.2881,1.2881,1.2881,1.2881,1.2881,1.2881,1.2881,1.2881,1.4744,1.5062,1.3017,1.2881,1.2881,1.2881,1.2881,1.2881,1.2881,1.2881,1.2881,1.2881,1.2881,1.2881,1.2881,1.2881,1.2881,1.2881,1.2881,1.2881,1.2881,1.2881,1.2881,1.2881,1.2881,1.2881,1.2881,1.2881,1.2881,1.2881,1.2881,1.2881,1.2881,1.2881,1.2881,1.2881,1.2881,1.2881,1.2881,1.2881,1.2881,1.2881,1.2881,1.2881,1.2881,1.2881,1.2881,1.2881,1.2881,1.2881,1.2881,1.2881,1.2881,1.2881,1.2881,1.2881,1.2744,1.2305,1.1914,1.1685,1.1616,0.0,1.0849,1.1145,1.0842,1.031,0.9498,0.9234,0.881,0.7949,0.7882,0.8009,0.8357,0.833,0.8457,0.8798,0.8804,0.8784,0.8738,0.8738,0.8586,0.8285,0.8285,0.7702,0.6545,0.6723,0.6345,0.5553,0.5088,0.4977,0.5072,0.4453,0.4331,0.4519,0.4519,0.4519,0.4519,0.4519,0.4519,0.4519,1.4835,1.38,1.3296,1.4606,1.4835,1.4387,1.3113,1.2881,1.2881,1.2881,1.2881,1.3382,1.4698,1.3658,1.343,1.4744,1.5876,1.602,1.4926,1.4835,1.4835,1.4835,1.361,1.2881,1.2881,1.2881,1.2881,1.2881,1.2881,1.2881,1.2881,1.2881,1.2881,1.2929,1.3238,1.342,1.3515,1.3055,1.3392,1.4118,1.3248,1.3104,1.3324,1.3017,1.2881,1.2881,1.2881,1.2881,1.2881,1.2881,1.2881,1.2881,1.2881,1.2881,1.2881,1.2881,1.2881,1.2881,1.2881,1.2881,1.2881,1.2881,1.2881,1.2881,1.2881,1.2881,1.2881,1.2881,1.2881,1.2881,1.2881,1.2881,1.2744,1.2305,1.2051,0.0,0.0,1.1535,1.1527,1.1715,1.1492,1.1148,1.073,1.0034,0.9429,0.8941,0.8598,0.8464,0.8604,0.8464,0.851,0.8798,0.8657,0.8571,0.8571,0.8417,0.827,0.8136,0.8136,0.7846,0.7298,0.7139,0.6912,0.6541,0.6007,0.5868,0.5961,0.5641,0.5317,0.5058,0.5058,0.4842,0.4519,0.4519,0.4519,0.4519,1.6522,1.5017,1.434,1.6194,1.6522,1.5888,1.4025,1.3752,1.3752,1.3752,1.3248,1.3847,1.625,1.4835,1.4479,1.6337,1.6522,1.6522,1.6522,1.6522,1.6522,1.6522,1.4201,1.2881,1.2881,1.2881,1.3152,1.3752,1.3752,1.343,1.2881,1.2881,1.2881,1.2929,1.3552,1.3909,1.4003,1.3515,1.4025,1.5028,1.3658,1.3372,1.3732,1.3152,1.2881,1.2881,1.2881,1.2881,1.2881,1.2881,1.2881,1.2929,1.3055,1.3104,1.3152,1.3296,1.32,1.3055,1.2929,1.2881,1.2881,1.2881,1.2881,1.2881,1.2881,1.2881,1.2881,1.2881,1.2881,1.2881,1.2881,1.2881,1.2744,1.2305,0.0,0.0,0.0,1.2012,1.2219,1.2373,1.2205,1.1972,1.1814,1.0864,1.0167,0.9814,0.9309,0.8956,0.8811,0.8597,0.855,0.8704,0.849,0.8343,0.827,0.811,0.7963,0.7822,0.7848,0.7842,0.7775,0.7456,0.7395,0.75,0.6932,0.6744,0.6858,0.6696,0.6258,0.576,0.5542,0.5164,0.4736,0.457,0.4519,0.4519,1.6522,1.638,1.6293,1.6466,1.6522,1.6423,1.625,1.6238,1.6238,1.6238,1.4294,1.3847,1.625,1.6337,1.6293,1.6466,1.6522,1.6522,1.6522,1.6522,1.6522,1.6522,1.4201,1.2881,1.2881,1.2881,1.3978,1.6238,1.6238,1.5107,1.2881,1.2881,1.2881,1.2929,1.3552,1.3815,1.3862,1.434,1.4663,1.4709,1.4014,1.3779,1.3732,1.3152,1.2881,1.2881,1.2881,1.2881,1.2881,1.2881,1.2881,1.3017,1.3552,1.3732,1.3826,1.4387,1.4143,1.36,1.3065,1.2881,1.2881,1.2881,1.2881,1.2881,1.2881,1.2881,1.2881,1.2881,1.2881,1.2881,1.2881,1.2881,1.2744,1.2305,0.0,0.0,1.2141,1.2161,1.2383,1.2783,1.2803,1.2559,1.1873,1.1715,1.1166,0.9917,0.9762,0.9465,0.8857,0.8784,0.8664,0.8417,0.8383,0.8243,0.7922,0.8216,0.8104,0.7547,0.7789,0.7782,0.7553,0.7749,0.7993,0.8283,0.7804,0.7599,0.7563,0.6858,0.6588,0.648,0.576,0.5487,0.5378,0.4732,0.4519,0.4519,1.8555,1.8555,1.8555,1.8555,1.7426,1.6522,1.6522,1.6522,1.6522,1.6522,1.57,1.5478,1.638,1.6522,1.6522,1.6522,1.6522,1.6522,1.6522,1.6522,1.6522,1.6522,1.4201,1.361,1.5107,1.5107,1.5567,1.6522,1.6522,1.602,1.5107,1.4617,1.4258,1.4014,1.4641,1.4903,1.4949,1.5141,1.5466,1.5744,1.4744,1.4595,1.4869,1.4247,1.3789,1.3467,1.3467,1.3238,1.2881,1.2881,1.338,1.3965,1.4199,1.479,1.5481,1.5688,1.5225,1.4618,1.4377,1.365,1.2881,1.2881,1.2881,1.2881,1.2881,1.2881,1.2881,1.2881,1.2881,1.2881,1.2881,1.3096,1.3125,1.2705,0.0,1.293,1.2676,1.2627,1.2695,1.2861,1.2881,1.2774,1.2501,1.208,1.1566,1.1065,1.0269,0.9666,0.9413,0.9008,0.8591,0.8116,0.8103,0.7949,0.7642,0.7756,0.7602,0.7194,0.7502,0.7582,0.7527,0.7983,0.827,0.839,0.841,0.8374,0.8374,0.8103,0.767,0.7235,0.6961,0.6578,0.615,0.5878,0.5496,0.5109,1.9798,1.9798,1.9798,1.9798,1.7978,1.6522,1.6522,1.6522,1.6522,1.6522,1.6522,1.6522,1.6522,1.6522,1.6522,1.6522,1.6522,1.6522,1.6522,1.6522,1.6522,1.6522,1.4926,1.4789,1.6479,1.6522,1.6522,1.6522,1.6522,1.6522,1.6479,1.5932,1.5344,1.4744,1.532,1.5588,1.5632,1.582,1.6139,1.6423,1.5377,1.5231,1.5543,1.4926,1.4422,1.4097,1.4097,1.3836,1.3498,1.3641,1.422,1.4974,1.5323,1.6155,1.6933,1.6885,1.639,1.5833,1.578,1.4706,1.3561,1.3322,1.3271,1.3271,1.3271,1.3271,1.3271,1.3271,1.3271,1.3271,1.3271,1.3506,1.3613,1.332,1.3516,1.3555,1.3135,1.3076,1.3027,1.29,1.2881,1.2881,1.2881,1.2452,1.203,1.1814,1.0965,1.0364,1.0115,0.9621,0.9019,0.8407,0.8248,0.801,0.7615,0.756,0.7406,0.7168,0.7468,0.7662,0.7809,0.8232,0.8424,0.8524,0.8717,0.8804,0.8804,0.8804,0.848,0.8049,0.7777,0.7396,0.6912,0.6696,0.6258,0.5873,1.9798,1.9798,1.9798,1.9798,1.799,1.6547,1.6547,1.6547,1.6547,1.6547,1.6547,1.6547,1.6547,1.6547,1.6534,1.6522,1.6522,1.6522,1.6522,1.6534,1.6547,1.6547,1.6522,1.6522,1.6522,1.6522,1.6522,1.6522,1.6522,1.6522,1.6522,1.6522,1.5876,1.4744,1.532,1.5588,1.5632,1.6238,1.6522,1.6466,1.5864,1.5588,1.5543,1.4926,1.4698,1.4709,1.4709,1.4709,1.4787,1.5328,1.5497,1.5731,1.6929,1.775,1.8174,1.7951,1.7635,1.725,1.7053,1.6131,1.5039,1.4281,1.4131,1.4131,1.4131,1.4131,1.4131,1.4131,1.4077,1.4077,1.4077,1.4077,1.4087,1.4077,1.4077,1.3941,1.3574,1.3506,1.335,1.2939,1.2881,1.2881,1.2881,1.2881,1.2608,1.1864,1.1814,1.1516,1.0864,1.0532,1.01,0.9434,0.9109,0.8569,0.7936,0.7622,0.7513,0.752,0.7782,0.8083,0.837,0.8427,0.853,0.8804,0.8804,0.8804,0.8804,0.8804,0.8804,0.8752,0.7996,0.7723,0.7616,0.6912,0.6588,0.6588,1.9798,1.9798,1.9798,1.9798,1.9258,1.8832,1.8832,1.8832,1.8832,1.8832,1.8832,1.8832,1.8832,1.8832,1.8204,1.666,1.6522,1.6522,1.6522,1.7965,1.8832,1.8832,1.7338,1.6522,1.6522,1.6522,1.6522,1.6522,1.6522,1.6522,1.6522,1.6522,1.6293,1.5976,1.6151,1.6238,1.6238,1.6423,1.6522,1.6466,1.6281,1.6238,1.6194,1.602,1.5688,1.5367,1.5775,1.5625,1.5339,1.5954,1.665,1.7535,1.8669,1.9158,1.9309,1.9242,1.8797,1.8287,1.8231,1.7565,1.6708,1.5894,1.5309,1.5039,1.5577,1.5257,1.4883,1.4883,1.4483,1.4077,1.4077,1.4385,1.4492,1.4126,1.4394,1.4434,1.3951,1.3691,1.3467,1.334,1.3066,1.2881,1.2881,1.2881,1.2822,1.2608,1.208,1.1516,1.0864,1.0714,1.0606,1.0414,1.0116,0.9652,0.8951,0.8173,0.7789,0.7796,0.8096,0.8176,0.8076,0.849,0.8611,0.8517,0.8717,0.8804,0.8804,0.8804,0.8804,0.8758,0.854,0.848,0.8427,0.8209,0.783,0.7396,1.9798,1.9798,1.9798,1.9798,1.9798,1.9798,1.9798,1.9798,1.9798,1.9798,1.9798,1.9798,1.9798,1.9798,1.9258,1.7928,1.7815,1.7815,1.7815,1.9058,1.9798,1.9798,1.853,1.7815,1.7815,1.7815,1.7388,1.6522,1.6522,1.6522,1.6522,1.6974,1.6948,1.6522,1.676,1.6735,1.6534,1.676,1.6722,1.6534,1.6773,1.6722,1.6547,1.6773,1.6628,1.6365,1.6947,1.6895,1.6645,1.7225,1.8049,1.889,1.9583,1.9798,1.9849,2.0075,1.9648,1.9247,1.9672,1.9136,1.8398,1.8419,1.7251,1.6264,1.6759,1.6486,1.6052,1.5796,1.5386,1.4959,1.4694,1.4853,1.4941,1.4678,1.4853,1.4883,1.4453,1.417,1.3945,1.3779,1.3379,1.3135,1.3135,1.3135,1.3135,1.3135,1.2698,1.2254,1.1642,1.1633,1.1484,1.1216,1.1051,1.0638,0.9956,0.9377,0.8742,0.811,0.829,0.8337,0.829,0.8644,0.8711,0.8557,0.8731,0.8804,0.8804,0.8804,0.8804,0.8804,0.8804,0.8804,0.8804,0.8804,0.8533,0.8156,1.9798,1.9798,1.9798,1.9798,1.9798,1.9798,1.9798,1.9798,1.9798,1.9798,1.9798,1.9798,1.9798,1.9798,1.9798,1.9798,1.9798,1.9798,1.9798,1.9798,1.9798,1.9798,1.9798,1.9798,1.9798,1.9798,1.8819,1.681,1.681,1.681,1.6835,1.7865,1.7752,1.6685,1.7187,1.7124,1.671,1.7237,1.7174,1.676,1.72,1.7099,1.6722,1.72,1.7413,1.7526,1.8078,1.8279,1.8355,1.892,1.9409,1.9811,1.9861,1.9874,1.9987,2.0618,2.0363,2.0175,2.1204,2.065,2.006,2.1188,1.9694,1.7933,1.7933,1.7878,1.7656,1.6882,1.6665,1.6378,1.5645,1.5537,1.5518,1.5478,1.5469,1.5322,1.4902,1.4805,1.4639,1.4184,1.3818,1.3564,1.3564,1.3564,1.3564,1.3564,1.3564,1.3379,1.2959,1.2939,1.2646,1.1922,1.1913,1.1566,1.0914,1.0864,1.0113,0.8605,0.8561,0.8653,0.891,0.8804,0.8804,0.8804,0.8804,0.8804,0.8804,0.8804,0.8804,0.8804,0.8804,0.8804,0.8804,0.8804,0.8804,0.8804,1.9798,1.9798,1.9798,1.9798,1.9798,1.9798,1.9798,1.9798,1.9798,1.9798,1.9798,1.9798,1.9798,1.9798,1.9798,1.9798,1.9798,1.9798,1.9798,1.9798,1.9798,1.9798,1.9798,1.9798,1.9798,1.9798,1.9572,1.9083,1.9083,1.9083,1.9095,1.9346,1.8882,1.7827,1.7639,1.7664,1.7852,1.7978,1.8103,1.8179,1.7614,1.7564,1.7802,1.7501,1.7652,1.8103,1.8643,1.8844,1.8932,1.9459,1.971,1.9874,2.0338,2.0476,2.0589,2.1142,2.1217,2.1179,2.1418,2.1281,2.1163,2.1455,2.107,2.065,2.065,2.0201,1.9552,1.8739,1.81,1.7398,1.656,1.6445,1.6338,1.5977,1.5918,1.5771,1.5342,1.499,1.4746,1.4658,1.4258,1.3941,1.3941,1.3941,1.3941,1.3941,1.3941,1.3818,1.3389,1.3369,1.3163,1.2676,1.2666,1.2295,1.1566,1.1566,1.1123,1.0253,0.976,0.9548,0.9562,0.9061,0.8804,0.8804,0.8804,0.8804,0.8804,0.8804,0.8804,0.8804,0.8804,0.8804,0.8804,0.8804,0.8804,0.8804,1.9798,1.9798,2.0137,2.1204,2.1393,2.1029,1.9962,1.9798,1.9798,1.9798,1.9798,1.9798,1.9798,1.9798,1.9798,1.9798,1.9798,1.9798,1.9798,2.0803,2.0916,1.9849,1.9798,1.9798,1.9798,1.9798,1.9798,1.9798,1.9798,1.9798,1.9798,1.9798,1.9497,1.8945,1.8493,1.8342,1.8442,1.8555,1.8543,1.8442,1.8242,1.8179,1.8204,1.8179,1.8342,1.8668,1.9208,1.9572,1.9849,2.0125,2.0388,2.0665,2.0966,2.1054,2.1167,2.1719,2.1694,2.1606,2.2133,2.2083,2.1945,2.2209,2.2272,2.2133,2.1606,2.12,2.0722,1.989,1.9052,1.828,1.7451,1.6971,1.665,1.6416,1.6387,1.6299,1.6074,1.5664,1.5469,1.5693,1.5137,1.4746,1.4746,1.4746,1.4658,1.4463,1.4443,1.4258,1.3828,1.3809,1.3711,1.3486,1.3281,1.3015,1.2626,1.2438,1.2147,1.1792,1.0423,0.9814,0.9762,0.9113,0.8804,0.8804,0.8804,0.8804,0.8804,0.8804,0.8804,0.8804,0.8804,0.8804,0.8804,0.8804,0.8804,0.8804,2.03,2.0363,2.0953,2.2752,2.3078,2.2326,2.015,1.9798,1.9798,1.9798,1.9798,1.9798,1.9798,1.9798,1.9798,1.9798,2.015,2.0363,2.0363,2.2108,2.2133,1.9899,1.9798,1.9798,1.9798,1.9798,1.9798,1.9798,1.9798,1.9798,1.9798,1.9798,1.9798,1.9786,1.9359,1.9058,1.8907,1.9083,1.8894,1.8505,1.8882,1.8807,1.8518,1.8894,1.9083,1.9221,1.9648,2.0175,2.0731,2.0832,2.1104,2.1506,2.1594,2.1631,2.1732,2.2284,2.2133,2.197,2.2887,2.2799,2.2585,2.3138,2.3215,2.3062,2.2246,2.1983,2.1711,2.0839,2.0157,1.947,1.8599,1.7738,1.7105,1.7026,1.6899,1.6816,1.6685,1.6416,1.6318,1.6689,1.6084,1.5605,1.5527,1.5527,1.5352,1.4922,1.4893,1.4707,1.4214,1.4248,1.4155,1.4077,1.3799,1.3613,1.3613,1.3271,1.3096,1.3096,1.1056,1.0125,1.0115,0.9316,0.8956,0.8956,0.8857,0.8804,0.8804,0.8804,0.8804,0.8804,0.8804,0.8804,0.8804,0.8804,0.8804,0.8804,2.2309,2.2627,2.2774,2.3027,2.3078,2.2326,2.015,1.9798,1.9798,1.9798,1.9798,1.9798,1.9798,1.9798,1.9798,1.9798,2.1568,2.2627,2.2627,2.2902,2.2133,1.9899,1.9798,1.9798,1.9798,1.9798,1.9798,1.9798,1.9798,1.9798,1.9798,1.9798,1.9798,1.9798,1.9723,1.9685,1.966,1.9685,1.966,1.956,1.9183,1.9246,1.9547,1.9171,1.9309,1.971,1.9773,2.0175,2.0794,2.1217,2.143,2.1568,2.2046,2.2196,2.2309,2.2802,2.2915,2.2949,2.3027,2.3075,2.3103,2.374,2.3879,2.3966,2.4293,2.4004,2.3269,2.1956,2.1957,2.1806,2.0467,1.9566,1.8799,1.8394,1.7785,1.7168,1.6787,1.668,1.667,1.6665,1.6631,1.6406,1.6016,1.6037,1.5791,1.5361,1.5322,1.5146,1.4717,1.4697,1.4521,1.4087,1.4029,1.4,1.4,1.3941,1.3965,1.3902,1.2132,1.1378,1.1466,1.021,0.9666,0.9614,0.9061,0.8804,0.8804,0.8804,0.8804,0.8804,0.8804,0.8804,0.8804,0.8804,0.8804,0.8804,2.2877,2.3078,2.3078,2.3078,2.3078,2.2739,2.182,2.1656,2.1656,2.1656,2.0577,1.9798,1.9798,1.9798,2.03,2.1556,2.143,2.1807,2.299,2.3078,2.2133,1.9899,2.1004,2.1079,1.9823,1.9798,1.9798,1.9798,1.9798,1.9798,1.9798,1.9798,1.9798,1.9798,1.9798,1.9798,1.9798,1.9798,1.9987,2.0238,1.9685,1.9798,2.0225,1.9673,1.9597,1.9849,2.0162,2.084,2.1619,2.187,2.2159,2.2447,2.2698,2.2774,2.2824,2.3002,2.3078,2.314,2.3527,2.3615,2.3753,2.4318,2.4456,2.4519,2.477,2.4858,2.458,2.3343,2.2889,2.2432,2.1521,2.0879,2.0128,1.9133,1.8961,1.8583,1.7566,1.7246,1.709,1.709,1.7305,1.7275,1.6846,1.6797,1.6621,1.6182,1.5918,1.5693,1.5508,1.5273,1.5049,1.4853,1.4619,1.4492,1.4492,1.4204,1.4077,1.4077,1.3334,1.2659,1.2166,1.051,1.0012,1.0312,0.9666,0.9361,0.9316,0.8956,0.8804,0.8804,0.8804,0.8804,0.8804,0.8804,0.8804,0.8804]}]]